<?xml version="1.0" encoding="UTF-8" standalone="no" ?>
<gpx xmlns="http://www.topografix.com/GPX/1/1" xmlns:xsi="http://www.w3.org/2001/XMLSchema-instance" xsi:schemaLocation="http://www.topografix.com/GPX/1/1 http://www.topografix.com/GPX/1/1/gpx.xsd" version="1.1" creator="VisuGPX - https://www.visugpx.com">
  <metadata>
    <name>PB 2025 Gravel 65 km modifié</name>
    <desc><![CDATA[Rando Gravel Pierre BRETECHER 2025]]></desc>
  </metadata>
  <trk>
    <name><![CDATA[PB 2025 Gravel 65 km modifié]]></name>
    <trkseg>
      <trkpt lat="47.23497" lon="-1.71859">
        <ele>18.202358</ele>
        <time>2025-09-02T15:12:19.985Z</time>
      </trkpt>
      <trkpt lat="47.23495" lon="-1.71858">
        <ele>18.202358</ele>
        <time>2025-09-02T15:12:20.592Z</time>
      </trkpt>
      <trkpt lat="47.23404" lon="-1.71858">
        <ele>18.135335</ele>
        <time>2025-09-02T15:12:40.072Z</time>
      </trkpt>
      <trkpt lat="47.23395" lon="-1.71883">
        <ele>17.807718</ele>
        <time>2025-09-02T15:12:43.859Z</time>
      </trkpt>
      <trkpt lat="47.23394" lon="-1.71901">
        <ele>17.592099</ele>
        <time>2025-09-02T15:12:46.297Z</time>
      </trkpt>
      <trkpt lat="47.23394" lon="-1.71943">
        <ele>17.104344</ele>
        <time>2025-09-02T15:12:51.721Z</time>
      </trkpt>
      <trkpt lat="47.23402" lon="-1.71958">
        <ele>16.89846</ele>
        <time>2025-09-02T15:12:53.962Z</time>
      </trkpt>
      <trkpt lat="47.23405" lon="-1.72045">
        <ele>15.878669</ele>
        <time>2025-09-02T15:13:05.147Z</time>
      </trkpt>
      <trkpt lat="47.23406" lon="-1.72065">
        <ele>15.65031</ele>
        <time>2025-09-02T15:13:07.721Z</time>
      </trkpt>
      <trkpt lat="47.2341" lon="-1.72105">
        <ele>15.173447</ele>
        <time>2025-09-02T15:13:13.246Z</time>
      </trkpt>
      <trkpt lat="47.23414" lon="-1.72108">
        <ele>15.141302</ele>
        <time>2025-09-02T15:13:14.241Z</time>
      </trkpt>
      <trkpt lat="47.23444" lon="-1.72124">
        <ele>15.396236</ele>
        <time>2025-09-02T15:13:21.434Z</time>
      </trkpt>
      <trkpt lat="47.23512" lon="-1.72094">
        <ele>15.967845</ele>
        <time>2025-09-02T15:13:40.625Z</time>
      </trkpt>
      <trkpt lat="47.23584" lon="-1.72078">
        <ele>16.553332</ele>
        <time>2025-09-02T15:14:06.203Z</time>
      </trkpt>
      <trkpt lat="47.23607" lon="-1.72059">
        <ele>17.103633</ele>
        <time>2025-09-02T15:14:16.214Z</time>
      </trkpt>
      <trkpt lat="47.2365" lon="-1.72014">
        <ele>18.285169</ele>
        <time>2025-09-02T15:14:36.704Z</time>
      </trkpt>
      <trkpt lat="47.23684" lon="-1.71936">
        <ele>19.683146</ele>
        <time>2025-09-02T15:15:00.283Z</time>
      </trkpt>
      <trkpt lat="47.23722" lon="-1.71842">
        <ele>20.748395</ele>
        <time>2025-09-02T15:15:24.052Z</time>
      </trkpt>
      <trkpt lat="47.23758" lon="-1.71805">
        <ele>20.95987</ele>
        <time>2025-09-02T15:15:35.277Z</time>
      </trkpt>
      <trkpt lat="47.23778" lon="-1.7175">
        <ele>21.162959</ele>
        <time>2025-09-02T15:15:45.516Z</time>
      </trkpt>
      <trkpt lat="47.23795" lon="-1.71691">
        <ele>21.373462</ele>
        <time>2025-09-02T15:15:56.114Z</time>
      </trkpt>
      <trkpt lat="47.23811" lon="-1.71653">
        <ele>21.723663</ele>
        <time>2025-09-02T15:16:04.167Z</time>
      </trkpt>
      <trkpt lat="47.23822" lon="-1.71585">
        <ele>22.616447</ele>
        <time>2025-09-02T15:16:18.070Z</time>
      </trkpt>
      <trkpt lat="47.23849" lon="-1.71438">
        <ele>24.568978</ele>
        <time>2025-09-02T15:16:56.992Z</time>
      </trkpt>
      <trkpt lat="47.23851" lon="-1.71412">
        <ele>24.87542</ele>
        <time>2025-09-02T15:17:04.079Z</time>
      </trkpt>
      <trkpt lat="47.23863" lon="-1.71318">
        <ele>25.624975</ele>
        <time>2025-09-02T15:17:28.741Z</time>
      </trkpt>
      <trkpt lat="47.23872" lon="-1.71302">
        <ele>25.787452</ele>
        <time>2025-09-02T15:17:33.518Z</time>
      </trkpt>
      <trkpt lat="47.23887" lon="-1.71294">
        <ele>25.968437</ele>
        <time>2025-09-02T15:17:38.574Z</time>
      </trkpt>
      <trkpt lat="47.23911" lon="-1.71238">
        <ele>26.485938</ele>
        <time>2025-09-02T15:17:50.965Z</time>
      </trkpt>
      <trkpt lat="47.23931" lon="-1.71152">
        <ele>26.757475</ele>
        <time>2025-09-02T15:18:04.930Z</time>
      </trkpt>
      <trkpt lat="47.23945" lon="-1.71108">
        <ele>26.551827</ele>
        <time>2025-09-02T15:18:11.970Z</time>
      </trkpt>
      <trkpt lat="47.23958" lon="-1.71079">
        <ele>26.403837</ele>
        <time>2025-09-02T15:18:17.012Z</time>
      </trkpt>
      <trkpt lat="47.23966" lon="-1.71074">
        <ele>26.347397</ele>
        <time>2025-09-02T15:18:18.842Z</time>
      </trkpt>
      <trkpt lat="47.23988" lon="-1.71054">
        <ele>26.188808</ele>
        <time>2025-09-02T15:18:24.048Z</time>
      </trkpt>
      <trkpt lat="47.24036" lon="-1.70979">
        <ele>25.890328</ele>
        <time>2025-09-02T15:18:40.079Z</time>
      </trkpt>
      <trkpt lat="47.24067" lon="-1.70946">
        <ele>26.557924</ele>
        <time>2025-09-02T15:18:50.799Z</time>
      </trkpt>
      <trkpt lat="47.24069" lon="-1.70895">
        <ele>27.16712</ele>
        <time>2025-09-02T15:19:02.012Z</time>
      </trkpt>
      <trkpt lat="47.24065" lon="-1.7081">
        <ele>28.169167</ele>
        <time>2025-09-02T15:19:22.272Z</time>
      </trkpt>
      <trkpt lat="47.24079" lon="-1.70754">
        <ele>28.877644</ele>
        <time>2025-09-02T15:19:37.663Z</time>
      </trkpt>
      <trkpt lat="47.24093" lon="-1.70723">
        <ele>29.630296</ele>
        <time>2025-09-02T15:19:47.488Z</time>
      </trkpt>
      <trkpt lat="47.24102" lon="-1.7069">
        <ele>30.394138</ele>
        <time>2025-09-02T15:19:57.043Z</time>
      </trkpt>
      <trkpt lat="47.24112" lon="-1.70595">
        <ele>32.446741</ele>
        <time>2025-09-02T15:20:23.334Z</time>
      </trkpt>
      <trkpt lat="47.24115" lon="-1.70512">
        <ele>34.245691</ele>
        <time>2025-09-02T15:20:47.264Z</time>
      </trkpt>
      <trkpt lat="47.2413" lon="-1.70311">
        <ele>38.619359</ele>
        <time>2025-09-02T15:21:44.984Z</time>
      </trkpt>
      <trkpt lat="47.24136" lon="-1.70312">
        <ele>38.834048</ele>
        <time>2025-09-02T15:21:48.579Z</time>
      </trkpt>
      <trkpt lat="47.24255" lon="-1.70206">
        <ele>41.821983</ele>
        <time>2025-09-02T15:22:57.524Z</time>
      </trkpt>
      <trkpt lat="47.24275" lon="-1.70194">
        <ele>42.160603</ele>
        <time>2025-09-02T15:23:06.855Z</time>
      </trkpt>
      <trkpt lat="47.24224" lon="-1.70035">
        <ele>43.251508</ele>
        <time>2025-09-02T15:23:53.503Z</time>
      </trkpt>
      <trkpt lat="47.24319" lon="-1.69745">
        <ele>43.959494</ele>
        <time>2025-09-02T15:25:13.541Z</time>
      </trkpt>
      <trkpt lat="47.24321" lon="-1.69736">
        <ele>44.006634</ele>
        <time>2025-09-02T15:25:16.057Z</time>
      </trkpt>
      <trkpt lat="47.2437" lon="-1.69574">
        <ele>45.496407</ele>
        <time>2025-09-02T15:26:10.947Z</time>
      </trkpt>
      <trkpt lat="47.24377" lon="-1.6954">
        <ele>46.050011</ele>
        <time>2025-09-02T15:26:22.805Z</time>
      </trkpt>
      <trkpt lat="47.24384" lon="-1.69475">
        <ele>47.074218</ele>
        <time>2025-09-02T15:26:44.825Z</time>
      </trkpt>
      <trkpt lat="47.24389" lon="-1.69454">
        <ele>47.41814</ele>
        <time>2025-09-02T15:26:52.216Z</time>
      </trkpt>
      <trkpt lat="47.24379" lon="-1.69278">
        <ele>50.315967</ele>
        <time>2025-09-02T15:27:51.874Z</time>
      </trkpt>
      <trkpt lat="47.24372" lon="-1.69208">
        <ele>51.520388</ele>
        <time>2025-09-02T15:28:15.790Z</time>
      </trkpt>
      <trkpt lat="47.24407" lon="-1.69173">
        <ele>52.591655</ele>
        <time>2025-09-02T15:28:30.490Z</time>
      </trkpt>
      <trkpt lat="47.24443" lon="-1.69138">
        <ele>53.638139</ele>
        <time>2025-09-02T15:28:45.737Z</time>
      </trkpt>
      <trkpt lat="47.24455" lon="-1.69128">
        <ele>53.932421</ele>
        <time>2025-09-02T15:28:50.555Z</time>
      </trkpt>
      <trkpt lat="47.24463" lon="-1.69125">
        <ele>54.117696</ele>
        <time>2025-09-02T15:28:53.554Z</time>
      </trkpt>
      <trkpt lat="47.24467" lon="-1.69112">
        <ele>54.317744</ele>
        <time>2025-09-02T15:28:56.790Z</time>
      </trkpt>
      <trkpt lat="47.24473" lon="-1.69109">
        <ele>54.452956</ele>
        <time>2025-09-02T15:28:58.977Z</time>
      </trkpt>
      <trkpt lat="47.24478" lon="-1.69112">
        <ele>54.569737</ele>
        <time>2025-09-02T15:29:00.898Z</time>
      </trkpt>
      <trkpt lat="47.24482" lon="-1.69121">
        <ele>54.741958</ele>
        <time>2025-09-02T15:29:03.653Z</time>
      </trkpt>
      <trkpt lat="47.24506" lon="-1.69114">
        <ele>55.264294</ele>
        <time>2025-09-02T15:29:12.118Z</time>
      </trkpt>
      <trkpt lat="47.24517" lon="-1.69104">
        <ele>55.548839</ele>
        <time>2025-09-02T15:29:16.602Z</time>
      </trkpt>
      <trkpt lat="47.24544" lon="-1.69074">
        <ele>56.279783</ele>
        <time>2025-09-02T15:29:27.733Z</time>
      </trkpt>
      <trkpt lat="47.24601" lon="-1.69042">
        <ele>57.338586</ele>
        <time>2025-09-02T15:29:46.386Z</time>
      </trkpt>
      <trkpt lat="47.2462" lon="-1.69035">
        <ele>57.484053</ele>
        <time>2025-09-02T15:29:51.841Z</time>
      </trkpt>
      <trkpt lat="47.24632" lon="-1.69032">
        <ele>57.580847</ele>
        <time>2025-09-02T15:29:55.361Z</time>
      </trkpt>
      <trkpt lat="47.24659" lon="-1.69034">
        <ele>57.781981</ele>
        <time>2025-09-02T15:30:02.305Z</time>
      </trkpt>
      <trkpt lat="47.24702" lon="-1.69059">
        <ele>58.134059</ele>
        <time>2025-09-02T15:30:13.743Z</time>
      </trkpt>
      <trkpt lat="47.24813" lon="-1.69151">
        <ele>58.305486</ele>
        <time>2025-09-02T15:30:43.190Z</time>
      </trkpt>
      <trkpt lat="47.24887" lon="-1.69211">
        <ele>57.994433</ele>
        <time>2025-09-02T15:31:00.952Z</time>
      </trkpt>
      <trkpt lat="47.24904" lon="-1.69219">
        <ele>57.928877</ele>
        <time>2025-09-02T15:31:04.510Z</time>
      </trkpt>
      <trkpt lat="47.24923" lon="-1.69223">
        <ele>57.70375</ele>
        <time>2025-09-02T15:31:08.333Z</time>
      </trkpt>
      <trkpt lat="47.24945" lon="-1.69223">
        <ele>57.359219</ele>
        <time>2025-09-02T15:31:12.570Z</time>
      </trkpt>
      <trkpt lat="47.24979" lon="-1.69216">
        <ele>56.82013</ele>
        <time>2025-09-02T15:31:19.059Z</time>
      </trkpt>
      <trkpt lat="47.25089" lon="-1.69201">
        <ele>55.093821</ele>
        <time>2025-09-02T15:31:39.443Z</time>
      </trkpt>
      <trkpt lat="47.25132" lon="-1.69188">
        <ele>54.697351</ele>
        <time>2025-09-02T15:31:47.715Z</time>
      </trkpt>
      <trkpt lat="47.25243" lon="-1.69126">
        <ele>53.628962</ele>
        <time>2025-09-02T15:32:11.067Z</time>
      </trkpt>
      <trkpt lat="47.25257" lon="-1.69121">
        <ele>53.501018</ele>
        <time>2025-09-02T15:32:14.595Z</time>
      </trkpt>
      <trkpt lat="47.25277" lon="-1.69115">
        <ele>53.790799</ele>
        <time>2025-09-02T15:32:19.988Z</time>
      </trkpt>
      <trkpt lat="47.253" lon="-1.69241">
        <ele>55.437719</ele>
        <time>2025-09-02T15:32:49.139Z</time>
      </trkpt>
      <trkpt lat="47.25307" lon="-1.69309">
        <ele>56.311288</ele>
        <time>2025-09-02T15:33:07.537Z</time>
      </trkpt>
      <trkpt lat="47.25308" lon="-1.6933">
        <ele>56.57079</ele>
        <time>2025-09-02T15:33:12.714Z</time>
      </trkpt>
      <trkpt lat="47.25303" lon="-1.69368">
        <ele>56.934134</ele>
        <time>2025-09-02T15:33:21.884Z</time>
      </trkpt>
      <trkpt lat="47.2529" lon="-1.6944">
        <ele>57.398291</ele>
        <time>2025-09-02T15:33:37.334Z</time>
      </trkpt>
      <trkpt lat="47.25285" lon="-1.69487">
        <ele>57.696884</ele>
        <time>2025-09-02T15:33:46.020Z</time>
      </trkpt>
      <trkpt lat="47.25288" lon="-1.69521">
        <ele>57.909126</ele>
        <time>2025-09-02T15:33:51.789Z</time>
      </trkpt>
      <trkpt lat="47.25274" lon="-1.69509">
        <ele>58.065451</ele>
        <time>2025-09-02T15:33:55.890Z</time>
      </trkpt>
      <trkpt lat="47.25265" lon="-1.69519">
        <ele>58.168605</ele>
        <time>2025-09-02T15:33:58.519Z</time>
      </trkpt>
      <trkpt lat="47.25262" lon="-1.69536">
        <ele>58.280217</ele>
        <time>2025-09-02T15:34:01.331Z</time>
      </trkpt>
      <trkpt lat="47.25268" lon="-1.69582">
        <ele>58.543315</ele>
        <time>2025-09-02T15:34:08.533Z</time>
      </trkpt>
      <trkpt lat="47.25282" lon="-1.6965">
        <ele>58.877963</ele>
        <time>2025-09-02T15:34:19.818Z</time>
      </trkpt>
      <trkpt lat="47.2531" lon="-1.69766">
        <ele>59.463179</ele>
        <time>2025-09-02T15:34:42.222Z</time>
      </trkpt>
      <trkpt lat="47.25342" lon="-1.69898">
        <ele>60.747481</ele>
        <time>2025-09-02T15:35:11.540Z</time>
      </trkpt>
      <trkpt lat="47.25348" lon="-1.69917">
        <ele>60.993418</ele>
        <time>2025-09-02T15:35:16.206Z</time>
      </trkpt>
      <trkpt lat="47.2536" lon="-1.69957">
        <ele>61.522444</ele>
        <time>2025-09-02T15:35:30.646Z</time>
      </trkpt>
      <trkpt lat="47.25359" lon="-1.69983">
        <ele>61.833277</ele>
        <time>2025-09-02T15:35:39.055Z</time>
      </trkpt>
      <trkpt lat="47.25365" lon="-1.7005">
        <ele>62.64143</ele>
        <time>2025-09-02T15:36:00.385Z</time>
      </trkpt>
      <trkpt lat="47.25373" lon="-1.70066">
        <ele>62.877739</ele>
        <time>2025-09-02T15:36:06.464Z</time>
      </trkpt>
      <trkpt lat="47.25386" lon="-1.70078">
        <ele>63.053226</ele>
        <time>2025-09-02T15:36:13.596Z</time>
      </trkpt>
      <trkpt lat="47.2541" lon="-1.70092">
        <ele>63.347765</ele>
        <time>2025-09-02T15:36:25.224Z</time>
      </trkpt>
      <trkpt lat="47.25429" lon="-1.70109">
        <ele>63.603598</ele>
        <time>2025-09-02T15:36:35.157Z</time>
      </trkpt>
      <trkpt lat="47.25433" lon="-1.70117">
        <ele>63.682915</ele>
        <time>2025-09-02T15:36:38.211Z</time>
      </trkpt>
      <trkpt lat="47.25459" lon="-1.7011">
        <ele>63.983212</ele>
        <time>2025-09-02T15:36:49.668Z</time>
      </trkpt>
      <trkpt lat="47.25535" lon="-1.70055">
        <ele>64.939576</ele>
        <time>2025-09-02T15:37:24.969Z</time>
      </trkpt>
      <trkpt lat="47.25535" lon="-1.70055">
        <ele>64.939576</ele>
        <time>2025-09-02T15:37:24.976Z</time>
      </trkpt>
      <trkpt lat="47.25569" lon="-1.70052">
        <ele>64.636147</ele>
        <time>2025-09-02T15:37:38.063Z</time>
      </trkpt>
      <trkpt lat="47.25622" lon="-1.70034">
        <ele>64.156437</ele>
        <time>2025-09-02T15:37:57.105Z</time>
      </trkpt>
      <trkpt lat="47.25659" lon="-1.70012">
        <ele>63.806656</ele>
        <time>2025-09-02T15:38:10.561Z</time>
      </trkpt>
      <trkpt lat="47.25708" lon="-1.69988">
        <ele>63.346055</ele>
        <time>2025-09-02T15:38:27.641Z</time>
      </trkpt>
      <trkpt lat="47.25724" lon="-1.70044">
        <ele>62.804497</ele>
        <time>2025-09-02T15:38:35.663Z</time>
      </trkpt>
      <trkpt lat="47.2575" lon="-1.70119">
        <ele>62.068937</ele>
        <time>2025-09-02T15:38:46.671Z</time>
      </trkpt>
      <trkpt lat="47.258" lon="-1.70312">
        <ele>61.523224</ele>
        <time>2025-09-02T15:39:16.701Z</time>
      </trkpt>
      <trkpt lat="47.25797" lon="-1.70321">
        <ele>61.578477</ele>
        <time>2025-09-02T15:39:18.538Z</time>
      </trkpt>
      <trkpt lat="47.25778" lon="-1.70338">
        <ele>61.75664</ele>
        <time>2025-09-02T15:39:24.653Z</time>
      </trkpt>
      <trkpt lat="47.25711" lon="-1.70384">
        <ele>62.361156</ele>
        <time>2025-09-02T15:39:48.477Z</time>
      </trkpt>
      <trkpt lat="47.25618" lon="-1.70467">
        <ele>63.22289</ele>
        <time>2025-09-02T15:40:23.153Z</time>
      </trkpt>
      <trkpt lat="47.25601" lon="-1.70487">
        <ele>63.400742</ele>
        <time>2025-09-02T15:40:28.829Z</time>
      </trkpt>
      <trkpt lat="47.25586" lon="-1.70515">
        <ele>63.588746</ele>
        <time>2025-09-02T15:40:34.437Z</time>
      </trkpt>
      <trkpt lat="47.25575" lon="-1.70541">
        <ele>63.754333</ele>
        <time>2025-09-02T15:40:39.137Z</time>
      </trkpt>
      <trkpt lat="47.25563" lon="-1.7058">
        <ele>63.863792</ele>
        <time>2025-09-02T15:40:45.311Z</time>
      </trkpt>
      <trkpt lat="47.25564" lon="-1.70592">
        <ele>63.794613</ele>
        <time>2025-09-02T15:40:47.172Z</time>
      </trkpt>
      <trkpt lat="47.25587" lon="-1.70698">
        <ele>63.198999</ele>
        <time>2025-09-02T15:41:03.062Z</time>
      </trkpt>
      <trkpt lat="47.25595" lon="-1.70744">
        <ele>62.948326</ele>
        <time>2025-09-02T15:41:09.746Z</time>
      </trkpt>
      <trkpt lat="47.2565" lon="-1.70747">
        <ele>62.512447</ele>
        <time>2025-09-02T15:41:21.402Z</time>
      </trkpt>
      <trkpt lat="47.25755" lon="-1.70759">
        <ele>61.451654</ele>
        <time>2025-09-02T15:41:43.713Z</time>
      </trkpt>
      <trkpt lat="47.25777" lon="-1.70754">
        <ele>61.232238</ele>
        <time>2025-09-02T15:41:48.276Z</time>
      </trkpt>
      <trkpt lat="47.25904" lon="-1.70645">
        <ele>58.899325</ele>
        <time>2025-09-02T15:42:18.130Z</time>
      </trkpt>
      <trkpt lat="47.25933" lon="-1.70609">
        <ele>58.174903</ele>
        <time>2025-09-02T15:42:25.201Z</time>
      </trkpt>
      <trkpt lat="47.25971" lon="-1.70566">
        <ele>57.25873</ele>
        <time>2025-09-02T15:42:33.892Z</time>
      </trkpt>
      <trkpt lat="47.26034" lon="-1.70511">
        <ele>56.613264</ele>
        <time>2025-09-02T15:42:47.523Z</time>
      </trkpt>
      <trkpt lat="47.26063" lon="-1.70487">
        <ele>56.325211</ele>
        <time>2025-09-02T15:42:54.210Z</time>
      </trkpt>
      <trkpt lat="47.26072" lon="-1.70479">
        <ele>56.231759</ele>
        <time>2025-09-02T15:42:56.386Z</time>
      </trkpt>
      <trkpt lat="47.2621" lon="-1.70365">
        <ele>57.049599</ele>
        <time>2025-09-02T15:43:42.189Z</time>
      </trkpt>
      <trkpt lat="47.26222" lon="-1.70355">
        <ele>57.249286</ele>
        <time>2025-09-02T15:43:46.977Z</time>
      </trkpt>
      <trkpt lat="47.26271" lon="-1.70318">
        <ele>58.028995</ele>
        <time>2025-09-02T15:44:04.705Z</time>
      </trkpt>
      <trkpt lat="47.26283" lon="-1.7031">
        <ele>58.216957</ele>
        <time>2025-09-02T15:44:08.673Z</time>
      </trkpt>
      <trkpt lat="47.26324" lon="-1.70275">
        <ele>58.578693</ele>
        <time>2025-09-02T15:44:22.183Z</time>
      </trkpt>
      <trkpt lat="47.26327" lon="-1.70289">
        <ele>58.652283</ele>
        <time>2025-09-02T15:44:26.271Z</time>
      </trkpt>
      <trkpt lat="47.26283" lon="-1.7033">
        <ele>59.030817</ele>
        <time>2025-09-02T15:44:46.509Z</time>
      </trkpt>
      <trkpt lat="47.26281" lon="-1.70336">
        <ele>59.067252</ele>
        <time>2025-09-02T15:44:48.426Z</time>
      </trkpt>
      <trkpt lat="47.26282" lon="-1.70343">
        <ele>59.099397</ele>
        <time>2025-09-02T15:44:50.120Z</time>
      </trkpt>
      <trkpt lat="47.26324" lon="-1.70424">
        <ele>59.625772</ele>
        <time>2025-09-02T15:45:17.158Z</time>
      </trkpt>
      <trkpt lat="47.26358" lon="-1.70481">
        <ele>60.170813</ele>
        <time>2025-09-02T15:45:38.340Z</time>
      </trkpt>
      <trkpt lat="47.26366" lon="-1.70482">
        <ele>60.254225</ele>
        <time>2025-09-02T15:45:41.686Z</time>
      </trkpt>
      <trkpt lat="47.26531" lon="-1.70414">
        <ele>62.236542</ele>
        <time>2025-09-02T15:46:56.428Z</time>
      </trkpt>
      <trkpt lat="47.26623" lon="-1.70373">
        <ele>63.530354</ele>
        <time>2025-09-02T15:47:38.350Z</time>
      </trkpt>
      <trkpt lat="47.26872" lon="-1.70316">
        <ele>66.658018</ele>
        <time>2025-09-02T15:49:29.872Z</time>
      </trkpt>
      <trkpt lat="47.26903" lon="-1.70309">
        <ele>66.830994</ele>
        <time>2025-09-02T15:49:42.747Z</time>
      </trkpt>
      <trkpt lat="47.26919" lon="-1.70102">
        <ele>67.127505</ele>
        <time>2025-09-02T15:50:35.929Z</time>
      </trkpt>
      <trkpt lat="47.26927" lon="-1.70038">
        <ele>66.810655</ele>
        <time>2025-09-02T15:50:51.703Z</time>
      </trkpt>
      <trkpt lat="47.26957" lon="-1.6984">
        <ele>65.82311</ele>
        <time>2025-09-02T15:51:38.393Z</time>
      </trkpt>
      <trkpt lat="47.26962" lon="-1.69763">
        <ele>65.441413</ele>
        <time>2025-09-02T15:51:48.833Z</time>
      </trkpt>
      <trkpt lat="47.26961" lon="-1.69745">
        <ele>65.351031</ele>
        <time>2025-09-02T15:51:51.373Z</time>
      </trkpt>
      <trkpt lat="47.2697" lon="-1.69738">
        <ele>65.275807</ele>
        <time>2025-09-02T15:51:53.621Z</time>
      </trkpt>
      <trkpt lat="47.26976" lon="-1.69734">
        <ele>65.225376</ele>
        <time>2025-09-02T15:51:55.077Z</time>
      </trkpt>
      <trkpt lat="47.27002" lon="-1.69805">
        <ele>64.828762</ele>
        <time>2025-09-02T15:52:06.590Z</time>
      </trkpt>
      <trkpt lat="47.27335" lon="-1.69632">
        <ele>65.931948</ele>
        <time>2025-09-02T15:54:23.472Z</time>
      </trkpt>
      <trkpt lat="47.27314" lon="-1.69615">
        <ele>66.032456</ele>
        <time>2025-09-02T15:54:29.694Z</time>
      </trkpt>
      <trkpt lat="47.27302" lon="-1.69596">
        <ele>66.110675</ele>
        <time>2025-09-02T15:54:34.257Z</time>
      </trkpt>
      <trkpt lat="47.27222" lon="-1.69367">
        <ele>66.66176</ele>
        <time>2025-09-02T15:55:19.162Z</time>
      </trkpt>
      <trkpt lat="47.2722" lon="-1.69363">
        <ele>66.646636</ele>
        <time>2025-09-02T15:55:19.894Z</time>
      </trkpt>
      <trkpt lat="47.27216" lon="-1.69346">
        <ele>66.590766</ele>
        <time>2025-09-02T15:55:22.592Z</time>
      </trkpt>
      <trkpt lat="47.27241" lon="-1.69331">
        <ele>66.464992</ele>
        <time>2025-09-02T15:55:32.267Z</time>
      </trkpt>
      <trkpt lat="47.27244" lon="-1.69326">
        <ele>66.442357</ele>
        <time>2025-09-02T15:55:34.000Z</time>
      </trkpt>
      <trkpt lat="47.2725" lon="-1.69281">
        <ele>66.29791</ele>
        <time>2025-09-02T15:55:44.944Z</time>
      </trkpt>
      <trkpt lat="47.27264" lon="-1.69211">
        <ele>66.063239</ele>
        <time>2025-09-02T15:56:02.334Z</time>
      </trkpt>
      <trkpt lat="47.27287" lon="-1.69165">
        <ele>65.73432</ele>
        <time>2025-09-02T15:56:15.555Z</time>
      </trkpt>
      <trkpt lat="47.27317" lon="-1.69079">
        <ele>64.593781</ele>
        <time>2025-09-02T15:56:37.706Z</time>
      </trkpt>
      <trkpt lat="47.27335" lon="-1.6906">
        <ele>64.201596</ele>
        <time>2025-09-02T15:56:45.199Z</time>
      </trkpt>
      <trkpt lat="47.27384" lon="-1.69035">
        <ele>63.307314</ele>
        <time>2025-09-02T15:57:01.933Z</time>
      </trkpt>
      <trkpt lat="47.27424" lon="-1.69019">
        <ele>62.377913</ele>
        <time>2025-09-02T15:57:15.324Z</time>
      </trkpt>
      <trkpt lat="47.27499" lon="-1.69099">
        <ele>59.393012</ele>
        <time>2025-09-02T15:57:43.830Z</time>
      </trkpt>
      <trkpt lat="47.27523" lon="-1.6912">
        <ele>58.477088</ele>
        <time>2025-09-02T15:57:52.400Z</time>
      </trkpt>
      <trkpt lat="47.27544" lon="-1.69128">
        <ele>57.772292</ele>
        <time>2025-09-02T15:57:58.932Z</time>
      </trkpt>
      <trkpt lat="47.27549" lon="-1.69134">
        <ele>57.551889</ele>
        <time>2025-09-02T15:58:00.977Z</time>
      </trkpt>
      <trkpt lat="47.27552" lon="-1.69143">
        <ele>57.354293</ele>
        <time>2025-09-02T15:58:02.800Z</time>
      </trkpt>
      <trkpt lat="47.27549" lon="-1.69164">
        <ele>56.882657</ele>
        <time>2025-09-02T15:58:07.191Z</time>
      </trkpt>
      <trkpt lat="47.27552" lon="-1.6917">
        <ele>56.731455</ele>
        <time>2025-09-02T15:58:08.661Z</time>
      </trkpt>
      <trkpt lat="47.27605" lon="-1.69202">
        <ele>54.95265</ele>
        <time>2025-09-02T15:58:25.789Z</time>
      </trkpt>
      <trkpt lat="47.27654" lon="-1.69255">
        <ele>53.084192</ele>
        <time>2025-09-02T15:58:44.047Z</time>
      </trkpt>
      <trkpt lat="47.27672" lon="-1.69268">
        <ele>52.463154</ele>
        <time>2025-09-02T15:58:50.372Z</time>
      </trkpt>
      <trkpt lat="47.27693" lon="-1.69277">
        <ele>51.776015</ele>
        <time>2025-09-02T15:58:57.550Z</time>
      </trkpt>
      <trkpt lat="47.27723" lon="-1.69273">
        <ele>51.666663</ele>
        <time>2025-09-02T15:59:07.452Z</time>
      </trkpt>
      <trkpt lat="47.27745" lon="-1.69282">
        <ele>51.982281</ele>
        <time>2025-09-02T15:59:15.988Z</time>
      </trkpt>
      <trkpt lat="47.27757" lon="-1.69294">
        <ele>52.171747</ele>
        <time>2025-09-02T15:59:21.549Z</time>
      </trkpt>
      <trkpt lat="47.27766" lon="-1.69311">
        <ele>52.372253</ele>
        <time>2025-09-02T15:59:27.802Z</time>
      </trkpt>
      <trkpt lat="47.27774" lon="-1.69338">
        <ele>52.635659</ele>
        <time>2025-09-02T15:59:36.540Z</time>
      </trkpt>
      <trkpt lat="47.2778" lon="-1.6937">
        <ele>52.939469</ele>
        <time>2025-09-02T15:59:47.411Z</time>
      </trkpt>
      <trkpt lat="47.27777" lon="-1.69408">
        <ele>53.281054</ele>
        <time>2025-09-02T16:00:00.439Z</time>
      </trkpt>
      <trkpt lat="47.27771" lon="-1.69449">
        <ele>53.660954</ele>
        <time>2025-09-02T16:00:15.683Z</time>
      </trkpt>
      <trkpt lat="47.27771" lon="-1.69503">
        <ele>54.469153</ele>
        <time>2025-09-02T16:00:36.103Z</time>
      </trkpt>
      <trkpt lat="47.27781" lon="-1.69589">
        <ele>56.024447</ele>
        <time>2025-09-02T16:00:59.930Z</time>
      </trkpt>
      <trkpt lat="47.278" lon="-1.69642">
        <ele>57.090865</ele>
        <time>2025-09-02T16:01:14.902Z</time>
      </trkpt>
      <trkpt lat="47.27812" lon="-1.69637">
        <ele>57.411014</ele>
        <time>2025-09-02T16:01:19.059Z</time>
      </trkpt>
      <trkpt lat="47.27821" lon="-1.6964">
        <ele>57.667787</ele>
        <time>2025-09-02T16:01:22.287Z</time>
      </trkpt>
      <trkpt lat="47.27825" lon="-1.69644">
        <ele>57.795748</ele>
        <time>2025-09-02T16:01:23.823Z</time>
      </trkpt>
      <trkpt lat="47.27834" lon="-1.69664">
        <ele>58.223994</ele>
        <time>2025-09-02T16:01:28.818Z</time>
      </trkpt>
      <trkpt lat="47.27838" lon="-1.69676">
        <ele>58.452764</ele>
        <time>2025-09-02T16:01:31.394Z</time>
      </trkpt>
      <trkpt lat="47.27847" lon="-1.69671">
        <ele>58.628117</ele>
        <time>2025-09-02T16:01:34.171Z</time>
      </trkpt>
      <trkpt lat="47.27852" lon="-1.69686">
        <ele>58.774324</ele>
        <time>2025-09-02T16:01:37.430Z</time>
      </trkpt>
      <trkpt lat="47.27872" lon="-1.69686">
        <ele>59.025941</ele>
        <time>2025-09-02T16:01:45.744Z</time>
      </trkpt>
      <trkpt lat="47.27892" lon="-1.6968">
        <ele>59.294244</ele>
        <time>2025-09-02T16:01:54.417Z</time>
      </trkpt>
      <trkpt lat="47.27922" lon="-1.69666">
        <ele>59.692096</ele>
        <time>2025-09-02T16:02:07.218Z</time>
      </trkpt>
      <trkpt lat="47.27941" lon="-1.69663">
        <ele>59.943974</ele>
        <time>2025-09-02T16:02:15.330Z</time>
      </trkpt>
      <trkpt lat="47.27948" lon="-1.69669">
        <ele>60.044676</ele>
        <time>2025-09-02T16:02:18.617Z</time>
      </trkpt>
      <trkpt lat="47.27964" lon="-1.69724">
        <ele>60.567766</ele>
        <time>2025-09-02T16:02:36.039Z</time>
      </trkpt>
      <trkpt lat="47.27985" lon="-1.69722">
        <ele>60.840535</ele>
        <time>2025-09-02T16:02:42.644Z</time>
      </trkpt>
      <trkpt lat="47.28001" lon="-1.69725">
        <ele>61.172505</ele>
        <time>2025-09-02T16:02:47.883Z</time>
      </trkpt>
      <trkpt lat="47.28009" lon="-1.69746">
        <ele>61.526169</ele>
        <time>2025-09-02T16:02:53.443Z</time>
      </trkpt>
      <trkpt lat="47.28026" lon="-1.69799">
        <ele>62.410232</ele>
        <time>2025-09-02T16:03:07.864Z</time>
      </trkpt>
      <trkpt lat="47.2807" lon="-1.69965">
        <ele>64.994236</ele>
        <time>2025-09-02T16:04:07.248Z</time>
      </trkpt>
      <trkpt lat="47.28088" lon="-1.70059">
        <ele>65.965583</ele>
        <time>2025-09-02T16:04:37.376Z</time>
      </trkpt>
      <trkpt lat="47.28056" lon="-1.70135">
        <ele>66.860757</ele>
        <time>2025-09-02T16:05:03.725Z</time>
      </trkpt>
      <trkpt lat="47.28204" lon="-1.70364">
        <ele>69.137477</ele>
        <time>2025-09-02T16:06:32.950Z</time>
      </trkpt>
      <trkpt lat="47.28242" lon="-1.70417">
        <ele>69.576167</ele>
        <time>2025-09-02T16:06:55.003Z</time>
      </trkpt>
      <trkpt lat="47.28323" lon="-1.70546">
        <ele>70.558285</ele>
        <time>2025-09-02T16:07:44.493Z</time>
      </trkpt>
      <trkpt lat="47.28355" lon="-1.70532">
        <ele>70.667074</ele>
        <time>2025-09-02T16:07:52.972Z</time>
      </trkpt>
      <trkpt lat="47.28364" lon="-1.7053">
        <ele>70.653315</ele>
        <time>2025-09-02T16:07:55.258Z</time>
      </trkpt>
      <trkpt lat="47.28417" lon="-1.70524">
        <ele>70.573684</ele>
        <time>2025-09-02T16:08:07.608Z</time>
      </trkpt>
      <trkpt lat="47.2866" lon="-1.70552">
        <ele>69.473573</ele>
        <time>2025-09-02T16:08:58.104Z</time>
      </trkpt>
      <trkpt lat="47.28699" lon="-1.70551">
        <ele>69.203322</ele>
        <time>2025-09-02T16:09:05.902Z</time>
      </trkpt>
      <trkpt lat="47.28999" lon="-1.70466">
        <ele>65.663079</ele>
        <time>2025-09-02T16:10:06.005Z</time>
      </trkpt>
      <trkpt lat="47.29081" lon="-1.70441">
        <ele>64.475159</ele>
        <time>2025-09-02T16:10:21.811Z</time>
      </trkpt>
      <trkpt lat="47.29145" lon="-1.70418">
        <ele>63.436314</ele>
        <time>2025-09-02T16:10:33.939Z</time>
      </trkpt>
      <trkpt lat="47.29203" lon="-1.70388">
        <ele>62.478265</ele>
        <time>2025-09-02T16:10:45.401Z</time>
      </trkpt>
      <trkpt lat="47.29234" lon="-1.70507">
        <ele>61.756926</ele>
        <time>2025-09-02T16:11:03.661Z</time>
      </trkpt>
      <trkpt lat="47.2925" lon="-1.70533">
        <ele>61.616067</ele>
        <time>2025-09-02T16:11:08.869Z</time>
      </trkpt>
      <trkpt lat="47.29285" lon="-1.70581">
        <ele>61.327946</ele>
        <time>2025-09-02T16:11:19.992Z</time>
      </trkpt>
      <trkpt lat="47.29294" lon="-1.70571">
        <ele>61.265812</ele>
        <time>2025-09-02T16:11:22.449Z</time>
      </trkpt>
      <trkpt lat="47.29302" lon="-1.70561">
        <ele>61.199312</ele>
        <time>2025-09-02T16:11:25.011Z</time>
      </trkpt>
      <trkpt lat="47.29378" lon="-1.70472">
        <ele>59.80648</ele>
        <time>2025-09-02T16:11:45.187Z</time>
      </trkpt>
      <trkpt lat="47.29424" lon="-1.70444">
        <ele>58.973748</ele>
        <time>2025-09-02T16:11:54.584Z</time>
      </trkpt>
      <trkpt lat="47.29485" lon="-1.70449">
        <ele>58.056762</ele>
        <time>2025-09-02T16:12:05.817Z</time>
      </trkpt>
      <trkpt lat="47.29502" lon="-1.70444">
        <ele>58.0271</ele>
        <time>2025-09-02T16:12:09.129Z</time>
      </trkpt>
      <trkpt lat="47.29518" lon="-1.70427">
        <ele>57.993779</ele>
        <time>2025-09-02T16:12:12.928Z</time>
      </trkpt>
      <trkpt lat="47.29526" lon="-1.70442">
        <ele>57.971956</ele>
        <time>2025-09-02T16:12:15.378Z</time>
      </trkpt>
      <trkpt lat="47.29539" lon="-1.70475">
        <ele>57.927871</ele>
        <time>2025-09-02T16:12:20.525Z</time>
      </trkpt>
      <trkpt lat="47.29586" lon="-1.70627">
        <ele>58.102917</ele>
        <time>2025-09-02T16:12:51.605Z</time>
      </trkpt>
      <trkpt lat="47.29602" lon="-1.70579">
        <ele>58.871236</ele>
        <time>2025-09-02T16:13:09.421Z</time>
      </trkpt>
      <trkpt lat="47.29619" lon="-1.70558">
        <ele>59.361309</ele>
        <time>2025-09-02T16:13:20.675Z</time>
      </trkpt>
      <trkpt lat="47.29624" lon="-1.70538">
        <ele>59.678858</ele>
        <time>2025-09-02T16:13:27.989Z</time>
      </trkpt>
      <trkpt lat="47.29623" lon="-1.70521">
        <ele>59.923056</ele>
        <time>2025-09-02T16:13:31.944Z</time>
      </trkpt>
      <trkpt lat="47.29623" lon="-1.70489">
        <ele>60.398342</ele>
        <time>2025-09-02T16:13:39.426Z</time>
      </trkpt>
      <trkpt lat="47.2962" lon="-1.70445">
        <ele>61.039944</ele>
        <time>2025-09-02T16:13:49.248Z</time>
      </trkpt>
      <trkpt lat="47.29616" lon="-1.70429">
        <ele>61.28323</ele>
        <time>2025-09-02T16:13:52.881Z</time>
      </trkpt>
      <trkpt lat="47.29608" lon="-1.70325">
        <ele>63.079182</ele>
        <time>2025-09-02T16:14:16.541Z</time>
      </trkpt>
      <trkpt lat="47.29609" lon="-1.70297">
        <ele>63.592573</ele>
        <time>2025-09-02T16:14:23.158Z</time>
      </trkpt>
      <trkpt lat="47.29627" lon="-1.70261">
        <ele>64.38306</ele>
        <time>2025-09-02T16:14:33.461Z</time>
      </trkpt>
      <trkpt lat="47.29627" lon="-1.70238">
        <ele>64.791496</ele>
        <time>2025-09-02T16:14:39.091Z</time>
      </trkpt>
      <trkpt lat="47.29625" lon="-1.70233">
        <ele>64.904852</ele>
        <time>2025-09-02T16:14:40.590Z</time>
      </trkpt>
      <trkpt lat="47.29649" lon="-1.70211">
        <ele>65.64328</ele>
        <time>2025-09-02T16:14:55.024Z</time>
      </trkpt>
      <trkpt lat="47.2968" lon="-1.70189">
        <ele>66.535521</ele>
        <time>2025-09-02T16:15:13.293Z</time>
      </trkpt>
      <trkpt lat="47.29697" lon="-1.70152">
        <ele>67.305054</ele>
        <time>2025-09-02T16:15:30.190Z</time>
      </trkpt>
      <trkpt lat="47.29711" lon="-1.7014">
        <ele>67.71513</ele>
        <time>2025-09-02T16:15:39.305Z</time>
      </trkpt>
      <trkpt lat="47.29734" lon="-1.7014">
        <ele>68.290081</ele>
        <time>2025-09-02T16:15:51.976Z</time>
      </trkpt>
      <trkpt lat="47.29767" lon="-1.70147">
        <ele>69.106064</ele>
        <time>2025-09-02T16:16:08.619Z</time>
      </trkpt>
      <trkpt lat="47.29824" lon="-1.70174">
        <ele>70.618448</ele>
        <time>2025-09-02T16:16:36.436Z</time>
      </trkpt>
      <trkpt lat="47.29839" lon="-1.70199">
        <ele>70.962087</ele>
        <time>2025-09-02T16:16:46.049Z</time>
      </trkpt>
      <trkpt lat="47.29831" lon="-1.70254">
        <ele>71.114952</ele>
        <time>2025-09-02T16:17:01.392Z</time>
      </trkpt>
      <trkpt lat="47.29835" lon="-1.70281">
        <ele>71.190304</ele>
        <time>2025-09-02T16:17:08.546Z</time>
      </trkpt>
      <trkpt lat="47.29845" lon="-1.7032">
        <ele>71.302785</ele>
        <time>2025-09-02T16:17:18.945Z</time>
      </trkpt>
      <trkpt lat="47.29868" lon="-1.7039">
        <ele>71.518299</ele>
        <time>2025-09-02T16:17:38.540Z</time>
      </trkpt>
      <trkpt lat="47.29894" lon="-1.70442">
        <ele>71.648198</ele>
        <time>2025-09-02T16:17:55.093Z</time>
      </trkpt>
      <trkpt lat="47.29918" lon="-1.7047">
        <ele>71.658314</ele>
        <time>2025-09-02T16:18:06.987Z</time>
      </trkpt>
      <trkpt lat="47.29943" lon="-1.70491">
        <ele>71.668027</ele>
        <time>2025-09-02T16:18:18.535Z</time>
      </trkpt>
      <trkpt lat="47.29954" lon="-1.70481">
        <ele>71.672327</ele>
        <time>2025-09-02T16:18:23.620Z</time>
      </trkpt>
      <trkpt lat="47.29976" lon="-1.70474">
        <ele>71.679808</ele>
        <time>2025-09-02T16:18:32.314Z</time>
      </trkpt>
      <trkpt lat="47.30039" lon="-1.70461">
        <ele>71.701121</ele>
        <time>2025-09-02T16:18:55.911Z</time>
      </trkpt>
      <trkpt lat="47.30052" lon="-1.70453">
        <ele>71.595905</ele>
        <time>2025-09-02T16:18:58.970Z</time>
      </trkpt>
      <trkpt lat="47.30097" lon="-1.70388">
        <ele>70.306949</ele>
        <time>2025-09-02T16:19:11.856Z</time>
      </trkpt>
      <trkpt lat="47.30049" lon="-1.70315">
        <ele>68.893726</ele>
        <time>2025-09-02T16:19:24.659Z</time>
      </trkpt>
      <trkpt lat="47.30045" lon="-1.70304">
        <ele>68.702677</ele>
        <time>2025-09-02T16:19:26.347Z</time>
      </trkpt>
      <trkpt lat="47.30042" lon="-1.70278">
        <ele>68.335467</ele>
        <time>2025-09-02T16:19:29.538Z</time>
      </trkpt>
      <trkpt lat="47.30048" lon="-1.70253">
        <ele>67.949301</ele>
        <time>2025-09-02T16:19:32.717Z</time>
      </trkpt>
      <trkpt lat="47.30141" lon="-1.70062">
        <ele>63.152219</ele>
        <time>2025-09-02T16:20:00.874Z</time>
      </trkpt>
      <trkpt lat="47.30155" lon="-1.70037">
        <ele>62.528026</ele>
        <time>2025-09-02T16:20:05.228Z</time>
      </trkpt>
      <trkpt lat="47.30174" lon="-1.70013">
        <ele>62.226934</ele>
        <time>2025-09-02T16:20:10.148Z</time>
      </trkpt>
      <trkpt lat="47.30263" lon="-1.69908">
        <ele>60.842493</ele>
        <time>2025-09-02T16:20:34.541Z</time>
      </trkpt>
      <trkpt lat="47.30312" lon="-1.69845">
        <ele>60.179262</ele>
        <time>2025-09-02T16:20:47.780Z</time>
      </trkpt>
      <trkpt lat="47.30328" lon="-1.69806">
        <ele>59.948336</ele>
        <time>2025-09-02T16:20:53.661Z</time>
      </trkpt>
      <trkpt lat="47.30346" lon="-1.69742">
        <ele>59.594797</ele>
        <time>2025-09-02T16:21:02.634Z</time>
      </trkpt>
      <trkpt lat="47.30354" lon="-1.69707">
        <ele>59.405912</ele>
        <time>2025-09-02T16:21:07.844Z</time>
      </trkpt>
      <trkpt lat="47.3036" lon="-1.69647">
        <ele>59.094402</ele>
        <time>2025-09-02T16:21:17.879Z</time>
      </trkpt>
      <trkpt lat="47.3036" lon="-1.69623">
        <ele>59.242895</ele>
        <time>2025-09-02T16:21:22.578Z</time>
      </trkpt>
      <trkpt lat="47.30354" lon="-1.69594">
        <ele>59.824743</ele>
        <time>2025-09-02T16:21:29.384Z</time>
      </trkpt>
      <trkpt lat="47.30323" lon="-1.69528">
        <ele>61.356802</ele>
        <time>2025-09-02T16:21:51.021Z</time>
      </trkpt>
      <trkpt lat="47.30292" lon="-1.69457">
        <ele>62.948604</ele>
        <time>2025-09-02T16:22:16.556Z</time>
      </trkpt>
      <trkpt lat="47.30277" lon="-1.69406">
        <ele>63.991419</ele>
        <time>2025-09-02T16:22:32.147Z</time>
      </trkpt>
      <trkpt lat="47.30216" lon="-1.69195">
        <ele>65.910556</ele>
        <time>2025-09-02T16:23:17.693Z</time>
      </trkpt>
      <trkpt lat="47.30199" lon="-1.69132">
        <ele>66.115376</ele>
        <time>2025-09-02T16:23:28.156Z</time>
      </trkpt>
      <trkpt lat="47.30193" lon="-1.69105">
        <ele>66.006254</ele>
        <time>2025-09-02T16:23:32.262Z</time>
      </trkpt>
      <trkpt lat="47.30193" lon="-1.69035">
        <ele>65.731873</ele>
        <time>2025-09-02T16:23:42.303Z</time>
      </trkpt>
      <trkpt lat="47.30188" lon="-1.69012">
        <ele>65.633282</ele>
        <time>2025-09-02T16:23:45.818Z</time>
      </trkpt>
      <trkpt lat="47.30148" lon="-1.68897">
        <ele>65.266082</ele>
        <time>2025-09-02T16:24:04.131Z</time>
      </trkpt>
      <trkpt lat="47.30137" lon="-1.68873">
        <ele>65.421137</ele>
        <time>2025-09-02T16:24:08.303Z</time>
      </trkpt>
      <trkpt lat="47.30105" lon="-1.6883">
        <ele>65.76046</ele>
        <time>2025-09-02T16:24:18.294Z</time>
      </trkpt>
      <trkpt lat="47.30079" lon="-1.68795">
        <ele>66.035224</ele>
        <time>2025-09-02T16:24:27.727Z</time>
      </trkpt>
      <trkpt lat="47.3007" lon="-1.68774">
        <ele>66.168304</ele>
        <time>2025-09-02T16:24:32.722Z</time>
      </trkpt>
      <trkpt lat="47.30091" lon="-1.68746">
        <ele>66.385216</ele>
        <time>2025-09-02T16:24:41.608Z</time>
      </trkpt>
      <trkpt lat="47.30109" lon="-1.68729">
        <ele>66.556099</ele>
        <time>2025-09-02T16:24:48.962Z</time>
      </trkpt>
      <trkpt lat="47.30137" lon="-1.68721">
        <ele>67.167789</ele>
        <time>2025-09-02T16:24:59.276Z</time>
      </trkpt>
      <trkpt lat="47.30228" lon="-1.68669">
        <ele>69.514203</ele>
        <time>2025-09-02T16:25:36.421Z</time>
      </trkpt>
      <trkpt lat="47.30294" lon="-1.68643">
        <ele>71.000328</ele>
        <time>2025-09-02T16:25:59.115Z</time>
      </trkpt>
      <trkpt lat="47.30349" lon="-1.68632">
        <ele>71.471053</ele>
        <time>2025-09-02T16:26:15.276Z</time>
      </trkpt>
      <trkpt lat="47.3049" lon="-1.68627">
        <ele>72.589053</ele>
        <time>2025-09-02T16:26:50.802Z</time>
      </trkpt>
      <trkpt lat="47.30553" lon="-1.68615">
        <ele>72.954715</ele>
        <time>2025-09-02T16:27:07.175Z</time>
      </trkpt>
      <trkpt lat="47.30622" lon="-1.68601">
        <ele>73.35999</ele>
        <time>2025-09-02T16:27:25.863Z</time>
      </trkpt>
      <trkpt lat="47.3064" lon="-1.6859">
        <ele>73.472548</ele>
        <time>2025-09-02T16:27:31.037Z</time>
      </trkpt>
      <trkpt lat="47.3066" lon="-1.68572">
        <ele>73.523934</ele>
        <time>2025-09-02T16:27:37.072Z</time>
      </trkpt>
      <trkpt lat="47.30661" lon="-1.68549">
        <ele>73.556814</ele>
        <time>2025-09-02T16:27:41.166Z</time>
      </trkpt>
      <trkpt lat="47.30676" lon="-1.68502">
        <ele>73.631129</ele>
        <time>2025-09-02T16:27:50.103Z</time>
      </trkpt>
      <trkpt lat="47.30705" lon="-1.68414">
        <ele>73.770211</ele>
        <time>2025-09-02T16:28:05.780Z</time>
      </trkpt>
      <trkpt lat="47.30752" lon="-1.68215">
        <ele>73.610859</ele>
        <time>2025-09-02T16:28:37.806Z</time>
      </trkpt>
      <trkpt lat="47.30639" lon="-1.68115">
        <ele>73.305599</ele>
        <time>2025-09-02T16:29:25.689Z</time>
      </trkpt>
      <trkpt lat="47.30622" lon="-1.68049">
        <ele>73.200818</ele>
        <time>2025-09-02T16:29:43.175Z</time>
      </trkpt>
      <trkpt lat="47.30538" lon="-1.67735">
        <ele>72.469508</ele>
        <time>2025-09-02T16:31:06.650Z</time>
      </trkpt>
      <trkpt lat="47.30535" lon="-1.67717">
        <ele>72.423961</ele>
        <time>2025-09-02T16:31:11.014Z</time>
      </trkpt>
      <trkpt lat="47.3055" lon="-1.67655">
        <ele>71.979087</ele>
        <time>2025-09-02T16:31:26.629Z</time>
      </trkpt>
      <trkpt lat="47.30554" lon="-1.67643">
        <ele>71.852845</ele>
        <time>2025-09-02T16:31:29.814Z</time>
      </trkpt>
      <trkpt lat="47.30561" lon="-1.67368">
        <ele>69.205178</ele>
        <time>2025-09-02T16:32:31.828Z</time>
      </trkpt>
      <trkpt lat="47.30565" lon="-1.67344">
        <ele>68.939365</ele>
        <time>2025-09-02T16:32:37.371Z</time>
      </trkpt>
      <trkpt lat="47.3058" lon="-1.67308">
        <ele>68.493193</ele>
        <time>2025-09-02T16:32:46.732Z</time>
      </trkpt>
      <trkpt lat="47.30657" lon="-1.67075">
        <ele>66.250874</ele>
        <time>2025-09-02T16:33:45.705Z</time>
      </trkpt>
      <trkpt lat="47.30673" lon="-1.67035">
        <ele>65.956167</ele>
        <time>2025-09-02T16:33:56.495Z</time>
      </trkpt>
      <trkpt lat="47.30723" lon="-1.67048">
        <ele>65.479091</ele>
        <time>2025-09-02T16:34:14.473Z</time>
      </trkpt>
      <trkpt lat="47.3078" lon="-1.67055">
        <ele>65.683981</ele>
        <time>2025-09-02T16:34:35.895Z</time>
      </trkpt>
      <trkpt lat="47.30803" lon="-1.67063">
        <ele>65.855713</ele>
        <time>2025-09-02T16:34:45.121Z</time>
      </trkpt>
      <trkpt lat="47.30896" lon="-1.67125">
        <ele>66.607379</ele>
        <time>2025-09-02T16:35:27.934Z</time>
      </trkpt>
      <trkpt lat="47.31008" lon="-1.67194">
        <ele>68.599676</ele>
        <time>2025-09-02T16:36:23.508Z</time>
      </trkpt>
      <trkpt lat="47.31063" lon="-1.67264">
        <ele>69.812668</ele>
        <time>2025-09-02T16:36:57.552Z</time>
      </trkpt>
      <trkpt lat="47.31147" lon="-1.67343">
        <ele>70.997402</ele>
        <time>2025-09-02T16:37:43.562Z</time>
      </trkpt>
      <trkpt lat="47.31186" lon="-1.67362">
        <ele>71.491521</ele>
        <time>2025-09-02T16:38:00.968Z</time>
      </trkpt>
      <trkpt lat="47.31213" lon="-1.67368">
        <ele>71.813211</ele>
        <time>2025-09-02T16:38:11.689Z</time>
      </trkpt>
      <trkpt lat="47.3132" lon="-1.67359">
        <ele>70.887221</ele>
        <time>2025-09-02T16:38:49.315Z</time>
      </trkpt>
      <trkpt lat="47.31346" lon="-1.6736">
        <ele>70.622331</ele>
        <time>2025-09-02T16:38:57.905Z</time>
      </trkpt>
      <trkpt lat="47.31364" lon="-1.67363">
        <ele>70.43382</ele>
        <time>2025-09-02T16:39:04.031Z</time>
      </trkpt>
      <trkpt lat="47.31404" lon="-1.6738">
        <ele>69.955593</ele>
        <time>2025-09-02T16:39:17.764Z</time>
      </trkpt>
      <trkpt lat="47.31425" lon="-1.67372">
        <ele>69.551346</ele>
        <time>2025-09-02T16:39:24.746Z</time>
      </trkpt>
      <trkpt lat="47.31459" lon="-1.67347">
        <ele>68.818103</ele>
        <time>2025-09-02T16:39:37.325Z</time>
      </trkpt>
      <trkpt lat="47.31502" lon="-1.67322">
        <ele>67.93274</ele>
        <time>2025-09-02T16:39:52.553Z</time>
      </trkpt>
      <trkpt lat="47.31545" lon="-1.67273">
        <ele>66.894583</ele>
        <time>2025-09-02T16:40:03.110Z</time>
      </trkpt>
      <trkpt lat="47.31574" lon="-1.67248">
        <ele>66.019959</ele>
        <time>2025-09-02T16:40:09.397Z</time>
      </trkpt>
      <trkpt lat="47.31642" lon="-1.67209">
        <ele>63.731091</ele>
        <time>2025-09-02T16:40:32.243Z</time>
      </trkpt>
      <trkpt lat="47.31668" lon="-1.67161">
        <ele>62.427992</ele>
        <time>2025-09-02T16:40:44.965Z</time>
      </trkpt>
      <trkpt lat="47.31676" lon="-1.67125">
        <ele>61.625294</ele>
        <time>2025-09-02T16:40:52.710Z</time>
      </trkpt>
      <trkpt lat="47.3168" lon="-1.67017">
        <ele>58.670106</ele>
        <time>2025-09-02T16:41:14.387Z</time>
      </trkpt>
      <trkpt lat="47.31689" lon="-1.66998">
        <ele>57.983916</ele>
        <time>2025-09-02T16:41:19.011Z</time>
      </trkpt>
      <trkpt lat="47.31703" lon="-1.66984">
        <ele>57.26494</ele>
        <time>2025-09-02T16:41:23.839Z</time>
      </trkpt>
      <trkpt lat="47.31734" lon="-1.66962">
        <ele>55.760126</ele>
        <time>2025-09-02T16:41:33.991Z</time>
      </trkpt>
      <trkpt lat="47.31757" lon="-1.66953">
        <ele>54.705758</ele>
        <time>2025-09-02T16:41:41.112Z</time>
      </trkpt>
      <trkpt lat="47.31771" lon="-1.66944">
        <ele>54.063998</ele>
        <time>2025-09-02T16:41:45.444Z</time>
      </trkpt>
      <trkpt lat="47.3178" lon="-1.66932">
        <ele>53.538159</ele>
        <time>2025-09-02T16:41:49.004Z</time>
      </trkpt>
      <trkpt lat="47.3179" lon="-1.66917">
        <ele>52.911149</ele>
        <time>2025-09-02T16:41:53.143Z</time>
      </trkpt>
      <trkpt lat="47.31838" lon="-1.66814">
        <ele>49.032455</ele>
        <time>2025-09-02T16:42:18.011Z</time>
      </trkpt>
      <trkpt lat="47.31909" lon="-1.6672">
        <ele>44.670724</ele>
        <time>2025-09-02T16:42:45.724Z</time>
      </trkpt>
      <trkpt lat="47.31951" lon="-1.66625">
        <ele>41.142606</ele>
        <time>2025-09-02T16:43:08.010Z</time>
      </trkpt>
      <trkpt lat="47.3197" lon="-1.66593">
        <ele>39.809184</ele>
        <time>2025-09-02T16:43:16.537Z</time>
      </trkpt>
      <trkpt lat="47.31993" lon="-1.66562">
        <ele>38.397123</ele>
        <time>2025-09-02T16:43:25.600Z</time>
      </trkpt>
      <trkpt lat="47.32019" lon="-1.66548">
        <ele>37.141169</ele>
        <time>2025-09-02T16:43:33.715Z</time>
      </trkpt>
      <trkpt lat="47.32024" lon="-1.6653">
        <ele>36.593784</ele>
        <time>2025-09-02T16:43:37.596Z</time>
      </trkpt>
      <trkpt lat="47.32042" lon="-1.66443">
        <ele>34.624693</ele>
        <time>2025-09-02T16:43:55.922Z</time>
      </trkpt>
      <trkpt lat="47.32077" lon="-1.66329">
        <ele>31.909514</ele>
        <time>2025-09-02T16:44:21.766Z</time>
      </trkpt>
      <trkpt lat="47.32106" lon="-1.66217">
        <ele>31.970646</ele>
        <time>2025-09-02T16:44:48.989Z</time>
      </trkpt>
      <trkpt lat="47.32114" lon="-1.66194">
        <ele>32.302639</ele>
        <time>2025-09-02T16:44:56.452Z</time>
      </trkpt>
      <trkpt lat="47.32136" lon="-1.66157">
        <ele>32.959417</ele>
        <time>2025-09-02T16:45:13.421Z</time>
      </trkpt>
      <trkpt lat="47.32152" lon="-1.66141">
        <ele>33.343053</ele>
        <time>2025-09-02T16:45:23.898Z</time>
      </trkpt>
      <trkpt lat="47.32132" lon="-1.66063">
        <ele>34.455301</ele>
        <time>2025-09-02T16:45:49.158Z</time>
      </trkpt>
      <trkpt lat="47.32125" lon="-1.66049">
        <ele>35.122236</ele>
        <time>2025-09-02T16:45:54.638Z</time>
      </trkpt>
      <trkpt lat="47.32116" lon="-1.66042">
        <ele>35.782443</ele>
        <time>2025-09-02T16:45:59.809Z</time>
      </trkpt>
      <trkpt lat="47.321" lon="-1.66041">
        <ele>36.791059</ele>
        <time>2025-09-02T16:46:08.032Z</time>
      </trkpt>
      <trkpt lat="47.32053" lon="-1.66053">
        <ele>39.845753</ele>
        <time>2025-09-02T16:46:35.240Z</time>
      </trkpt>
      <trkpt lat="47.32034" lon="-1.6605">
        <ele>41.092261</ele>
        <time>2025-09-02T16:46:46.277Z</time>
      </trkpt>
      <trkpt lat="47.32018" lon="-1.6604">
        <ele>42.164873</ele>
        <time>2025-09-02T16:46:55.643Z</time>
      </trkpt>
      <trkpt lat="47.32004" lon="-1.66021">
        <ele>43.401814</ele>
        <time>2025-09-02T16:47:06.515Z</time>
      </trkpt>
      <trkpt lat="47.31996" lon="-1.65992">
        <ele>44.749071</ele>
        <time>2025-09-02T16:47:18.892Z</time>
      </trkpt>
      <trkpt lat="47.32005" lon="-1.65815">
        <ele>51.896521</ele>
        <time>2025-09-02T16:48:31.804Z</time>
      </trkpt>
      <trkpt lat="47.32" lon="-1.65803">
        <ele>52.482016</ele>
        <time>2025-09-02T16:48:37.347Z</time>
      </trkpt>
      <trkpt lat="47.31922" lon="-1.65687">
        <ele>56.553181</ele>
        <time>2025-09-02T16:49:24.440Z</time>
      </trkpt>
      <trkpt lat="47.31881" lon="-1.65627">
        <ele>56.593478</ele>
        <time>2025-09-02T16:49:39.580Z</time>
      </trkpt>
      <trkpt lat="47.31835" lon="-1.65547">
        <ele>56.642038</ele>
        <time>2025-09-02T16:49:53.492Z</time>
      </trkpt>
      <trkpt lat="47.31735" lon="-1.6535">
        <ele>50.237158</ele>
        <time>2025-09-02T16:50:21.932Z</time>
      </trkpt>
      <trkpt lat="47.31698" lon="-1.65261">
        <ele>49.78658</ele>
        <time>2025-09-02T16:50:34.025Z</time>
      </trkpt>
      <trkpt lat="47.31665" lon="-1.65207">
        <ele>50.217896</ele>
        <time>2025-09-02T16:50:44.246Z</time>
      </trkpt>
      <trkpt lat="47.31609" lon="-1.65119">
        <ele>50.965442</ele>
        <time>2025-09-02T16:51:20.759Z</time>
      </trkpt>
      <trkpt lat="47.31589" lon="-1.65109">
        <ele>52.119226</ele>
        <time>2025-09-02T16:51:33.239Z</time>
      </trkpt>
      <trkpt lat="47.31551" lon="-1.65117">
        <ele>54.297517</ele>
        <time>2025-09-02T16:51:58.390Z</time>
      </trkpt>
      <trkpt lat="47.31537" lon="-1.65113">
        <ele>55.091586</ele>
        <time>2025-09-02T16:52:07.416Z</time>
      </trkpt>
      <trkpt lat="47.31529" lon="-1.65106">
        <ele>55.639659</ele>
        <time>2025-09-02T16:52:13.585Z</time>
      </trkpt>
      <trkpt lat="47.31523" lon="-1.6509">
        <ele>56.35431</ele>
        <time>2025-09-02T16:52:21.541Z</time>
      </trkpt>
      <trkpt lat="47.3152" lon="-1.65066">
        <ele>57.255603</ele>
        <time>2025-09-02T16:52:31.475Z</time>
      </trkpt>
      <trkpt lat="47.31528" lon="-1.64976">
        <ele>60.735563</ele>
        <time>2025-09-02T16:53:00.769Z</time>
      </trkpt>
      <trkpt lat="47.31524" lon="-1.64947">
        <ele>60.876803</ele>
        <time>2025-09-02T16:53:06.560Z</time>
      </trkpt>
      <trkpt lat="47.31517" lon="-1.64912">
        <ele>60.561103</ele>
        <time>2025-09-02T16:53:12.115Z</time>
      </trkpt>
      <trkpt lat="47.31535" lon="-1.64902">
        <ele>60.313055</ele>
        <time>2025-09-02T16:53:15.841Z</time>
      </trkpt>
      <trkpt lat="47.31601" lon="-1.6485">
        <ele>59.339484</ele>
        <time>2025-09-02T16:53:29.407Z</time>
      </trkpt>
      <trkpt lat="47.31632" lon="-1.6482">
        <ele>58.863241</ele>
        <time>2025-09-02T16:53:35.538Z</time>
      </trkpt>
      <trkpt lat="47.31688" lon="-1.6476">
        <ele>57.347319</ele>
        <time>2025-09-02T16:53:47.701Z</time>
      </trkpt>
      <trkpt lat="47.31709" lon="-1.64738">
        <ele>56.772772</ele>
        <time>2025-09-02T16:53:52.324Z</time>
      </trkpt>
      <trkpt lat="47.31749" lon="-1.64706">
        <ele>55.712802</ele>
        <time>2025-09-02T16:54:00.860Z</time>
      </trkpt>
      <trkpt lat="47.31793" lon="-1.64681">
        <ele>54.630512</ele>
        <time>2025-09-02T16:54:09.362Z</time>
      </trkpt>
      <trkpt lat="47.31859" lon="-1.64659">
        <ele>52.54907</ele>
        <time>2025-09-02T16:54:21.646Z</time>
      </trkpt>
      <trkpt lat="47.31913" lon="-1.6464">
        <ele>50.832952</ele>
        <time>2025-09-02T16:54:31.387Z</time>
      </trkpt>
      <trkpt lat="47.32115" lon="-1.64564">
        <ele>41.877094</ele>
        <time>2025-09-02T16:55:05.332Z</time>
      </trkpt>
      <trkpt lat="47.32148" lon="-1.64548">
        <ele>40.156604</ele>
        <time>2025-09-02T16:55:10.597Z</time>
      </trkpt>
      <trkpt lat="47.32174" lon="-1.64524">
        <ele>38.235147</ele>
        <time>2025-09-02T16:55:15.297Z</time>
      </trkpt>
      <trkpt lat="47.32187" lon="-1.64503">
        <ele>37.05131</ele>
        <time>2025-09-02T16:55:18.189Z</time>
      </trkpt>
      <trkpt lat="47.32216" lon="-1.64444">
        <ele>33.996961</ele>
        <time>2025-09-02T16:55:25.639Z</time>
      </trkpt>
      <trkpt lat="47.32233" lon="-1.64404">
        <ele>32.015507</ele>
        <time>2025-09-02T16:55:30.453Z</time>
      </trkpt>
      <trkpt lat="47.32261" lon="-1.64305">
        <ele>28.213648</ele>
        <time>2025-09-02T16:55:41.803Z</time>
      </trkpt>
      <trkpt lat="47.32274" lon="-1.64312">
        <ele>27.694081</ele>
        <time>2025-09-02T16:55:44.024Z</time>
      </trkpt>
      <trkpt lat="47.32316" lon="-1.64335">
        <ele>26.029436</ele>
        <time>2025-09-02T16:55:51.235Z</time>
      </trkpt>
      <trkpt lat="47.3233" lon="-1.64341">
        <ele>25.517072</ele>
        <time>2025-09-02T16:55:53.489Z</time>
      </trkpt>
      <trkpt lat="47.32389" lon="-1.64353">
        <ele>23.286323</ele>
        <time>2025-09-02T16:56:03.841Z</time>
      </trkpt>
      <trkpt lat="47.32403" lon="-1.64355">
        <ele>22.775302</ele>
        <time>2025-09-02T16:56:06.455Z</time>
      </trkpt>
      <trkpt lat="47.32452" lon="-1.64366">
        <ele>23.088683</ele>
        <time>2025-09-02T16:56:17.305Z</time>
      </trkpt>
      <trkpt lat="47.3251" lon="-1.64399">
        <ele>23.725581</ele>
        <time>2025-09-02T16:56:35.865Z</time>
      </trkpt>
      <trkpt lat="47.32528" lon="-1.64401">
        <ele>23.908696</ele>
        <time>2025-09-02T16:56:41.661Z</time>
      </trkpt>
      <trkpt lat="47.32558" lon="-1.64397">
        <ele>24.215447</ele>
        <time>2025-09-02T16:56:51.478Z</time>
      </trkpt>
      <trkpt lat="47.32562" lon="-1.64396">
        <ele>24.252477</ele>
        <time>2025-09-02T16:56:52.706Z</time>
      </trkpt>
      <trkpt lat="47.3259" lon="-1.64254">
        <ele>26.884313</ele>
        <time>2025-09-02T16:57:40.944Z</time>
      </trkpt>
      <trkpt lat="47.32581" lon="-1.64227">
        <ele>27.507099</ele>
        <time>2025-09-02T16:57:47.971Z</time>
      </trkpt>
      <trkpt lat="47.32578" lon="-1.64206">
        <ele>27.952574</ele>
        <time>2025-09-02T16:57:53.205Z</time>
      </trkpt>
      <trkpt lat="47.32582" lon="-1.64175">
        <ele>28.591586</ele>
        <time>2025-09-02T16:58:01.295Z</time>
      </trkpt>
      <trkpt lat="47.32584" lon="-1.64133">
        <ele>29.461432</ele>
        <time>2025-09-02T16:58:13.619Z</time>
      </trkpt>
      <trkpt lat="47.32588" lon="-1.64063">
        <ele>31.737769</ele>
        <time>2025-09-02T16:58:35.982Z</time>
      </trkpt>
      <trkpt lat="47.32592" lon="-1.64036">
        <ele>32.775903</ele>
        <time>2025-09-02T16:58:45.182Z</time>
      </trkpt>
      <trkpt lat="47.32601" lon="-1.64004">
        <ele>34.097189</ele>
        <time>2025-09-02T16:58:56.847Z</time>
      </trkpt>
      <trkpt lat="47.32603" lon="-1.6397">
        <ele>35.3828</ele>
        <time>2025-09-02T16:59:08.408Z</time>
      </trkpt>
      <trkpt lat="47.32613" lon="-1.63886">
        <ele>38.588354</ele>
        <time>2025-09-02T16:59:38.910Z</time>
      </trkpt>
      <trkpt lat="47.32621" lon="-1.63856">
        <ele>39.808021</ele>
        <time>2025-09-02T16:59:51.009Z</time>
      </trkpt>
      <trkpt lat="47.32629" lon="-1.63843">
        <ele>40.388827</ele>
        <time>2025-09-02T16:59:59.046Z</time>
      </trkpt>
      <trkpt lat="47.32654" lon="-1.63815">
        <ele>41.947506</ele>
        <time>2025-09-02T17:00:20.482Z</time>
      </trkpt>
      <trkpt lat="47.32665" lon="-1.63796">
        <ele>42.775322</ele>
        <time>2025-09-02T17:00:31.820Z</time>
      </trkpt>
      <trkpt lat="47.32676" lon="-1.6373">
        <ele>45.040783</ele>
        <time>2025-09-02T17:01:02.287Z</time>
      </trkpt>
      <trkpt lat="47.32678" lon="-1.63697">
        <ele>46.153051</ele>
        <time>2025-09-02T17:01:16.639Z</time>
      </trkpt>
      <trkpt lat="47.32677" lon="-1.63628">
        <ele>48.445949</ele>
        <time>2025-09-02T17:01:43.423Z</time>
      </trkpt>
      <trkpt lat="47.3267" lon="-1.63568">
        <ele>48.513211</ele>
        <time>2025-09-02T17:02:02.813Z</time>
      </trkpt>
      <trkpt lat="47.32651" lon="-1.63474">
        <ele>48.063262</ele>
        <time>2025-09-02T17:02:26.433Z</time>
      </trkpt>
      <trkpt lat="47.32635" lon="-1.63418">
        <ele>47.782969</ele>
        <time>2025-09-02T17:02:39.674Z</time>
      </trkpt>
      <trkpt lat="47.32635" lon="-1.63407">
        <ele>47.735023</ele>
        <time>2025-09-02T17:02:41.869Z</time>
      </trkpt>
      <trkpt lat="47.32637" lon="-1.63398">
        <ele>47.692121</ele>
        <time>2025-09-02T17:02:43.820Z</time>
      </trkpt>
      <trkpt lat="47.32652" lon="-1.63381">
        <ele>47.561808</ele>
        <time>2025-09-02T17:02:49.746Z</time>
      </trkpt>
      <trkpt lat="47.32704" lon="-1.63332">
        <ele>45.583491</ele>
        <time>2025-09-02T17:03:08.497Z</time>
      </trkpt>
      <trkpt lat="47.32752" lon="-1.63293">
        <ele>43.727896</ele>
        <time>2025-09-02T17:03:25.251Z</time>
      </trkpt>
      <trkpt lat="47.32794" lon="-1.63253">
        <ele>42.029854</ele>
        <time>2025-09-02T17:03:40.413Z</time>
      </trkpt>
      <trkpt lat="47.32812" lon="-1.63243">
        <ele>41.396258</ele>
        <time>2025-09-02T17:03:46.208Z</time>
      </trkpt>
      <trkpt lat="47.32849" lon="-1.63233">
        <ele>40.678199</ele>
        <time>2025-09-02T17:03:57.617Z</time>
      </trkpt>
      <trkpt lat="47.32864" lon="-1.63226">
        <ele>40.390758</ele>
        <time>2025-09-02T17:04:02.276Z</time>
      </trkpt>
      <trkpt lat="47.32878" lon="-1.63213">
        <ele>40.065834</ele>
        <time>2025-09-02T17:04:07.597Z</time>
      </trkpt>
      <trkpt lat="47.32911" lon="-1.6317">
        <ele>39.226864</ele>
        <time>2025-09-02T17:04:21.727Z</time>
      </trkpt>
      <trkpt lat="47.32912" lon="-1.63156">
        <ele>39.046158</ele>
        <time>2025-09-02T17:04:23.492Z</time>
      </trkpt>
      <trkpt lat="47.32927" lon="-1.63119">
        <ele>38.491296</ele>
        <time>2025-09-02T17:04:29.078Z</time>
      </trkpt>
      <trkpt lat="47.32979" lon="-1.63054">
        <ele>39.976392</ele>
        <time>2025-09-02T17:04:47.373Z</time>
      </trkpt>
      <trkpt lat="47.32986" lon="-1.63042">
        <ele>40.475341</ele>
        <time>2025-09-02T17:04:51.554Z</time>
      </trkpt>
      <trkpt lat="47.32994" lon="-1.63024">
        <ele>41.134637</ele>
        <time>2025-09-02T17:04:57.609Z</time>
      </trkpt>
      <trkpt lat="47.33003" lon="-1.62997">
        <ele>42.093598</ele>
        <time>2025-09-02T17:05:07.419Z</time>
      </trkpt>
      <trkpt lat="47.3301" lon="-1.62977">
        <ele>42.779982</ele>
        <time>2025-09-02T17:05:15.005Z</time>
      </trkpt>
      <trkpt lat="47.3303" lon="-1.62946">
        <ele>44.108219</ele>
        <time>2025-09-02T17:05:30.957Z</time>
      </trkpt>
      <trkpt lat="47.3307" lon="-1.62896">
        <ele>46.537785</ele>
        <time>2025-09-02T17:06:03.085Z</time>
      </trkpt>
      <trkpt lat="47.331" lon="-1.62862">
        <ele>48.345737</ele>
        <time>2025-09-02T17:06:25.868Z</time>
      </trkpt>
      <trkpt lat="47.331" lon="-1.62862">
        <ele>48.345737</ele>
        <time>2025-09-02T17:06:25.870Z</time>
      </trkpt>
      <trkpt lat="47.33105" lon="-1.62843">
        <ele>49.010147</ele>
        <time>2025-09-02T17:06:33.700Z</time>
      </trkpt>
      <trkpt lat="47.33106" lon="-1.62806">
        <ele>50.195593</ele>
        <time>2025-09-02T17:06:47.099Z</time>
      </trkpt>
      <trkpt lat="47.33107" lon="-1.62787">
        <ele>50.811949</ele>
        <time>2025-09-02T17:06:53.517Z</time>
      </trkpt>
      <trkpt lat="47.3311" lon="-1.62782">
        <ele>51.025391</ele>
        <time>2025-09-02T17:06:55.648Z</time>
      </trkpt>
      <trkpt lat="47.33119" lon="-1.62775">
        <ele>51.50144</ele>
        <time>2025-09-02T17:07:00.206Z</time>
      </trkpt>
      <trkpt lat="47.33119" lon="-1.62769">
        <ele>51.701934</ele>
        <time>2025-09-02T17:07:02.088Z</time>
      </trkpt>
      <trkpt lat="47.33122" lon="-1.62765">
        <ele>51.889734</ele>
        <time>2025-09-02T17:07:03.830Z</time>
      </trkpt>
      <trkpt lat="47.33123" lon="-1.62765">
        <ele>51.938947</ele>
        <time>2025-09-02T17:07:04.247Z</time>
      </trkpt>
      <trkpt lat="47.3312" lon="-1.62731">
        <ele>53.042851</ele>
        <time>2025-09-02T17:07:13.330Z</time>
      </trkpt>
      <trkpt lat="47.33118" lon="-1.6272">
        <ele>53.378852</ele>
        <time>2025-09-02T17:07:15.870Z</time>
      </trkpt>
      <trkpt lat="47.33114" lon="-1.62695">
        <ele>54.2278</ele>
        <time>2025-09-02T17:07:21.565Z</time>
      </trkpt>
      <trkpt lat="47.33114" lon="-1.62692">
        <ele>54.304241</ele>
        <time>2025-09-02T17:07:22.054Z</time>
      </trkpt>
      <trkpt lat="47.33113" lon="-1.62683">
        <ele>54.609005</ele>
        <time>2025-09-02T17:07:23.942Z</time>
      </trkpt>
      <trkpt lat="47.33102" lon="-1.62609">
        <ele>54.829813</ele>
        <time>2025-09-02T17:07:36.112Z</time>
      </trkpt>
      <trkpt lat="47.33071" lon="-1.62487">
        <ele>54.809373</ele>
        <time>2025-09-02T17:07:54.599Z</time>
      </trkpt>
      <trkpt lat="47.33067" lon="-1.6245">
        <ele>54.803549</ele>
        <time>2025-09-02T17:07:59.903Z</time>
      </trkpt>
      <trkpt lat="47.33061" lon="-1.62448">
        <ele>54.802268</ele>
        <time>2025-09-02T17:08:01.047Z</time>
      </trkpt>
      <trkpt lat="47.33058" lon="-1.62443">
        <ele>54.801215</ele>
        <time>2025-09-02T17:08:02.001Z</time>
      </trkpt>
      <trkpt lat="47.33058" lon="-1.6243">
        <ele>54.79912</ele>
        <time>2025-09-02T17:08:03.898Z</time>
      </trkpt>
      <trkpt lat="47.33061" lon="-1.62426">
        <ele>54.789872</ele>
        <time>2025-09-02T17:08:04.719Z</time>
      </trkpt>
      <trkpt lat="47.3307" lon="-1.62424">
        <ele>54.764854</ele>
        <time>2025-09-02T17:08:06.637Z</time>
      </trkpt>
      <trkpt lat="47.33072" lon="-1.62393">
        <ele>54.705641</ele>
        <time>2025-09-02T17:08:11.173Z</time>
      </trkpt>
      <trkpt lat="47.33083" lon="-1.62329">
        <ele>54.583831</ele>
        <time>2025-09-02T17:08:20.546Z</time>
      </trkpt>
      <trkpt lat="47.33084" lon="-1.62324">
        <ele>54.573278</ele>
        <time>2025-09-02T17:08:21.367Z</time>
      </trkpt>
      <trkpt lat="47.3311" lon="-1.62235">
        <ele>54.395356</ele>
        <time>2025-09-02T17:08:35.251Z</time>
      </trkpt>
      <trkpt lat="47.33114" lon="-1.62214">
        <ele>54.354855</ele>
        <time>2025-09-02T17:08:38.466Z</time>
      </trkpt>
      <trkpt lat="47.33116" lon="-1.6219">
        <ele>54.309858</ele>
        <time>2025-09-02T17:08:42.142Z</time>
      </trkpt>
      <trkpt lat="47.33113" lon="-1.62132">
        <ele>54.59515</ele>
        <time>2025-09-02T17:08:51.389Z</time>
      </trkpt>
      <trkpt lat="47.33113" lon="-1.62098">
        <ele>54.769696</ele>
        <time>2025-09-02T17:08:57.194Z</time>
      </trkpt>
      <trkpt lat="47.33116" lon="-1.62079">
        <ele>54.869033</ele>
        <time>2025-09-02T17:09:00.606Z</time>
      </trkpt>
      <trkpt lat="47.33127" lon="-1.62047">
        <ele>55.050872</ele>
        <time>2025-09-02T17:09:07.067Z</time>
      </trkpt>
      <trkpt lat="47.33073" lon="-1.61838">
        <ele>56.109371</ele>
        <time>2025-09-02T17:09:53.446Z</time>
      </trkpt>
      <trkpt lat="47.3307" lon="-1.6181">
        <ele>56.23115</ele>
        <time>2025-09-02T17:09:59.054Z</time>
      </trkpt>
      <trkpt lat="47.33063" lon="-1.61775">
        <ele>56.387889</ele>
        <time>2025-09-02T17:10:06.068Z</time>
      </trkpt>
      <trkpt lat="47.33065" lon="-1.6175">
        <ele>56.49851</ele>
        <time>2025-09-02T17:10:10.851Z</time>
      </trkpt>
      <trkpt lat="47.33047" lon="-1.61741">
        <ele>56.621634</ele>
        <time>2025-09-02T17:10:15.530Z</time>
      </trkpt>
      <trkpt lat="47.33026" lon="-1.61664">
        <ele>56.342912</ele>
        <time>2025-09-02T17:10:35.880Z</time>
      </trkpt>
      <trkpt lat="47.33014" lon="-1.61593">
        <ele>55.513094</ele>
        <time>2025-09-02T17:10:52.972Z</time>
      </trkpt>
      <trkpt lat="47.32969" lon="-1.61414">
        <ele>53.040462</ele>
        <time>2025-09-02T17:11:34.145Z</time>
      </trkpt>
      <trkpt lat="47.32914" lon="-1.61164">
        <ele>48.473564</ele>
        <time>2025-09-02T17:12:29.353Z</time>
      </trkpt>
      <trkpt lat="47.32901" lon="-1.61141">
        <ele>48.276243</ele>
        <time>2025-09-02T17:12:36.070Z</time>
      </trkpt>
      <trkpt lat="47.32893" lon="-1.61133">
        <ele>48.186023</ele>
        <time>2025-09-02T17:12:39.172Z</time>
      </trkpt>
      <trkpt lat="47.32885" lon="-1.61155">
        <ele>48.020985</ele>
        <time>2025-09-02T17:12:42.483Z</time>
      </trkpt>
      <trkpt lat="47.32883" lon="-1.61149">
        <ele>47.975348</ele>
        <time>2025-09-02T17:12:43.547Z</time>
      </trkpt>
      <trkpt lat="47.32882" lon="-1.61128">
        <ele>47.840009</ele>
        <time>2025-09-02T17:12:46.725Z</time>
      </trkpt>
      <trkpt lat="47.32885" lon="-1.61098">
        <ele>47.642821</ele>
        <time>2025-09-02T17:12:51.514Z</time>
      </trkpt>
      <trkpt lat="47.32883" lon="-1.61086">
        <ele>47.563566</ele>
        <time>2025-09-02T17:12:54.547Z</time>
      </trkpt>
      <trkpt lat="47.3289" lon="-1.61046">
        <ele>47.302258</ele>
        <time>2025-09-02T17:13:04.885Z</time>
      </trkpt>
      <trkpt lat="47.32867" lon="-1.60937">
        <ele>47.58869</ele>
        <time>2025-09-02T17:13:36.408Z</time>
      </trkpt>
      <trkpt lat="47.32797" lon="-1.60605">
        <ele>50.372772</ele>
        <time>2025-09-02T17:15:22.460Z</time>
      </trkpt>
      <trkpt lat="47.32794" lon="-1.60595">
        <ele>50.447991</ele>
        <time>2025-09-02T17:15:25.517Z</time>
      </trkpt>
      <trkpt lat="47.32792" lon="-1.60583">
        <ele>50.53912</ele>
        <time>2025-09-02T17:15:29.193Z</time>
      </trkpt>
      <trkpt lat="47.3268" lon="-1.60049">
        <ele>50.819403</ele>
        <time>2025-09-02T17:17:53.065Z</time>
      </trkpt>
      <trkpt lat="47.32572" lon="-1.5954">
        <ele>43.443156</ele>
        <time>2025-09-02T17:19:48.050Z</time>
      </trkpt>
      <trkpt lat="47.32438" lon="-1.5889">
        <ele>37.919862</ele>
        <time>2025-09-02T17:22:24.689Z</time>
      </trkpt>
      <trkpt lat="47.32395" lon="-1.58722">
        <ele>37.602141</ele>
        <time>2025-09-02T17:23:11.732Z</time>
      </trkpt>
      <trkpt lat="47.32345" lon="-1.58588">
        <ele>37.555562</ele>
        <time>2025-09-02T17:23:49.864Z</time>
      </trkpt>
      <trkpt lat="47.32306" lon="-1.58505">
        <ele>37.525015</ele>
        <time>2025-09-02T17:24:14.473Z</time>
      </trkpt>
      <trkpt lat="47.32258" lon="-1.58419">
        <ele>37.947296</ele>
        <time>2025-09-02T17:24:44.137Z</time>
      </trkpt>
      <trkpt lat="47.32228" lon="-1.58377">
        <ele>38.199412</ele>
        <time>2025-09-02T17:25:01.113Z</time>
      </trkpt>
      <trkpt lat="47.32197" lon="-1.58341">
        <ele>38.445969</ele>
        <time>2025-09-02T17:25:17.973Z</time>
      </trkpt>
      <trkpt lat="47.32021" lon="-1.58147">
        <ele>39.953959</ele>
        <time>2025-09-02T17:26:47.971Z</time>
      </trkpt>
      <trkpt lat="47.31315" lon="-1.57367">
        <ele>39.927656</ele>
        <time>2025-09-02T17:32:13.094Z</time>
      </trkpt>
      <trkpt lat="47.31156" lon="-1.57195">
        <ele>42.364081</ele>
        <time>2025-09-02T17:33:42.221Z</time>
      </trkpt>
      <trkpt lat="47.31106" lon="-1.57133">
        <ele>42.274497</ele>
        <time>2025-09-02T17:34:08.558Z</time>
      </trkpt>
      <trkpt lat="47.31078" lon="-1.57094">
        <ele>42.221697</ele>
        <time>2025-09-02T17:34:22.423Z</time>
      </trkpt>
      <trkpt lat="47.31044" lon="-1.57039">
        <ele>42.150951</ele>
        <time>2025-09-02T17:34:40.030Z</time>
      </trkpt>
      <trkpt lat="47.30991" lon="-1.56947">
        <ele>41.071861</ele>
        <time>2025-09-02T17:35:06.709Z</time>
      </trkpt>
      <trkpt lat="47.30983" lon="-1.56934">
        <ele>40.876168</ele>
        <time>2025-09-02T17:35:10.675Z</time>
      </trkpt>
      <trkpt lat="47.30936" lon="-1.56826">
        <ele>39.484948</ele>
        <time>2025-09-02T17:35:39.270Z</time>
      </trkpt>
      <trkpt lat="47.30842" lon="-1.56601">
        <ele>37.628681</ele>
        <time>2025-09-02T17:36:40.703Z</time>
      </trkpt>
      <trkpt lat="47.30827" lon="-1.56594">
        <ele>37.472934</ele>
        <time>2025-09-02T17:36:44.164Z</time>
      </trkpt>
      <trkpt lat="47.30817" lon="-1.56586">
        <ele>37.449499</ele>
        <time>2025-09-02T17:36:46.655Z</time>
      </trkpt>
      <trkpt lat="47.30806" lon="-1.56571">
        <ele>37.419404</ele>
        <time>2025-09-02T17:36:49.877Z</time>
      </trkpt>
      <trkpt lat="47.30786" lon="-1.56533">
        <ele>37.354191</ele>
        <time>2025-09-02T17:36:56.991Z</time>
      </trkpt>
      <trkpt lat="47.30754" lon="-1.56466">
        <ele>37.241313</ele>
        <time>2025-09-02T17:37:09.770Z</time>
      </trkpt>
      <trkpt lat="47.30687" lon="-1.56539">
        <ele>36.895942</ele>
        <time>2025-09-02T17:37:40.362Z</time>
      </trkpt>
      <trkpt lat="47.30652" lon="-1.56555">
        <ele>36.46431</ele>
        <time>2025-09-02T17:37:53.406Z</time>
      </trkpt>
      <trkpt lat="47.3063" lon="-1.56576">
        <ele>36.164853</ele>
        <time>2025-09-02T17:38:02.244Z</time>
      </trkpt>
      <trkpt lat="47.30624" lon="-1.56578">
        <ele>36.09196</ele>
        <time>2025-09-02T17:38:04.377Z</time>
      </trkpt>
      <trkpt lat="47.30535" lon="-1.56473">
        <ele>34.62258</ele>
        <time>2025-09-02T17:38:42.128Z</time>
      </trkpt>
      <trkpt lat="47.30477" lon="-1.5638">
        <ele>33.065139</ele>
        <time>2025-09-02T17:39:09.937Z</time>
      </trkpt>
      <trkpt lat="47.30448" lon="-1.56353">
        <ele>32.424942</ele>
        <time>2025-09-02T17:39:21.463Z</time>
      </trkpt>
      <trkpt lat="47.30391" lon="-1.56298">
        <ele>31.340428</ele>
        <time>2025-09-02T17:39:43.787Z</time>
      </trkpt>
      <trkpt lat="47.30339" lon="-1.56259">
        <ele>30.56806</ele>
        <time>2025-09-02T17:40:03.203Z</time>
      </trkpt>
      <trkpt lat="47.30272" lon="-1.56221">
        <ele>29.628509</ele>
        <time>2025-09-02T17:40:27.095Z</time>
      </trkpt>
      <trkpt lat="47.30208" lon="-1.56198">
        <ele>29.906001</ele>
        <time>2025-09-02T17:40:50.963Z</time>
      </trkpt>
      <trkpt lat="47.29989" lon="-1.56191">
        <ele>32.941717</ele>
        <time>2025-09-02T17:42:32.991Z</time>
      </trkpt>
      <trkpt lat="47.29924" lon="-1.5618">
        <ele>34.089701</ele>
        <time>2025-09-02T17:43:04.250Z</time>
      </trkpt>
      <trkpt lat="47.29934" lon="-1.56127">
        <ele>34.550194</ele>
        <time>2025-09-02T17:43:15.339Z</time>
      </trkpt>
      <trkpt lat="47.29939" lon="-1.56078">
        <ele>34.357714</ele>
        <time>2025-09-02T17:43:24.218Z</time>
      </trkpt>
      <trkpt lat="47.2994" lon="-1.56058">
        <ele>34.284027</ele>
        <time>2025-09-02T17:43:27.046Z</time>
      </trkpt>
      <trkpt lat="47.29941" lon="-1.56044">
        <ele>34.227213</ele>
        <time>2025-09-02T17:43:29.139Z</time>
      </trkpt>
      <trkpt lat="47.29943" lon="-1.5599">
        <ele>34.021964</ele>
        <time>2025-09-02T17:43:36.186Z</time>
      </trkpt>
      <trkpt lat="47.29944" lon="-1.5598">
        <ele>33.983213</ele>
        <time>2025-09-02T17:43:37.540Z</time>
      </trkpt>
      <trkpt lat="47.29946" lon="-1.55938">
        <ele>33.822481</ele>
        <time>2025-09-02T17:43:43.102Z</time>
      </trkpt>
      <trkpt lat="47.29946" lon="-1.55925">
        <ele>33.774147</ele>
        <time>2025-09-02T17:43:44.745Z</time>
      </trkpt>
      <trkpt lat="47.29948" lon="-1.55895">
        <ele>33.65547</ele>
        <time>2025-09-02T17:43:48.792Z</time>
      </trkpt>
      <trkpt lat="47.29954" lon="-1.55848">
        <ele>33.316567</ele>
        <time>2025-09-02T17:43:54.766Z</time>
      </trkpt>
      <trkpt lat="47.2996" lon="-1.55803">
        <ele>32.879274</ele>
        <time>2025-09-02T17:44:00.432Z</time>
      </trkpt>
      <trkpt lat="47.29986" lon="-1.55684">
        <ele>31.675379</ele>
        <time>2025-09-02T17:44:16.829Z</time>
      </trkpt>
      <trkpt lat="47.29999" lon="-1.55615">
        <ele>30.99209</ele>
        <time>2025-09-02T17:44:26.303Z</time>
      </trkpt>
      <trkpt lat="47.29995" lon="-1.55613">
        <ele>30.939528</ele>
        <time>2025-09-02T17:44:27.083Z</time>
      </trkpt>
      <trkpt lat="47.29992" lon="-1.55605">
        <ele>30.861645</ele>
        <time>2025-09-02T17:44:28.227Z</time>
      </trkpt>
      <trkpt lat="47.29994" lon="-1.55597">
        <ele>30.784198</ele>
        <time>2025-09-02T17:44:29.367Z</time>
      </trkpt>
      <trkpt lat="47.29999" lon="-1.55595">
        <ele>30.707858</ele>
        <time>2025-09-02T17:44:30.512Z</time>
      </trkpt>
      <trkpt lat="47.30001" lon="-1.55544">
        <ele>30.251762</ele>
        <time>2025-09-02T17:44:37.297Z</time>
      </trkpt>
      <trkpt lat="47.30002" lon="-1.55521">
        <ele>30.049883</ele>
        <time>2025-09-02T17:44:40.268Z</time>
      </trkpt>
      <trkpt lat="47.30002" lon="-1.555">
        <ele>29.865008</ele>
        <time>2025-09-02T17:44:42.943Z</time>
      </trkpt>
      <trkpt lat="47.29993" lon="-1.55387">
        <ele>28.845323</ele>
        <time>2025-09-02T17:44:57.587Z</time>
      </trkpt>
      <trkpt lat="47.29989" lon="-1.55362">
        <ele>28.671208</ele>
        <time>2025-09-02T17:45:00.948Z</time>
      </trkpt>
      <trkpt lat="47.29985" lon="-1.55343">
        <ele>28.687899</ele>
        <time>2025-09-02T17:45:03.586Z</time>
      </trkpt>
      <trkpt lat="47.29972" lon="-1.55322">
        <ele>28.711931</ele>
        <time>2025-09-02T17:45:07.435Z</time>
      </trkpt>
      <trkpt lat="47.2996" lon="-1.55314">
        <ele>28.728039</ele>
        <time>2025-09-02T17:45:10.086Z</time>
      </trkpt>
      <trkpt lat="47.29957" lon="-1.55306">
        <ele>28.736173</ele>
        <time>2025-09-02T17:45:11.459Z</time>
      </trkpt>
      <trkpt lat="47.29957" lon="-1.55302">
        <ele>28.739155</ele>
        <time>2025-09-02T17:45:11.960Z</time>
      </trkpt>
      <trkpt lat="47.29952" lon="-1.55299">
        <ele>28.746046</ele>
        <time>2025-09-02T17:45:13.145Z</time>
      </trkpt>
      <trkpt lat="47.29948" lon="-1.55289">
        <ele>28.75617</ele>
        <time>2025-09-02T17:45:14.904Z</time>
      </trkpt>
      <trkpt lat="47.29944" lon="-1.55271">
        <ele>28.771902</ele>
        <time>2025-09-02T17:45:17.707Z</time>
      </trkpt>
      <trkpt lat="47.29937" lon="-1.55242">
        <ele>28.797913</ele>
        <time>2025-09-02T17:45:22.626Z</time>
      </trkpt>
      <trkpt lat="47.29932" lon="-1.55228">
        <ele>28.811687</ele>
        <time>2025-09-02T17:45:25.403Z</time>
      </trkpt>
      <trkpt lat="47.29918" lon="-1.55187">
        <ele>28.850488</ele>
        <time>2025-09-02T17:45:33.849Z</time>
      </trkpt>
      <trkpt lat="47.29909" lon="-1.55151">
        <ele>28.882998</ele>
        <time>2025-09-02T17:45:41.297Z</time>
      </trkpt>
      <trkpt lat="47.29906" lon="-1.55126">
        <ele>28.903886</ele>
        <time>2025-09-02T17:45:46.400Z</time>
      </trkpt>
      <trkpt lat="47.29904" lon="-1.55103">
        <ele>28.921632</ele>
        <time>2025-09-02T17:45:50.953Z</time>
      </trkpt>
      <trkpt lat="47.29907" lon="-1.55043">
        <ele>28.969095</ele>
        <time>2025-09-02T17:46:02.300Z</time>
      </trkpt>
      <trkpt lat="47.29901" lon="-1.55035">
        <ele>28.978009</ele>
        <time>2025-09-02T17:46:04.211Z</time>
      </trkpt>
      <trkpt lat="47.29887" lon="-1.55043">
        <ele>28.996339</ele>
        <time>2025-09-02T17:46:08.148Z</time>
      </trkpt>
      <trkpt lat="47.29845" lon="-1.55081">
        <ele>29.053568</ele>
        <time>2025-09-02T17:46:18.904Z</time>
      </trkpt>
      <trkpt lat="47.29819" lon="-1.55025">
        <ele>29.016099</ele>
        <time>2025-09-02T17:46:27.839Z</time>
      </trkpt>
      <trkpt lat="47.29798" lon="-1.54984">
        <ele>28.454256</ele>
        <time>2025-09-02T17:46:36.818Z</time>
      </trkpt>
      <trkpt lat="47.29765" lon="-1.54919">
        <ele>27.560673</ele>
        <time>2025-09-02T17:46:46.816Z</time>
      </trkpt>
      <trkpt lat="47.2975" lon="-1.54904">
        <ele>27.256559</ele>
        <time>2025-09-02T17:46:50.333Z</time>
      </trkpt>
      <trkpt lat="47.29726" lon="-1.54896">
        <ele>26.870482</ele>
        <time>2025-09-02T17:46:54.889Z</time>
      </trkpt>
      <trkpt lat="47.29721" lon="-1.54895">
        <ele>26.785929</ele>
        <time>2025-09-02T17:46:55.851Z</time>
      </trkpt>
      <trkpt lat="47.29716" lon="-1.54887">
        <ele>26.663554</ele>
        <time>2025-09-02T17:46:57.329Z</time>
      </trkpt>
      <trkpt lat="47.29716" lon="-1.5488">
        <ele>26.583014</ele>
        <time>2025-09-02T17:46:58.240Z</time>
      </trkpt>
      <trkpt lat="47.29718" lon="-1.54874">
        <ele>26.502476</ele>
        <time>2025-09-02T17:46:59.168Z</time>
      </trkpt>
      <trkpt lat="47.2972" lon="-1.54872">
        <ele>26.468491</ele>
        <time>2025-09-02T17:46:59.576Z</time>
      </trkpt>
      <trkpt lat="47.29722" lon="-1.54856">
        <ele>26.287673</ele>
        <time>2025-09-02T17:47:01.660Z</time>
      </trkpt>
      <trkpt lat="47.29721" lon="-1.54851">
        <ele>26.230469</ele>
        <time>2025-09-02T17:47:02.336Z</time>
      </trkpt>
      <trkpt lat="47.29714" lon="-1.54829">
        <ele>25.879096</ele>
        <time>2025-09-02T17:47:05.527Z</time>
      </trkpt>
      <trkpt lat="47.29706" lon="-1.54808">
        <ele>25.529725</ele>
        <time>2025-09-02T17:47:08.552Z</time>
      </trkpt>
      <trkpt lat="47.29704" lon="-1.54802">
        <ele>25.42755</ele>
        <time>2025-09-02T17:47:09.441Z</time>
      </trkpt>
      <trkpt lat="47.29695" lon="-1.54775">
        <ele>24.966409</ele>
        <time>2025-09-02T17:47:13.321Z</time>
      </trkpt>
      <trkpt lat="47.29683" lon="-1.54755">
        <ele>24.569749</ele>
        <time>2025-09-02T17:47:16.578Z</time>
      </trkpt>
      <trkpt lat="47.29678" lon="-1.54758">
        <ele>24.436227</ele>
        <time>2025-09-02T17:47:17.686Z</time>
      </trkpt>
      <trkpt lat="47.29673" lon="-1.54752">
        <ele>24.30122</ele>
        <time>2025-09-02T17:47:18.750Z</time>
      </trkpt>
      <trkpt lat="47.29673" lon="-1.54746">
        <ele>24.212587</ele>
        <time>2025-09-02T17:47:19.463Z</time>
      </trkpt>
      <trkpt lat="47.29677" lon="-1.5474">
        <ele>24.082519</ele>
        <time>2025-09-02T17:47:20.532Z</time>
      </trkpt>
      <trkpt lat="47.29669" lon="-1.54706">
        <ele>23.537069</ele>
        <time>2025-09-02T17:47:24.951Z</time>
      </trkpt>
      <trkpt lat="47.29662" lon="-1.54687">
        <ele>23.219341</ele>
        <time>2025-09-02T17:47:27.463Z</time>
      </trkpt>
      <trkpt lat="47.2965" lon="-1.54669">
        <ele>22.832893</ele>
        <time>2025-09-02T17:47:30.503Z</time>
      </trkpt>
      <trkpt lat="47.29568" lon="-1.54606">
        <ele>20.947018</ele>
        <time>2025-09-02T17:47:46.557Z</time>
      </trkpt>
      <trkpt lat="47.29496" lon="-1.54553">
        <ele>19.346831</ele>
        <time>2025-09-02T17:48:01.960Z</time>
      </trkpt>
      <trkpt lat="47.2948" lon="-1.54544">
        <ele>19.004974</ele>
        <time>2025-09-02T17:48:05.322Z</time>
      </trkpt>
      <trkpt lat="47.29438" lon="-1.54531">
        <ele>18.052875</ele>
        <time>2025-09-02T17:48:13.457Z</time>
      </trkpt>
      <trkpt lat="47.2943" lon="-1.54528">
        <ele>17.842522</ele>
        <time>2025-09-02T17:48:15.056Z</time>
      </trkpt>
      <trkpt lat="47.29408" lon="-1.54524">
        <ele>17.292592</ele>
        <time>2025-09-02T17:48:19.178Z</time>
      </trkpt>
      <trkpt lat="47.29392" lon="-1.54459">
        <ele>16.135131</ele>
        <time>2025-09-02T17:48:27.539Z</time>
      </trkpt>
      <trkpt lat="47.29384" lon="-1.54394">
        <ele>15.026707</ele>
        <time>2025-09-02T17:48:35.206Z</time>
      </trkpt>
      <trkpt lat="47.29368" lon="-1.54275">
        <ele>13.227731</ele>
        <time>2025-09-02T17:48:49.268Z</time>
      </trkpt>
      <trkpt lat="47.29343" lon="-1.54078">
        <ele>10.535526</ele>
        <time>2025-09-02T17:49:14.851Z</time>
      </trkpt>
      <trkpt lat="47.29327" lon="-1.53951">
        <ele>9.667807</ele>
        <time>2025-09-02T17:49:32.663Z</time>
      </trkpt>
      <trkpt lat="47.29324" lon="-1.5393">
        <ele>9.521708</ele>
        <time>2025-09-02T17:49:35.550Z</time>
      </trkpt>
      <trkpt lat="47.29318" lon="-1.5388">
        <ele>9.174966</ele>
        <time>2025-09-02T17:49:42.185Z</time>
      </trkpt>
      <trkpt lat="47.29304" lon="-1.53769">
        <ele>8.652221</ele>
        <time>2025-09-02T17:49:57.884Z</time>
      </trkpt>
      <trkpt lat="47.2929" lon="-1.53717">
        <ele>8.506416</ele>
        <time>2025-09-02T17:50:05.547Z</time>
      </trkpt>
      <trkpt lat="47.29281" lon="-1.53696">
        <ele>8.44174</ele>
        <time>2025-09-02T17:50:08.871Z</time>
      </trkpt>
      <trkpt lat="47.29267" lon="-1.5368">
        <ele>8.377178</ele>
        <time>2025-09-02T17:50:12.285Z</time>
      </trkpt>
      <trkpt lat="47.29259" lon="-1.53673">
        <ele>8.342659</ele>
        <time>2025-09-02T17:50:14.188Z</time>
      </trkpt>
      <trkpt lat="47.29235" lon="-1.5365">
        <ele>8.230842</ele>
        <time>2025-09-02T17:50:20.723Z</time>
      </trkpt>
      <trkpt lat="47.29192" lon="-1.53613">
        <ele>8.058007</ele>
        <time>2025-09-02T17:50:34.226Z</time>
      </trkpt>
      <trkpt lat="47.29186" lon="-1.53607">
        <ele>8.034642</ele>
        <time>2025-09-02T17:50:36.334Z</time>
      </trkpt>
      <trkpt lat="47.29177" lon="-1.53603">
        <ele>8.007054</ele>
        <time>2025-09-02T17:50:38.928Z</time>
      </trkpt>
      <trkpt lat="47.29149" lon="-1.53571">
        <ele>7.901262</ele>
        <time>2025-09-02T17:50:47.436Z</time>
      </trkpt>
      <trkpt lat="47.29127" lon="-1.53528">
        <ele>7.789896</ele>
        <time>2025-09-02T17:50:56.115Z</time>
      </trkpt>
      <trkpt lat="47.29108" lon="-1.53504">
        <ele>7.714951</ele>
        <time>2025-09-02T17:51:02.017Z</time>
      </trkpt>
      <trkpt lat="47.29053" lon="-1.53445">
        <ele>7.440663</ele>
        <time>2025-09-02T17:51:25.781Z</time>
      </trkpt>
      <trkpt lat="47.29014" lon="-1.53425">
        <ele>7.172053</ele>
        <time>2025-09-02T17:51:39.465Z</time>
      </trkpt>
      <trkpt lat="47.28989" lon="-1.53399">
        <ele>6.975374</ele>
        <time>2025-09-02T17:51:49.350Z</time>
      </trkpt>
      <trkpt lat="47.28884" lon="-1.53315">
        <ele>7.281728</ele>
        <time>2025-09-02T17:52:33.351Z</time>
      </trkpt>
      <trkpt lat="47.28879" lon="-1.53311">
        <ele>7.453719</ele>
        <time>2025-09-02T17:52:36.135Z</time>
      </trkpt>
      <trkpt lat="47.28862" lon="-1.53304">
        <ele>7.947189</ele>
        <time>2025-09-02T17:52:42.426Z</time>
      </trkpt>
      <trkpt lat="47.2885" lon="-1.53332">
        <ele>8.559903</ele>
        <time>2025-09-02T17:52:50.889Z</time>
      </trkpt>
      <trkpt lat="47.28844" lon="-1.53338">
        <ele>8.771231</ele>
        <time>2025-09-02T17:52:53.958Z</time>
      </trkpt>
      <trkpt lat="47.28823" lon="-1.53324">
        <ele>9.40964</ele>
        <time>2025-09-02T17:53:03.853Z</time>
      </trkpt>
      <trkpt lat="47.28818" lon="-1.53327">
        <ele>9.549973</ele>
        <time>2025-09-02T17:53:06.106Z</time>
      </trkpt>
      <trkpt lat="47.2879" lon="-1.53353">
        <ele>10.483449</ele>
        <time>2025-09-02T17:53:22.077Z</time>
      </trkpt>
      <trkpt lat="47.28725" lon="-1.53413">
        <ele>12.569481</ele>
        <time>2025-09-02T17:53:57.510Z</time>
      </trkpt>
      <trkpt lat="47.28724" lon="-1.53414">
        <ele>12.601428</ele>
        <time>2025-09-02T17:53:57.997Z</time>
      </trkpt>
      <trkpt lat="47.28711" lon="-1.53422">
        <ele>12.967233</ele>
        <time>2025-09-02T17:54:03.524Z</time>
      </trkpt>
      <trkpt lat="47.28663" lon="-1.53439">
        <ele>14.285248</ele>
        <time>2025-09-02T17:54:22.089Z</time>
      </trkpt>
      <trkpt lat="47.2864" lon="-1.53443">
        <ele>14.912397</ele>
        <time>2025-09-02T17:54:29.814Z</time>
      </trkpt>
      <trkpt lat="47.28636" lon="-1.53502">
        <ele>15.987704</ele>
        <time>2025-09-02T17:54:42.012Z</time>
      </trkpt>
      <trkpt lat="47.28622" lon="-1.53531">
        <ele>16.509351</ele>
        <time>2025-09-02T17:54:49.127Z</time>
      </trkpt>
      <trkpt lat="47.28617" lon="-1.53532">
        <ele>16.606269</ele>
        <time>2025-09-02T17:54:50.733Z</time>
      </trkpt>
      <trkpt lat="47.28621" lon="-1.53538">
        <ele>16.712055</ele>
        <time>2025-09-02T17:54:52.433Z</time>
      </trkpt>
      <trkpt lat="47.28628" lon="-1.53594">
        <ele>17.429665</ele>
        <time>2025-09-02T17:55:04.224Z</time>
      </trkpt>
      <trkpt lat="47.28627" lon="-1.53633">
        <ele>17.914075</ele>
        <time>2025-09-02T17:55:12.423Z</time>
      </trkpt>
      <trkpt lat="47.28623" lon="-1.53676">
        <ele>18.467075</ele>
        <time>2025-09-02T17:55:22.470Z</time>
      </trkpt>
      <trkpt lat="47.28621" lon="-1.53693">
        <ele>18.68219</ele>
        <time>2025-09-02T17:55:26.515Z</time>
      </trkpt>
      <trkpt lat="47.28611" lon="-1.53769">
        <ele>19.617499</ele>
        <time>2025-09-02T17:55:44.863Z</time>
      </trkpt>
      <trkpt lat="47.28599" lon="-1.53841">
        <ele>20.207196</ele>
        <time>2025-09-02T17:56:02.210Z</time>
      </trkpt>
      <trkpt lat="47.28573" lon="-1.53956">
        <ele>21.164086</ele>
        <time>2025-09-02T17:56:25.973Z</time>
      </trkpt>
      <trkpt lat="47.28583" lon="-1.53969">
        <ele>21.322863</ele>
        <time>2025-09-02T17:56:29.417Z</time>
      </trkpt>
      <trkpt lat="47.28627" lon="-1.54004">
        <ele>21.495224</ele>
        <time>2025-09-02T17:56:40.739Z</time>
      </trkpt>
      <trkpt lat="47.28682" lon="-1.54032">
        <ele>21.051319</ele>
        <time>2025-09-02T17:56:53.020Z</time>
      </trkpt>
      <trkpt lat="47.28744" lon="-1.54061">
        <ele>20.554209</ele>
        <time>2025-09-02T17:57:38.179Z</time>
      </trkpt>
      <trkpt lat="47.28785" lon="-1.5408">
        <ele>20.215433</ele>
        <time>2025-09-02T17:58:08.221Z</time>
      </trkpt>
      <trkpt lat="47.288" lon="-1.54084">
        <ele>20.077721</ele>
        <time>2025-09-02T17:58:19.241Z</time>
      </trkpt>
      <trkpt lat="47.28802" lon="-1.54104">
        <ele>19.9577</ele>
        <time>2025-09-02T17:58:21.912Z</time>
      </trkpt>
      <trkpt lat="47.28788" lon="-1.5411">
        <ele>19.824761</ele>
        <time>2025-09-02T17:58:24.896Z</time>
      </trkpt>
      <trkpt lat="47.28768" lon="-1.54123">
        <ele>19.639153</ele>
        <time>2025-09-02T17:58:29.065Z</time>
      </trkpt>
      <trkpt lat="47.28748" lon="-1.54144">
        <ele>19.422152</ele>
        <time>2025-09-02T17:58:33.953Z</time>
      </trkpt>
      <trkpt lat="47.28729" lon="-1.54174">
        <ele>19.181874</ele>
        <time>2025-09-02T17:58:39.412Z</time>
      </trkpt>
      <trkpt lat="47.2872" lon="-1.54197">
        <ele>19.024918</ele>
        <time>2025-09-02T17:58:43.073Z</time>
      </trkpt>
      <trkpt lat="47.28693" lon="-1.54265">
        <ele>18.810203</ele>
        <time>2025-09-02T17:58:54.342Z</time>
      </trkpt>
      <trkpt lat="47.28674" lon="-1.54294">
        <ele>18.964618</ele>
        <time>2025-09-02T17:59:00.538Z</time>
      </trkpt>
      <trkpt lat="47.2867" lon="-1.543">
        <ele>18.996536</ele>
        <time>2025-09-02T17:59:01.942Z</time>
      </trkpt>
      <trkpt lat="47.28664" lon="-1.543">
        <ele>19.027996</ele>
        <time>2025-09-02T17:59:03.325Z</time>
      </trkpt>
      <trkpt lat="47.28661" lon="-1.54307">
        <ele>19.061789</ele>
        <time>2025-09-02T17:59:04.827Z</time>
      </trkpt>
      <trkpt lat="47.2866" lon="-1.54314">
        <ele>19.088312</ele>
        <time>2025-09-02T17:59:06.067Z</time>
      </trkpt>
      <trkpt lat="47.28663" lon="-1.54325">
        <ele>19.134374</ele>
        <time>2025-09-02T17:59:08.147Z</time>
      </trkpt>
      <trkpt lat="47.28662" lon="-1.54332">
        <ele>19.161048</ele>
        <time>2025-09-02T17:59:09.414Z</time>
      </trkpt>
      <trkpt lat="47.28654" lon="-1.54375">
        <ele>19.3311</ele>
        <time>2025-09-02T17:59:17.526Z</time>
      </trkpt>
      <trkpt lat="47.28614" lon="-1.54452">
        <ele>19.701693</ele>
        <time>2025-09-02T17:59:35.438Z</time>
      </trkpt>
      <trkpt lat="47.28594" lon="-1.54515">
        <ele>20.212177</ele>
        <time>2025-09-02T17:59:48.449Z</time>
      </trkpt>
      <trkpt lat="47.28589" lon="-1.54523">
        <ele>20.289482</ele>
        <time>2025-09-02T17:59:50.298Z</time>
      </trkpt>
      <trkpt lat="47.28584" lon="-1.54522">
        <ele>20.351429</ele>
        <time>2025-09-02T17:59:51.826Z</time>
      </trkpt>
      <trkpt lat="47.28581" lon="-1.54529">
        <ele>20.41717</ele>
        <time>2025-09-02T17:59:53.394Z</time>
      </trkpt>
      <trkpt lat="47.28579" lon="-1.54537">
        <ele>20.476795</ele>
        <time>2025-09-02T17:59:54.847Z</time>
      </trkpt>
      <trkpt lat="47.28585" lon="-1.54549">
        <ele>20.588508</ele>
        <time>2025-09-02T17:59:57.560Z</time>
      </trkpt>
      <trkpt lat="47.28585" lon="-1.54556">
        <ele>20.644939</ele>
        <time>2025-09-02T17:59:58.922Z</time>
      </trkpt>
      <trkpt lat="47.28582" lon="-1.54593">
        <ele>20.923936</ele>
        <time>2025-09-02T18:00:05.654Z</time>
      </trkpt>
      <trkpt lat="47.28571" lon="-1.54677">
        <ele>21.582239</ele>
        <time>2025-09-02T18:00:21.658Z</time>
      </trkpt>
      <trkpt lat="47.28565" lon="-1.54725">
        <ele>22.023829</ele>
        <time>2025-09-02T18:00:31.751Z</time>
      </trkpt>
      <trkpt lat="47.28562" lon="-1.54752">
        <ele>22.295595</ele>
        <time>2025-09-02T18:00:37.659Z</time>
      </trkpt>
      <trkpt lat="47.28557" lon="-1.54834">
        <ele>23.143198</ele>
        <time>2025-09-02T18:00:54.823Z</time>
      </trkpt>
      <trkpt lat="47.28559" lon="-1.54897">
        <ele>23.780306</ele>
        <time>2025-09-02T18:01:07.326Z</time>
      </trkpt>
      <trkpt lat="47.28557" lon="-1.54915">
        <ele>23.967634</ele>
        <time>2025-09-02T18:01:11.036Z</time>
      </trkpt>
      <trkpt lat="47.28561" lon="-1.54917">
        <ele>24.033159</ele>
        <time>2025-09-02T18:01:12.317Z</time>
      </trkpt>
      <trkpt lat="47.28566" lon="-1.54918">
        <ele>24.117414</ele>
        <time>2025-09-02T18:01:13.990Z</time>
      </trkpt>
      <trkpt lat="47.28571" lon="-1.54918">
        <ele>24.186504</ele>
        <time>2025-09-02T18:01:15.387Z</time>
      </trkpt>
      <trkpt lat="47.28578" lon="-1.5492">
        <ele>24.29929</ele>
        <time>2025-09-02T18:01:17.632Z</time>
      </trkpt>
      <trkpt lat="47.28585" lon="-1.54928">
        <ele>24.427612</ele>
        <time>2025-09-02T18:01:20.257Z</time>
      </trkpt>
      <trkpt lat="47.28589" lon="-1.54947">
        <ele>24.564121</ele>
        <time>2025-09-02T18:01:24.151Z</time>
      </trkpt>
      <trkpt lat="47.28589" lon="-1.54951">
        <ele>24.58939</ele>
        <time>2025-09-02T18:01:24.954Z</time>
      </trkpt>
      <trkpt lat="47.28591" lon="-1.54965">
        <ele>24.682489</ele>
        <time>2025-09-02T18:01:27.690Z</time>
      </trkpt>
      <trkpt lat="47.28595" lon="-1.54985">
        <ele>24.824183</ele>
        <time>2025-09-02T18:01:31.892Z</time>
      </trkpt>
      <trkpt lat="47.28585" lon="-1.55003">
        <ele>24.980448</ele>
        <time>2025-09-02T18:01:36.200Z</time>
      </trkpt>
      <trkpt lat="47.2857" lon="-1.55038">
        <ele>25.256278</ele>
        <time>2025-09-02T18:01:43.382Z</time>
      </trkpt>
      <trkpt lat="47.28564" lon="-1.55047">
        <ele>25.338556</ele>
        <time>2025-09-02T18:01:45.626Z</time>
      </trkpt>
      <trkpt lat="47.28557" lon="-1.55047">
        <ele>25.40522</ele>
        <time>2025-09-02T18:01:47.364Z</time>
      </trkpt>
      <trkpt lat="47.28548" lon="-1.55047">
        <ele>25.494428</ele>
        <time>2025-09-02T18:01:49.878Z</time>
      </trkpt>
      <trkpt lat="47.28545" lon="-1.55036">
        <ele>25.572227</ele>
        <time>2025-09-02T18:01:51.969Z</time>
      </trkpt>
      <trkpt lat="47.28526" lon="-1.55015">
        <ele>25.801627</ele>
        <time>2025-09-02T18:01:58.602Z</time>
      </trkpt>
      <trkpt lat="47.28522" lon="-1.55008">
        <ele>25.867064</ele>
        <time>2025-09-02T18:02:00.437Z</time>
      </trkpt>
      <trkpt lat="47.28519" lon="-1.54997">
        <ele>25.940854</ele>
        <time>2025-09-02T18:02:02.617Z</time>
      </trkpt>
      <trkpt lat="47.2852" lon="-1.54991">
        <ele>25.981994</ele>
        <time>2025-09-02T18:02:03.707Z</time>
      </trkpt>
      <trkpt lat="47.28508" lon="-1.54983">
        <ele>26.110829</ele>
        <time>2025-09-02T18:02:07.243Z</time>
      </trkpt>
      <trkpt lat="47.28423" lon="-1.54984">
        <ele>26.421455</ele>
        <time>2025-09-02T18:02:27.787Z</time>
      </trkpt>
      <trkpt lat="47.28323" lon="-1.54974">
        <ele>26.709666</ele>
        <time>2025-09-02T18:02:51.351Z</time>
      </trkpt>
      <trkpt lat="47.28312" lon="-1.54977">
        <ele>26.738239</ele>
        <time>2025-09-02T18:02:53.641Z</time>
      </trkpt>
      <trkpt lat="47.28303" lon="-1.54987">
        <ele>26.767223</ele>
        <time>2025-09-02T18:02:56.118Z</time>
      </trkpt>
      <trkpt lat="47.28298" lon="-1.54988">
        <ele>26.779955</ele>
        <time>2025-09-02T18:02:57.183Z</time>
      </trkpt>
      <trkpt lat="47.28291" lon="-1.54987">
        <ele>26.797531</ele>
        <time>2025-09-02T18:02:58.677Z</time>
      </trkpt>
      <trkpt lat="47.2827" lon="-1.54973">
        <ele>26.853531</ele>
        <time>2025-09-02T18:03:03.397Z</time>
      </trkpt>
      <trkpt lat="47.28211" lon="-1.54964">
        <ele>27.001112</ele>
        <time>2025-09-02T18:03:16.158Z</time>
      </trkpt>
      <trkpt lat="47.28138" lon="-1.54947">
        <ele>27.298488</ele>
        <time>2025-09-02T18:03:34.313Z</time>
      </trkpt>
      <trkpt lat="47.27728" lon="-1.54825">
        <ele>35.790081</ele>
        <time>2025-09-02T18:05:57.234Z</time>
      </trkpt>
      <trkpt lat="47.2767" lon="-1.54813">
        <ele>36.302898</ele>
        <time>2025-09-02T18:06:12.497Z</time>
      </trkpt>
      <trkpt lat="47.27652" lon="-1.54814">
        <ele>36.466603</ele>
        <time>2025-09-02T18:06:16.765Z</time>
      </trkpt>
      <trkpt lat="47.27643" lon="-1.54819">
        <ele>36.543989</ele>
        <time>2025-09-02T18:06:18.671Z</time>
      </trkpt>
      <trkpt lat="47.27634" lon="-1.54825">
        <ele>36.63261</ele>
        <time>2025-09-02T18:06:20.799Z</time>
      </trkpt>
      <trkpt lat="47.27616" lon="-1.54829">
        <ele>36.800284</ele>
        <time>2025-09-02T18:06:24.677Z</time>
      </trkpt>
      <trkpt lat="47.27596" lon="-1.54817">
        <ele>36.399999</ele>
        <time>2025-09-02T18:06:28.866Z</time>
      </trkpt>
      <trkpt lat="47.27594" lon="-1.54808">
        <ele>36.275401</ele>
        <time>2025-09-02T18:06:30.132Z</time>
      </trkpt>
      <trkpt lat="47.2759" lon="-1.54795">
        <ele>36.096006</ele>
        <time>2025-09-02T18:06:31.917Z</time>
      </trkpt>
      <trkpt lat="47.27584" lon="-1.54783">
        <ele>35.898414</ele>
        <time>2025-09-02T18:06:33.891Z</time>
      </trkpt>
      <trkpt lat="47.27575" lon="-1.54775">
        <ele>35.688651</ele>
        <time>2025-09-02T18:06:35.957Z</time>
      </trkpt>
      <trkpt lat="47.27567" lon="-1.54772">
        <ele>35.536141</ele>
        <time>2025-09-02T18:06:37.421Z</time>
      </trkpt>
      <trkpt lat="47.27506" lon="-1.54754">
        <ele>34.356135</ele>
        <time>2025-09-02T18:06:48.396Z</time>
      </trkpt>
      <trkpt lat="47.27466" lon="-1.54748">
        <ele>33.573237</ele>
        <time>2025-09-02T18:06:55.733Z</time>
      </trkpt>
      <trkpt lat="47.27459" lon="-1.5475">
        <ele>33.435128</ele>
        <time>2025-09-02T18:06:57.025Z</time>
      </trkpt>
      <trkpt lat="47.27446" lon="-1.54762">
        <ele>33.179059</ele>
        <time>2025-09-02T18:06:59.678Z</time>
      </trkpt>
      <trkpt lat="47.27438" lon="-1.5477">
        <ele>33.028785</ele>
        <time>2025-09-02T18:07:01.300Z</time>
      </trkpt>
      <trkpt lat="47.27428" lon="-1.54775">
        <ele>32.851284</ele>
        <time>2025-09-02T18:07:03.249Z</time>
      </trkpt>
      <trkpt lat="47.27418" lon="-1.54779">
        <ele>32.673339</ele>
        <time>2025-09-02T18:07:05.200Z</time>
      </trkpt>
      <trkpt lat="47.27413" lon="-1.54778">
        <ele>32.590026</ele>
        <time>2025-09-02T18:07:06.123Z</time>
      </trkpt>
      <trkpt lat="47.2741" lon="-1.54777">
        <ele>32.541287</ele>
        <time>2025-09-02T18:07:06.651Z</time>
      </trkpt>
      <trkpt lat="47.27407" lon="-1.54775">
        <ele>32.485178</ele>
        <time>2025-09-02T18:07:07.273Z</time>
      </trkpt>
      <trkpt lat="47.27395" lon="-1.54763">
        <ele>32.253447</ele>
        <time>2025-09-02T18:07:09.861Z</time>
      </trkpt>
      <trkpt lat="47.27378" lon="-1.54737">
        <ele>31.84515</ele>
        <time>2025-09-02T18:07:14.446Z</time>
      </trkpt>
      <trkpt lat="47.27362" lon="-1.5472">
        <ele>31.522108</ele>
        <time>2025-09-02T18:07:18.077Z</time>
      </trkpt>
      <trkpt lat="47.27349" lon="-1.54712">
        <ele>31.288475</ele>
        <time>2025-09-02T18:07:20.751Z</time>
      </trkpt>
      <trkpt lat="47.27266" lon="-1.54685">
        <ele>30.357822</ele>
        <time>2025-09-02T18:07:38.067Z</time>
      </trkpt>
      <trkpt lat="47.2724" lon="-1.54681">
        <ele>30.315807</ele>
        <time>2025-09-02T18:07:43.710Z</time>
      </trkpt>
      <trkpt lat="47.27204" lon="-1.54668">
        <ele>30.256399</ele>
        <time>2025-09-02T18:07:51.959Z</time>
      </trkpt>
      <trkpt lat="47.27074" lon="-1.54629">
        <ele>30.041028</ele>
        <time>2025-09-02T18:08:22.369Z</time>
      </trkpt>
      <trkpt lat="47.27027" lon="-1.5462">
        <ele>29.960819</ele>
        <time>2025-09-02T18:08:33.016Z</time>
      </trkpt>
      <trkpt lat="47.27" lon="-1.54618">
        <ele>29.917023</ele>
        <time>2025-09-02T18:08:38.690Z</time>
      </trkpt>
      <trkpt lat="47.26901" lon="-1.54628">
        <ele>29.342776</ele>
        <time>2025-09-02T18:08:59.447Z</time>
      </trkpt>
      <trkpt lat="47.26877" lon="-1.54621">
        <ele>29.06213</ele>
        <time>2025-09-02T18:09:04.458Z</time>
      </trkpt>
      <trkpt lat="47.26866" lon="-1.54615">
        <ele>28.930798</ele>
        <time>2025-09-02T18:09:06.776Z</time>
      </trkpt>
      <trkpt lat="47.2685" lon="-1.54606">
        <ele>28.732852</ele>
        <time>2025-09-02T18:09:10.261Z</time>
      </trkpt>
      <trkpt lat="47.26835" lon="-1.54604">
        <ele>28.563601</ele>
        <time>2025-09-02T18:09:13.188Z</time>
      </trkpt>
      <trkpt lat="47.26783" lon="-1.54601">
        <ele>27.969322</ele>
        <time>2025-09-02T18:09:23.091Z</time>
      </trkpt>
      <trkpt lat="47.26743" lon="-1.54603">
        <ele>27.089957</ele>
        <time>2025-09-02T18:09:30.515Z</time>
      </trkpt>
      <trkpt lat="47.26731" lon="-1.54603">
        <ele>26.728672</ele>
        <time>2025-09-02T18:09:32.671Z</time>
      </trkpt>
      <trkpt lat="47.26661" lon="-1.54613">
        <ele>24.568692</ele>
        <time>2025-09-02T18:09:45.043Z</time>
      </trkpt>
      <trkpt lat="47.2662" lon="-1.54624">
        <ele>23.288749</ele>
        <time>2025-09-02T18:09:52.017Z</time>
      </trkpt>
      <trkpt lat="47.26572" lon="-1.54642">
        <ele>21.573412</ele>
        <time>2025-09-02T18:10:00.168Z</time>
      </trkpt>
      <trkpt lat="47.26528" lon="-1.54663">
        <ele>19.624036</ele>
        <time>2025-09-02T18:10:07.555Z</time>
      </trkpt>
      <trkpt lat="47.26483" lon="-1.54691">
        <ele>17.509111</ele>
        <time>2025-09-02T18:10:15.516Z</time>
      </trkpt>
      <trkpt lat="47.26435" lon="-1.54727">
        <ele>15.244835</ele>
        <time>2025-09-02T18:10:24.074Z</time>
      </trkpt>
      <trkpt lat="47.26361" lon="-1.54812">
        <ele>12.663043</ele>
        <time>2025-09-02T18:10:40.047Z</time>
      </trkpt>
      <trkpt lat="47.2636" lon="-1.54814">
        <ele>12.621618</ele>
        <time>2025-09-02T18:10:40.357Z</time>
      </trkpt>
      <trkpt lat="47.26354" lon="-1.54801">
        <ele>12.361729</ele>
        <time>2025-09-02T18:10:42.261Z</time>
      </trkpt>
      <trkpt lat="47.26349" lon="-1.54792">
        <ele>12.178972</ele>
        <time>2025-09-02T18:10:43.611Z</time>
      </trkpt>
      <trkpt lat="47.26345" lon="-1.54787">
        <ele>12.045582</ele>
        <time>2025-09-02T18:10:44.599Z</time>
      </trkpt>
      <trkpt lat="47.26333" lon="-1.54788">
        <ele>11.744536</ele>
        <time>2025-09-02T18:10:46.854Z</time>
      </trkpt>
      <trkpt lat="47.26333" lon="-1.54784">
        <ele>11.687893</ele>
        <time>2025-09-02T18:10:47.284Z</time>
      </trkpt>
      <trkpt lat="47.26327" lon="-1.54735">
        <ele>10.8631</ele>
        <time>2025-09-02T18:10:53.606Z</time>
      </trkpt>
      <trkpt lat="47.26325" lon="-1.54727">
        <ele>10.71692</ele>
        <time>2025-09-02T18:10:54.744Z</time>
      </trkpt>
      <trkpt lat="47.26312" lon="-1.54699">
        <ele>10.172205</ele>
        <time>2025-09-02T18:10:59.194Z</time>
      </trkpt>
      <trkpt lat="47.26301" lon="-1.54684">
        <ele>10.085026</ele>
        <time>2025-09-02T18:11:02.105Z</time>
      </trkpt>
      <trkpt lat="47.26274" lon="-1.54667">
        <ele>9.90817</ele>
        <time>2025-09-02T18:11:08.138Z</time>
      </trkpt>
      <trkpt lat="47.26263" lon="-1.54666">
        <ele>9.839736</ele>
        <time>2025-09-02T18:11:10.514Z</time>
      </trkpt>
      <trkpt lat="47.26243" lon="-1.54667">
        <ele>9.721959</ele>
        <time>2025-09-02T18:11:14.554Z</time>
      </trkpt>
      <trkpt lat="47.26215" lon="-1.54675">
        <ele>9.552372</ele>
        <time>2025-09-02T18:11:20.377Z</time>
      </trkpt>
      <trkpt lat="47.26195" lon="-1.54684">
        <ele>9.431222</ele>
        <time>2025-09-02T18:11:24.637Z</time>
      </trkpt>
      <trkpt lat="47.26185" lon="-1.54689">
        <ele>9.364778</ele>
        <time>2025-09-02T18:11:26.992Z</time>
      </trkpt>
      <trkpt lat="47.26138" lon="-1.54725">
        <ele>9.264501</ele>
        <time>2025-09-02T18:11:38.206Z</time>
      </trkpt>
      <trkpt lat="47.26102" lon="-1.54759">
        <ele>9.993882</ele>
        <time>2025-09-02T18:11:48.850Z</time>
      </trkpt>
      <trkpt lat="47.26063" lon="-1.54794">
        <ele>10.772149</ele>
        <time>2025-09-02T18:12:02.703Z</time>
      </trkpt>
      <trkpt lat="47.26044" lon="-1.54803">
        <ele>11.106271</ele>
        <time>2025-09-02T18:12:09.243Z</time>
      </trkpt>
      <trkpt lat="47.26029" lon="-1.54805">
        <ele>11.366261</ele>
        <time>2025-09-02T18:12:14.447Z</time>
      </trkpt>
      <trkpt lat="47.26015" lon="-1.54802">
        <ele>11.607843</ele>
        <time>2025-09-02T18:12:19.402Z</time>
      </trkpt>
      <trkpt lat="47.25991" lon="-1.54787">
        <ele>12.050586</ele>
        <time>2025-09-02T18:12:28.733Z</time>
      </trkpt>
      <trkpt lat="47.25971" lon="-1.54745">
        <ele>13.079198</ele>
        <time>2025-09-02T18:12:42.337Z</time>
      </trkpt>
      <trkpt lat="47.25955" lon="-1.54701">
        <ele>14.175215</ele>
        <time>2025-09-02T18:12:56.891Z</time>
      </trkpt>
      <trkpt lat="47.25929" lon="-1.54615">
        <ele>16.251417</ele>
        <time>2025-09-02T18:13:23.617Z</time>
      </trkpt>
      <trkpt lat="47.25925" lon="-1.54603">
        <ele>16.530475</ele>
        <time>2025-09-02T18:13:26.970Z</time>
      </trkpt>
      <trkpt lat="47.25921" lon="-1.54578">
        <ele>17.099821</ele>
        <time>2025-09-02T18:13:33.402Z</time>
      </trkpt>
      <trkpt lat="47.25913" lon="-1.54562">
        <ele>17.545142</ele>
        <time>2025-09-02T18:13:38.435Z</time>
      </trkpt>
      <trkpt lat="47.25909" lon="-1.54563">
        <ele>17.655127</ele>
        <time>2025-09-02T18:13:39.550Z</time>
      </trkpt>
      <trkpt lat="47.25903" lon="-1.54559">
        <ele>17.883624</ele>
        <time>2025-09-02T18:13:42.012Z</time>
      </trkpt>
      <trkpt lat="47.25891" lon="-1.54527">
        <ele>18.025002</ele>
        <time>2025-09-02T18:13:50.283Z</time>
      </trkpt>
      <trkpt lat="47.25884" lon="-1.54517">
        <ele>18.04207</ele>
        <time>2025-09-02T18:13:53.294Z</time>
      </trkpt>
      <trkpt lat="47.25872" lon="-1.5453">
        <ele>18.067804</ele>
        <time>2025-09-02T18:13:57.573Z</time>
      </trkpt>
      <trkpt lat="47.25848" lon="-1.54503">
        <ele>18.122847</ele>
        <time>2025-09-02T18:14:06.002Z</time>
      </trkpt>
      <trkpt lat="47.25814" lon="-1.54471">
        <ele>18.19584</ele>
        <time>2025-09-02T18:14:14.652Z</time>
      </trkpt>
      <trkpt lat="47.25758" lon="-1.54418">
        <ele>18.261417</ele>
        <time>2025-09-02T18:14:27.385Z</time>
      </trkpt>
      <trkpt lat="47.25731" lon="-1.54385">
        <ele>17.715126</ele>
        <time>2025-09-02T18:14:33.818Z</time>
      </trkpt>
      <trkpt lat="47.25704" lon="-1.54339">
        <ele>17.056036</ele>
        <time>2025-09-02T18:14:41.589Z</time>
      </trkpt>
      <trkpt lat="47.25652" lon="-1.54222">
        <ele>15.56002</ele>
        <time>2025-09-02T18:14:59.336Z</time>
      </trkpt>
      <trkpt lat="47.25635" lon="-1.54177">
        <ele>14.875173</ele>
        <time>2025-09-02T18:15:06.465Z</time>
      </trkpt>
      <trkpt lat="47.25627" lon="-1.54159">
        <ele>14.589477</ele>
        <time>2025-09-02T18:15:09.230Z</time>
      </trkpt>
      <trkpt lat="47.25624" lon="-1.54161">
        <ele>14.518428</ele>
        <time>2025-09-02T18:15:09.908Z</time>
      </trkpt>
      <trkpt lat="47.25623" lon="-1.54167">
        <ele>14.432213</ele>
        <time>2025-09-02T18:15:10.697Z</time>
      </trkpt>
      <trkpt lat="47.25628" lon="-1.54182">
        <ele>14.195826</ele>
        <time>2025-09-02T18:15:13.004Z</time>
      </trkpt>
      <trkpt lat="47.25654" lon="-1.54246">
        <ele>13.165321</ele>
        <time>2025-09-02T18:15:22.413Z</time>
      </trkpt>
      <trkpt lat="47.25658" lon="-1.54269">
        <ele>12.845299</ele>
        <time>2025-09-02T18:15:25.252Z</time>
      </trkpt>
      <trkpt lat="47.25664" lon="-1.5431">
        <ele>12.259897</ele>
        <time>2025-09-02T18:15:30.364Z</time>
      </trkpt>
      <trkpt lat="47.25665" lon="-1.54314">
        <ele>12.198213</ele>
        <time>2025-09-02T18:15:30.911Z</time>
      </trkpt>
      <trkpt lat="47.25671" lon="-1.54315">
        <ele>12.088388</ele>
        <time>2025-09-02T18:15:31.886Z</time>
      </trkpt>
      <trkpt lat="47.25682" lon="-1.54473">
        <ele>8.961587</ele>
        <time>2025-09-02T18:15:50.006Z</time>
      </trkpt>
      <trkpt lat="47.25669" lon="-1.54532">
        <ele>7.688372</ele>
        <time>2025-09-02T18:15:57.232Z</time>
      </trkpt>
      <trkpt lat="47.25672" lon="-1.54598">
        <ele>6.377475</ele>
        <time>2025-09-02T18:16:05.227Z</time>
      </trkpt>
      <trkpt lat="47.25678" lon="-1.54628">
        <ele>6.137701</ele>
        <time>2025-09-02T18:16:09.161Z</time>
      </trkpt>
      <trkpt lat="47.25699" lon="-1.54686">
        <ele>5.643967</ele>
        <time>2025-09-02T18:16:17.594Z</time>
      </trkpt>
      <trkpt lat="47.25722" lon="-1.54957">
        <ele>4.262587</ele>
        <time>2025-09-02T18:16:55.713Z</time>
      </trkpt>
      <trkpt lat="47.25745" lon="-1.55161">
        <ele>4.372804</ele>
        <time>2025-09-02T18:17:28.046Z</time>
      </trkpt>
      <trkpt lat="47.25762" lon="-1.55304">
        <ele>5.192542</ele>
        <time>2025-09-02T18:17:52.870Z</time>
      </trkpt>
      <trkpt lat="47.25767" lon="-1.55423">
        <ele>6.315375</ele>
        <time>2025-09-02T18:18:16.834Z</time>
      </trkpt>
      <trkpt lat="47.25772" lon="-1.55465">
        <ele>6.944201</ele>
        <time>2025-09-02T18:18:27.742Z</time>
      </trkpt>
      <trkpt lat="47.25786" lon="-1.55496">
        <ele>7.499921</ele>
        <time>2025-09-02T18:18:37.303Z</time>
      </trkpt>
      <trkpt lat="47.25787" lon="-1.55509">
        <ele>7.693229</ele>
        <time>2025-09-02T18:18:40.451Z</time>
      </trkpt>
      <trkpt lat="47.25783" lon="-1.55523">
        <ele>7.925075</ele>
        <time>2025-09-02T18:18:44.119Z</time>
      </trkpt>
      <trkpt lat="47.25766" lon="-1.55559">
        <ele>8.564101</ele>
        <time>2025-09-02T18:18:54.140Z</time>
      </trkpt>
      <trkpt lat="47.25771" lon="-1.55584">
        <ele>8.950187</ele>
        <time>2025-09-02T18:18:59.905Z</time>
      </trkpt>
      <trkpt lat="47.25771" lon="-1.55608">
        <ele>9.311882</ele>
        <time>2025-09-02T18:19:05.269Z</time>
      </trkpt>
      <trkpt lat="47.25764" lon="-1.55608">
        <ele>9.445317</ele>
        <time>2025-09-02T18:19:07.438Z</time>
      </trkpt>
      <trkpt lat="47.25764" lon="-1.55584">
        <ele>9.642047</ele>
        <time>2025-09-02T18:19:13.045Z</time>
      </trkpt>
      <trkpt lat="47.2575" lon="-1.55529">
        <ele>10.03274</ele>
        <time>2025-09-02T18:19:26.816Z</time>
      </trkpt>
      <trkpt lat="47.25723" lon="-1.55478">
        <ele>10.464548</ele>
        <time>2025-09-02T18:19:39.501Z</time>
      </trkpt>
      <trkpt lat="47.25691" lon="-1.55408">
        <ele>11.025798</ele>
        <time>2025-09-02T18:19:54.291Z</time>
      </trkpt>
      <trkpt lat="47.25638" lon="-1.55309">
        <ele>11.043899</ele>
        <time>2025-09-02T18:20:17.763Z</time>
      </trkpt>
      <trkpt lat="47.2561" lon="-1.55241">
        <ele>10.835183</ele>
        <time>2025-09-02T18:20:30.657Z</time>
      </trkpt>
      <trkpt lat="47.25541" lon="-1.55141">
        <ele>10.094004</ele>
        <time>2025-09-02T18:20:51.887Z</time>
      </trkpt>
      <trkpt lat="47.25523" lon="-1.55068">
        <ele>9.276442</ele>
        <time>2025-09-02T18:21:03.005Z</time>
      </trkpt>
      <trkpt lat="47.25495" lon="-1.5496">
        <ele>8.050612</ele>
        <time>2025-09-02T18:21:19.443Z</time>
      </trkpt>
      <trkpt lat="47.25494" lon="-1.54914">
        <ele>7.719289</ele>
        <time>2025-09-02T18:21:26.120Z</time>
      </trkpt>
      <trkpt lat="47.25496" lon="-1.5488">
        <ele>7.631978</ele>
        <time>2025-09-02T18:21:31.104Z</time>
      </trkpt>
      <trkpt lat="47.25498" lon="-1.54765">
        <ele>7.333992</ele>
        <time>2025-09-02T18:21:49.372Z</time>
      </trkpt>
      <trkpt lat="47.25496" lon="-1.54751">
        <ele>7.297224</ele>
        <time>2025-09-02T18:21:51.958Z</time>
      </trkpt>
      <trkpt lat="47.2549" lon="-1.54742">
        <ele>7.265845</ele>
        <time>2025-09-02T18:21:54.244Z</time>
      </trkpt>
      <trkpt lat="47.25478" lon="-1.54735">
        <ele>7.217728</ele>
        <time>2025-09-02T18:21:57.593Z</time>
      </trkpt>
      <trkpt lat="47.25474" lon="-1.54727">
        <ele>7.191673</ele>
        <time>2025-09-02T18:21:59.395Z</time>
      </trkpt>
      <trkpt lat="47.25478" lon="-1.54666">
        <ele>7.260957</ele>
        <time>2025-09-02T18:22:10.631Z</time>
      </trkpt>
      <trkpt lat="47.2548" lon="-1.54659">
        <ele>7.330669</ele>
        <time>2025-09-02T18:22:12.222Z</time>
      </trkpt>
      <trkpt lat="47.255" lon="-1.54627">
        <ele>7.69389</ele>
        <time>2025-09-02T18:22:20.904Z</time>
      </trkpt>
      <trkpt lat="47.25504" lon="-1.54614">
        <ele>7.819401</ele>
        <time>2025-09-02T18:22:24.053Z</time>
      </trkpt>
      <trkpt lat="47.25517" lon="-1.54606">
        <ele>7.992265</ele>
        <time>2025-09-02T18:22:28.476Z</time>
      </trkpt>
      <trkpt lat="47.25524" lon="-1.54599">
        <ele>8.094848</ele>
        <time>2025-09-02T18:22:31.135Z</time>
      </trkpt>
      <trkpt lat="47.25529" lon="-1.54584">
        <ele>8.235093</ele>
        <time>2025-09-02T18:22:34.773Z</time>
      </trkpt>
      <trkpt lat="47.2553" lon="-1.54563">
        <ele>8.417323</ele>
        <time>2025-09-02T18:22:39.545Z</time>
      </trkpt>
      <trkpt lat="47.25526" lon="-1.5452">
        <ele>8.782505</ele>
        <time>2025-09-02T18:22:49.298Z</time>
      </trkpt>
      <trkpt lat="47.25518" lon="-1.54481">
        <ele>9.129454</ele>
        <time>2025-09-02T18:22:58.798Z</time>
      </trkpt>
      <trkpt lat="47.25508" lon="-1.54453">
        <ele>9.321197</ele>
        <time>2025-09-02T18:23:05.366Z</time>
      </trkpt>
      <trkpt lat="47.25502" lon="-1.5444">
        <ele>9.29981</ele>
        <time>2025-09-02T18:23:08.489Z</time>
      </trkpt>
      <trkpt lat="47.25501" lon="-1.54428">
        <ele>9.282489</ele>
        <time>2025-09-02T18:23:10.973Z</time>
      </trkpt>
      <trkpt lat="47.25495" lon="-1.54383">
        <ele>9.215791</ele>
        <time>2025-09-02T18:23:20.398Z</time>
      </trkpt>
      <trkpt lat="47.25485" lon="-1.54347">
        <ele>9.160777</ele>
        <time>2025-09-02T18:23:27.609Z</time>
      </trkpt>
      <trkpt lat="47.25485" lon="-1.54337">
        <ele>9.146319</ele>
        <time>2025-09-02T18:23:29.458Z</time>
      </trkpt>
      <trkpt lat="47.25496" lon="-1.54307">
        <ele>9.098136</ele>
        <time>2025-09-02T18:23:34.985Z</time>
      </trkpt>
      <trkpt lat="47.25496" lon="-1.54299">
        <ele>9.086426</ele>
        <time>2025-09-02T18:23:36.320Z</time>
      </trkpt>
      <trkpt lat="47.25486" lon="-1.54257">
        <ele>9.022065</ele>
        <time>2025-09-02T18:23:43.259Z</time>
      </trkpt>
      <trkpt lat="47.25485" lon="-1.54252">
        <ele>9.014636</ele>
        <time>2025-09-02T18:23:44.044Z</time>
      </trkpt>
      <trkpt lat="47.25476" lon="-1.54183">
        <ele>8.520655</ele>
        <time>2025-09-02T18:23:53.809Z</time>
      </trkpt>
      <trkpt lat="47.25477" lon="-1.54155">
        <ele>8.088706</ele>
        <time>2025-09-02T18:23:57.384Z</time>
      </trkpt>
      <trkpt lat="47.25485" lon="-1.54093">
        <ele>7.096721</ele>
        <time>2025-09-02T18:24:05.666Z</time>
      </trkpt>
      <trkpt lat="47.25486" lon="-1.54065">
        <ele>6.657073</ele>
        <time>2025-09-02T18:24:09.396Z</time>
      </trkpt>
      <trkpt lat="47.25479" lon="-1.54049">
        <ele>6.348243</ele>
        <time>2025-09-02T18:24:12.069Z</time>
      </trkpt>
      <trkpt lat="47.25464" lon="-1.54038">
        <ele>5.955566</ele>
        <time>2025-09-02T18:24:15.564Z</time>
      </trkpt>
      <trkpt lat="47.25445" lon="-1.54023">
        <ele>5.469002</ele>
        <time>2025-09-02T18:24:19.905Z</time>
      </trkpt>
      <trkpt lat="47.25444" lon="-1.54016">
        <ele>5.358056</ele>
        <time>2025-09-02T18:24:20.906Z</time>
      </trkpt>
      <trkpt lat="47.25432" lon="-1.54019">
        <ele>5.077621</ele>
        <time>2025-09-02T18:24:23.159Z</time>
      </trkpt>
      <trkpt lat="47.25404" lon="-1.54026">
        <ele>4.683318</ele>
        <time>2025-09-02T18:24:28.498Z</time>
      </trkpt>
      <trkpt lat="47.25374" lon="-1.54033">
        <ele>4.464413</ele>
        <time>2025-09-02T18:24:34.475Z</time>
      </trkpt>
      <trkpt lat="47.25369" lon="-1.54034">
        <ele>4.43102</ele>
        <time>2025-09-02T18:24:35.435Z</time>
      </trkpt>
      <trkpt lat="47.25358" lon="-1.54037">
        <ele>4.350869</ele>
        <time>2025-09-02T18:24:37.725Z</time>
      </trkpt>
      <trkpt lat="47.25337" lon="-1.54041">
        <ele>4.2056</ele>
        <time>2025-09-02T18:24:42.073Z</time>
      </trkpt>
      <trkpt lat="47.2533" lon="-1.54043">
        <ele>4.156407</ele>
        <time>2025-09-02T18:24:43.601Z</time>
      </trkpt>
      <trkpt lat="47.25259" lon="-1.54062">
        <ele>3.645932</ele>
        <time>2025-09-02T18:24:59.987Z</time>
      </trkpt>
      <trkpt lat="47.2519" lon="-1.54082">
        <ele>3.446795</ele>
        <time>2025-09-02T18:25:14.519Z</time>
      </trkpt>
      <trkpt lat="47.25182" lon="-1.54087">
        <ele>3.432034</ele>
        <time>2025-09-02T18:25:16.427Z</time>
      </trkpt>
      <trkpt lat="47.25174" lon="-1.54096">
        <ele>3.416545</ele>
        <time>2025-09-02T18:25:18.510Z</time>
      </trkpt>
      <trkpt lat="47.25166" lon="-1.54095">
        <ele>3.403142</ele>
        <time>2025-09-02T18:25:20.243Z</time>
      </trkpt>
      <trkpt lat="47.25154" lon="-1.54087">
        <ele>3.381912</ele>
        <time>2025-09-02T18:25:23.002Z</time>
      </trkpt>
      <trkpt lat="47.25122" lon="-1.54106">
        <ele>3.326598</ele>
        <time>2025-09-02T18:25:31.126Z</time>
      </trkpt>
      <trkpt lat="47.25117" lon="-1.5411">
        <ele>3.317647</ele>
        <time>2025-09-02T18:25:32.482Z</time>
      </trkpt>
      <trkpt lat="47.25092" lon="-1.54126">
        <ele>3.273397</ele>
        <time>2025-09-02T18:25:39.053Z</time>
      </trkpt>
      <trkpt lat="47.25071" lon="-1.54144">
        <ele>3.312717</ele>
        <time>2025-09-02T18:25:45.002Z</time>
      </trkpt>
      <trkpt lat="47.25" lon="-1.54228">
        <ele>4.302116</ele>
        <time>2025-09-02T18:26:14.550Z</time>
      </trkpt>
      <trkpt lat="47.2497" lon="-1.54266">
        <ele>4.735494</ele>
        <time>2025-09-02T18:26:27.841Z</time>
      </trkpt>
      <trkpt lat="47.24955" lon="-1.54288">
        <ele>4.962905</ele>
        <time>2025-09-02T18:26:34.670Z</time>
      </trkpt>
      <trkpt lat="47.24809" lon="-1.54457">
        <ele>5.331494</ele>
        <time>2025-09-02T18:27:21.773Z</time>
      </trkpt>
      <trkpt lat="47.24775" lon="-1.54491">
        <ele>5.308557</ele>
        <time>2025-09-02T18:27:31.264Z</time>
      </trkpt>
      <trkpt lat="47.2475" lon="-1.54526">
        <ele>5.260076</ele>
        <time>2025-09-02T18:27:39.020Z</time>
      </trkpt>
      <trkpt lat="47.24736" lon="-1.54538">
        <ele>5.237737</ele>
        <time>2025-09-02T18:27:42.630Z</time>
      </trkpt>
      <trkpt lat="47.2473" lon="-1.54543">
        <ele>5.228108</ele>
        <time>2025-09-02T18:27:44.286Z</time>
      </trkpt>
      <trkpt lat="47.24718" lon="-1.54554">
        <ele>5.20868</ele>
        <time>2025-09-02T18:27:47.582Z</time>
      </trkpt>
      <trkpt lat="47.24642" lon="-1.54592">
        <ele>5.09498</ele>
        <time>2025-09-02T18:28:08.205Z</time>
      </trkpt>
      <trkpt lat="47.24632" lon="-1.54601">
        <ele>5.148505</ele>
        <time>2025-09-02T18:28:11.564Z</time>
      </trkpt>
      <trkpt lat="47.24625" lon="-1.54604">
        <ele>5.192376</ele>
        <time>2025-09-02T18:28:13.526Z</time>
      </trkpt>
      <trkpt lat="47.24564" lon="-1.54613">
        <ele>5.57767</ele>
        <time>2025-09-02T18:28:31.258Z</time>
      </trkpt>
      <trkpt lat="47.24532" lon="-1.5463">
        <ele>5.790216</ele>
        <time>2025-09-02T18:28:42.040Z</time>
      </trkpt>
      <trkpt lat="47.2451" lon="-1.5464">
        <ele>5.934247</ele>
        <time>2025-09-02T18:28:48.860Z</time>
      </trkpt>
      <trkpt lat="47.24489" lon="-1.54654">
        <ele>6.080812</ele>
        <time>2025-09-02T18:28:55.267Z</time>
      </trkpt>
      <trkpt lat="47.24465" lon="-1.54675">
        <ele>6.198773</ele>
        <time>2025-09-02T18:29:02.125Z</time>
      </trkpt>
      <trkpt lat="47.24368" lon="-1.54735">
        <ele>5.812998</ele>
        <time>2025-09-02T18:29:26.881Z</time>
      </trkpt>
      <trkpt lat="47.24344" lon="-1.54758">
        <ele>5.709689</ele>
        <time>2025-09-02T18:29:33.093Z</time>
      </trkpt>
      <trkpt lat="47.24337" lon="-1.54766">
        <ele>5.67756</ele>
        <time>2025-09-02T18:29:35.038Z</time>
      </trkpt>
      <trkpt lat="47.24328" lon="-1.54787">
        <ele>5.614844</ele>
        <time>2025-09-02T18:29:39.025Z</time>
      </trkpt>
      <trkpt lat="47.24327" lon="-1.54793">
        <ele>5.599666</ele>
        <time>2025-09-02T18:29:40.010Z</time>
      </trkpt>
      <trkpt lat="47.24317" lon="-1.54797">
        <ele>5.562023</ele>
        <time>2025-09-02T18:29:42.166Z</time>
      </trkpt>
      <trkpt lat="47.24269" lon="-1.54815">
        <ele>5.671738</ele>
        <time>2025-09-02T18:29:53.302Z</time>
      </trkpt>
      <trkpt lat="47.24269" lon="-1.54834">
        <ele>5.700037</ele>
        <time>2025-09-02T18:29:58.055Z</time>
      </trkpt>
      <trkpt lat="47.2427" lon="-1.54865">
        <ele>5.747739</ele>
        <time>2025-09-02T18:30:06.294Z</time>
      </trkpt>
      <trkpt lat="47.24273" lon="-1.54893">
        <ele>5.791596</ele>
        <time>2025-09-02T18:30:13.972Z</time>
      </trkpt>
      <trkpt lat="47.24284" lon="-1.54919">
        <ele>5.838558</ele>
        <time>2025-09-02T18:30:22.241Z</time>
      </trkpt>
      <trkpt lat="47.24298" lon="-1.54947">
        <ele>5.892717</ele>
        <time>2025-09-02T18:30:31.797Z</time>
      </trkpt>
      <trkpt lat="47.24306" lon="-1.54997">
        <ele>5.97074</ele>
        <time>2025-09-02T18:30:45.454Z</time>
      </trkpt>
      <trkpt lat="47.243" lon="-1.55084">
        <ele>6.070492</ele>
        <time>2025-09-02T18:31:07.904Z</time>
      </trkpt>
      <trkpt lat="47.24301" lon="-1.55146">
        <ele>6.140271</ele>
        <time>2025-09-02T18:31:23.242Z</time>
      </trkpt>
      <trkpt lat="47.243" lon="-1.55181">
        <ele>6.180434</ele>
        <time>2025-09-02T18:31:32.071Z</time>
      </trkpt>
      <trkpt lat="47.24295" lon="-1.55223">
        <ele>6.228617</ele>
        <time>2025-09-02T18:31:42.898Z</time>
      </trkpt>
      <trkpt lat="47.24284" lon="-1.55309">
        <ele>6.787951</ele>
        <time>2025-09-02T18:31:58.848Z</time>
      </trkpt>
      <trkpt lat="47.24285" lon="-1.55327">
        <ele>6.96018</ele>
        <time>2025-09-02T18:32:02.186Z</time>
      </trkpt>
      <trkpt lat="47.24291" lon="-1.55345">
        <ele>7.165868</ele>
        <time>2025-09-02T18:32:06.206Z</time>
      </trkpt>
      <trkpt lat="47.24292" lon="-1.55371">
        <ele>7.421564</ele>
        <time>2025-09-02T18:32:10.935Z</time>
      </trkpt>
      <trkpt lat="47.24273" lon="-1.55369">
        <ele>7.707732</ele>
        <time>2025-09-02T18:32:16.439Z</time>
      </trkpt>
      <trkpt lat="47.24254" lon="-1.55367">
        <ele>7.988179</ele>
        <time>2025-09-02T18:32:22.283Z</time>
      </trkpt>
      <trkpt lat="47.24248" lon="-1.55384">
        <ele>8.177136</ele>
        <time>2025-09-02T18:32:26.405Z</time>
      </trkpt>
      <trkpt lat="47.24233" lon="-1.5545">
        <ele>8.879527</ele>
        <time>2025-09-02T18:32:43.352Z</time>
      </trkpt>
      <trkpt lat="47.24232" lon="-1.55507">
        <ele>9.464559</ele>
        <time>2025-09-02T18:32:58.056Z</time>
      </trkpt>
      <trkpt lat="47.24194" lon="-1.55625">
        <ele>10.822858</ele>
        <time>2025-09-02T18:33:26.159Z</time>
      </trkpt>
      <trkpt lat="47.24191" lon="-1.55628">
        <ele>10.87888</ele>
        <time>2025-09-02T18:33:27.169Z</time>
      </trkpt>
      <trkpt lat="47.24187" lon="-1.55629">
        <ele>10.939789</ele>
        <time>2025-09-02T18:33:28.221Z</time>
      </trkpt>
      <trkpt lat="47.24201" lon="-1.5566">
        <ele>11.318513</ele>
        <time>2025-09-02T18:33:34.440Z</time>
      </trkpt>
      <trkpt lat="47.24229" lon="-1.55658">
        <ele>11.704449</ele>
        <time>2025-09-02T18:33:40.863Z</time>
      </trkpt>
      <trkpt lat="47.24232" lon="-1.55736">
        <ele>12.06626</ele>
        <time>2025-09-02T18:33:59.534Z</time>
      </trkpt>
      <trkpt lat="47.24239" lon="-1.55757">
        <ele>12.176824</ele>
        <time>2025-09-02T18:34:05.015Z</time>
      </trkpt>
      <trkpt lat="47.24252" lon="-1.55926">
        <ele>13.168412</ele>
        <time>2025-09-02T18:34:53.199Z</time>
      </trkpt>
      <trkpt lat="47.24258" lon="-1.55968">
        <ele>13.961601</ele>
        <time>2025-09-02T18:35:09.246Z</time>
      </trkpt>
      <trkpt lat="47.24272" lon="-1.56042">
        <ele>15.412348</ele>
        <time>2025-09-02T18:35:38.552Z</time>
      </trkpt>
      <trkpt lat="47.24262" lon="-1.56054">
        <ele>15.770639</ele>
        <time>2025-09-02T18:35:45.693Z</time>
      </trkpt>
      <trkpt lat="47.24265" lon="-1.56071">
        <ele>16.086263</ele>
        <time>2025-09-02T18:35:51.997Z</time>
      </trkpt>
      <trkpt lat="47.24273" lon="-1.56096">
        <ele>16.610149</ele>
        <time>2025-09-02T18:36:02.295Z</time>
      </trkpt>
      <trkpt lat="47.24286" lon="-1.5612">
        <ele>17.173994</ele>
        <time>2025-09-02T18:36:13.093Z</time>
      </trkpt>
      <trkpt lat="47.2432" lon="-1.56156">
        <ele>17.822232</ele>
        <time>2025-09-02T18:36:33.582Z</time>
      </trkpt>
      <trkpt lat="47.24326" lon="-1.56165">
        <ele>17.813973</ele>
        <time>2025-09-02T18:36:37.472Z</time>
      </trkpt>
      <trkpt lat="47.24364" lon="-1.56222">
        <ele>17.762991</ele>
        <time>2025-09-02T18:36:57.085Z</time>
      </trkpt>
      <trkpt lat="47.24371" lon="-1.56244">
        <ele>17.747754</ele>
        <time>2025-09-02T18:37:02.495Z</time>
      </trkpt>
      <trkpt lat="47.24374" lon="-1.56266">
        <ele>17.73308</ele>
        <time>2025-09-02T18:37:07.692Z</time>
      </trkpt>
      <trkpt lat="47.24372" lon="-1.56293">
        <ele>17.715604</ele>
        <time>2025-09-02T18:37:13.927Z</time>
      </trkpt>
      <trkpt lat="47.24372" lon="-1.56305">
        <ele>17.708353</ele>
        <time>2025-09-02T18:37:16.511Z</time>
      </trkpt>
      <trkpt lat="47.24365" lon="-1.56336">
        <ele>17.687473</ele>
        <time>2025-09-02T18:37:24.013Z</time>
      </trkpt>
      <trkpt lat="47.24365" lon="-1.56362">
        <ele>17.670842</ele>
        <time>2025-09-02T18:37:30.077Z</time>
      </trkpt>
      <trkpt lat="47.24367" lon="-1.56408">
        <ele>17.85435</ele>
        <time>2025-09-02T18:37:41.503Z</time>
      </trkpt>
      <trkpt lat="47.24364" lon="-1.56424">
        <ele>17.928681</ele>
        <time>2025-09-02T18:37:46.155Z</time>
      </trkpt>
      <trkpt lat="47.24358" lon="-1.56436">
        <ele>17.987814</ele>
        <time>2025-09-02T18:37:49.830Z</time>
      </trkpt>
      <trkpt lat="47.24351" lon="-1.56453">
        <ele>18.075598</ele>
        <time>2025-09-02T18:37:55.322Z</time>
      </trkpt>
      <trkpt lat="47.24348" lon="-1.56473">
        <ele>18.161772</ele>
        <time>2025-09-02T18:38:00.816Z</time>
      </trkpt>
      <trkpt lat="47.24353" lon="-1.56495">
        <ele>18.257269</ele>
        <time>2025-09-02T18:38:07.102Z</time>
      </trkpt>
      <trkpt lat="47.24347" lon="-1.56512">
        <ele>18.338782</ele>
        <time>2025-09-02T18:38:12.638Z</time>
      </trkpt>
      <trkpt lat="47.24348" lon="-1.56514">
        <ele>18.352498</ele>
        <time>2025-09-02T18:38:13.556Z</time>
      </trkpt>
      <trkpt lat="47.24335" lon="-1.56529">
        <ele>18.456973</ele>
        <time>2025-09-02T18:38:20.868Z</time>
      </trkpt>
      <trkpt lat="47.24327" lon="-1.56553">
        <ele>18.571971</ele>
        <time>2025-09-02T18:38:29.120Z</time>
      </trkpt>
      <trkpt lat="47.24338" lon="-1.56641">
        <ele>18.550438</ele>
        <time>2025-09-02T18:38:56.201Z</time>
      </trkpt>
      <trkpt lat="47.24341" lon="-1.56682">
        <ele>18.280202</ele>
        <time>2025-09-02T18:39:08.164Z</time>
      </trkpt>
      <trkpt lat="47.24342" lon="-1.5671">
        <ele>18.096136</ele>
        <time>2025-09-02T18:39:15.548Z</time>
      </trkpt>
      <trkpt lat="47.2435" lon="-1.5677">
        <ele>17.692517</ele>
        <time>2025-09-02T18:39:29.609Z</time>
      </trkpt>
      <trkpt lat="47.24358" lon="-1.56806">
        <ele>17.441984</ele>
        <time>2025-09-02T18:39:37.914Z</time>
      </trkpt>
      <trkpt lat="47.2437" lon="-1.56867">
        <ele>17.010424</ele>
        <time>2025-09-02T18:39:51.003Z</time>
      </trkpt>
      <trkpt lat="47.2439" lon="-1.56912">
        <ele>16.334226</ele>
        <time>2025-09-02T18:40:02.021Z</time>
      </trkpt>
      <trkpt lat="47.24475" lon="-1.57057">
        <ele>13.964186</ele>
        <time>2025-09-02T18:40:44.014Z</time>
      </trkpt>
      <trkpt lat="47.24486" lon="-1.57082">
        <ele>13.940794</ele>
        <time>2025-09-02T18:40:53.199Z</time>
      </trkpt>
      <trkpt lat="47.24494" lon="-1.57105">
        <ele>14.215905</ele>
        <time>2025-09-02T18:41:01.684Z</time>
      </trkpt>
      <trkpt lat="47.24481" lon="-1.57179">
        <ele>15.039887</ele>
        <time>2025-09-02T18:41:27.707Z</time>
      </trkpt>
      <trkpt lat="47.24475" lon="-1.57238">
        <ele>15.676572</ele>
        <time>2025-09-02T18:41:47.520Z</time>
      </trkpt>
      <trkpt lat="47.24476" lon="-1.57268">
        <ele>16.002772</ele>
        <time>2025-09-02T18:41:57.557Z</time>
      </trkpt>
      <trkpt lat="47.24481" lon="-1.57296">
        <ele>16.312496</ele>
        <time>2025-09-02T18:42:06.564Z</time>
      </trkpt>
      <trkpt lat="47.24505" lon="-1.57332">
        <ele>16.532051</ele>
        <time>2025-09-02T18:42:21.367Z</time>
      </trkpt>
      <trkpt lat="47.24512" lon="-1.5735">
        <ele>16.441489</ele>
        <time>2025-09-02T18:42:26.783Z</time>
      </trkpt>
      <trkpt lat="47.24513" lon="-1.57392">
        <ele>16.254748</ele>
        <time>2025-09-02T18:42:37.244Z</time>
      </trkpt>
      <trkpt lat="47.24513" lon="-1.57425">
        <ele>16.103385</ele>
        <time>2025-09-02T18:42:45.038Z</time>
      </trkpt>
      <trkpt lat="47.24516" lon="-1.57447">
        <ele>16.002359</ele>
        <time>2025-09-02T18:42:50.112Z</time>
      </trkpt>
      <trkpt lat="47.24538" lon="-1.57506">
        <ele>15.701744</ele>
        <time>2025-09-02T18:43:06.171Z</time>
      </trkpt>
      <trkpt lat="47.24545" lon="-1.57517">
        <ele>15.632405</ele>
        <time>2025-09-02T18:43:09.988Z</time>
      </trkpt>
      <trkpt lat="47.24583" lon="-1.5754">
        <ele>15.154877</ele>
        <time>2025-09-02T18:43:23.433Z</time>
      </trkpt>
      <trkpt lat="47.2461" lon="-1.57576">
        <ele>14.262878</ele>
        <time>2025-09-02T18:43:34.830Z</time>
      </trkpt>
      <trkpt lat="47.2467" lon="-1.57637">
        <ele>12.4822</ele>
        <time>2025-09-02T18:43:57.276Z</time>
      </trkpt>
      <trkpt lat="47.24678" lon="-1.57629">
        <ele>12.246081</ele>
        <time>2025-09-02T18:44:00.427Z</time>
      </trkpt>
      <trkpt lat="47.24681" lon="-1.57625">
        <ele>12.146882</ele>
        <time>2025-09-02T18:44:01.748Z</time>
      </trkpt>
      <trkpt lat="47.24716" lon="-1.57698">
        <ele>10.902608</ele>
        <time>2025-09-02T18:44:12.732Z</time>
      </trkpt>
      <trkpt lat="47.24729" lon="-1.57714">
        <ele>10.725906</ele>
        <time>2025-09-02T18:44:16.007Z</time>
      </trkpt>
      <trkpt lat="47.2475" lon="-1.57714">
        <ele>10.517632</ele>
        <time>2025-09-02T18:44:20.459Z</time>
      </trkpt>
      <trkpt lat="47.24753" lon="-1.57747">
        <ele>10.285899</ele>
        <time>2025-09-02T18:44:24.963Z</time>
      </trkpt>
      <trkpt lat="47.24757" lon="-1.57746">
        <ele>10.241589</ele>
        <time>2025-09-02T18:44:25.861Z</time>
      </trkpt>
      <trkpt lat="47.24765" lon="-1.57744">
        <ele>10.161377</ele>
        <time>2025-09-02T18:44:27.425Z</time>
      </trkpt>
      <trkpt lat="47.24772" lon="-1.57742">
        <ele>10.086337</ele>
        <time>2025-09-02T18:44:28.911Z</time>
      </trkpt>
      <trkpt lat="47.24781" lon="-1.57771">
        <ele>9.86766</ele>
        <time>2025-09-02T18:44:33.235Z</time>
      </trkpt>
      <trkpt lat="47.24829" lon="-1.57832">
        <ele>9.224194</ele>
        <time>2025-09-02T18:44:46.423Z</time>
      </trkpt>
      <trkpt lat="47.24838" lon="-1.57843">
        <ele>9.257716</ele>
        <time>2025-09-02T18:44:48.809Z</time>
      </trkpt>
      <trkpt lat="47.24869" lon="-1.57883">
        <ele>9.385494</ele>
        <time>2025-09-02T18:44:57.965Z</time>
      </trkpt>
      <trkpt lat="47.24883" lon="-1.57916">
        <ele>9.465264</ele>
        <time>2025-09-02T18:45:03.756Z</time>
      </trkpt>
      <trkpt lat="47.24896" lon="-1.57928">
        <ele>9.511884</ele>
        <time>2025-09-02T18:45:07.323Z</time>
      </trkpt>
      <trkpt lat="47.24921" lon="-1.57895">
        <ele>9.615726</ele>
        <time>2025-09-02T18:45:16.524Z</time>
      </trkpt>
      <trkpt lat="47.24927" lon="-1.57884">
        <ele>9.644479</ele>
        <time>2025-09-02T18:45:20.277Z</time>
      </trkpt>
      <trkpt lat="47.2493" lon="-1.5788">
        <ele>9.656246</ele>
        <time>2025-09-02T18:45:21.403Z</time>
      </trkpt>
      <trkpt lat="47.24941" lon="-1.57882">
        <ele>9.691804</ele>
        <time>2025-09-02T18:45:24.817Z</time>
      </trkpt>
      <trkpt lat="47.24952" lon="-1.57897">
        <ele>9.735293</ele>
        <time>2025-09-02T18:45:29.088Z</time>
      </trkpt>
      <trkpt lat="47.24957" lon="-1.5791">
        <ele>9.767307</ele>
        <time>2025-09-02T18:45:32.328Z</time>
      </trkpt>
      <trkpt lat="47.24959" lon="-1.57927">
        <ele>9.82283</ele>
        <time>2025-09-02T18:45:36.190Z</time>
      </trkpt>
      <trkpt lat="47.25009" lon="-1.58002">
        <ele>10.165646</ele>
        <time>2025-09-02T18:45:56.870Z</time>
      </trkpt>
      <trkpt lat="47.25039" lon="-1.58024">
        <ele>10.325788</ele>
        <time>2025-09-02T18:46:05.427Z</time>
      </trkpt>
      <trkpt lat="47.25054" lon="-1.58029">
        <ele>10.398303</ele>
        <time>2025-09-02T18:46:09.146Z</time>
      </trkpt>
      <trkpt lat="47.2507" lon="-1.58041">
        <ele>10.483487</ele>
        <time>2025-09-02T18:46:13.472Z</time>
      </trkpt>
      <trkpt lat="47.25077" lon="-1.58054">
        <ele>10.539073</ele>
        <time>2025-09-02T18:46:16.287Z</time>
      </trkpt>
      <trkpt lat="47.25083" lon="-1.58081">
        <ele>10.632017</ele>
        <time>2025-09-02T18:46:20.996Z</time>
      </trkpt>
      <trkpt lat="47.25084" lon="-1.58094">
        <ele>10.746647</ele>
        <time>2025-09-02T18:46:23.263Z</time>
      </trkpt>
      <trkpt lat="47.25079" lon="-1.58122">
        <ele>11.018044</ele>
        <time>2025-09-02T18:46:28.081Z</time>
      </trkpt>
      <trkpt lat="47.25081" lon="-1.58146">
        <ele>11.249127</ele>
        <time>2025-09-02T18:46:32.342Z</time>
      </trkpt>
      <trkpt lat="47.25086" lon="-1.5817">
        <ele>11.489691</ele>
        <time>2025-09-02T18:46:36.967Z</time>
      </trkpt>
      <trkpt lat="47.251" lon="-1.58211">
        <ele>11.93075</ele>
        <time>2025-09-02T18:46:46.165Z</time>
      </trkpt>
      <trkpt lat="47.25101" lon="-1.58213">
        <ele>11.949387</ele>
        <time>2025-09-02T18:46:46.606Z</time>
      </trkpt>
      <trkpt lat="47.25106" lon="-1.5824">
        <ele>12.224502</ele>
        <time>2025-09-02T18:46:52.883Z</time>
      </trkpt>
      <trkpt lat="47.25106" lon="-1.58262">
        <ele>12.433439</ele>
        <time>2025-09-02T18:46:57.947Z</time>
      </trkpt>
      <trkpt lat="47.25103" lon="-1.583">
        <ele>12.804161</ele>
        <time>2025-09-02T18:47:07.595Z</time>
      </trkpt>
      <trkpt lat="47.25092" lon="-1.58375">
        <ele>13.657093</ele>
        <time>2025-09-02T18:47:28.967Z</time>
      </trkpt>
      <trkpt lat="47.25093" lon="-1.58403">
        <ele>14.015612</ele>
        <time>2025-09-02T18:47:36.784Z</time>
      </trkpt>
      <trkpt lat="47.25103" lon="-1.58452">
        <ele>14.677054</ele>
        <time>2025-09-02T18:47:50.363Z</time>
      </trkpt>
      <trkpt lat="47.25129" lon="-1.5851">
        <ele>15.555913</ele>
        <time>2025-09-02T18:48:06.677Z</time>
      </trkpt>
      <trkpt lat="47.25151" lon="-1.58522">
        <ele>16.012804</ele>
        <time>2025-09-02T18:48:14.276Z</time>
      </trkpt>
      <trkpt lat="47.25177" lon="-1.58556">
        <ele>16.531073</ele>
        <time>2025-09-02T18:48:23.790Z</time>
      </trkpt>
      <trkpt lat="47.25189" lon="-1.5856">
        <ele>16.420673</ele>
        <time>2025-09-02T18:48:26.744Z</time>
      </trkpt>
      <trkpt lat="47.25202" lon="-1.58559">
        <ele>16.296384</ele>
        <time>2025-09-02T18:48:29.926Z</time>
      </trkpt>
      <trkpt lat="47.25236" lon="-1.58547">
        <ele>15.976463</ele>
        <time>2025-09-02T18:48:37.412Z</time>
      </trkpt>
      <trkpt lat="47.25275" lon="-1.58557">
        <ele>15.617885</ele>
        <time>2025-09-02T18:48:45.672Z</time>
      </trkpt>
      <trkpt lat="47.25314" lon="-1.58578">
        <ele>15.247235</ele>
        <time>2025-09-02T18:48:54.550Z</time>
      </trkpt>
      <trkpt lat="47.25318" lon="-1.58582">
        <ele>15.19881</ele>
        <time>2025-09-02T18:48:55.708Z</time>
      </trkpt>
      <trkpt lat="47.25323" lon="-1.58595">
        <ele>15.107071</ele>
        <time>2025-09-02T18:48:57.944Z</time>
      </trkpt>
      <trkpt lat="47.25324" lon="-1.58603">
        <ele>15.055408</ele>
        <time>2025-09-02T18:48:59.201Z</time>
      </trkpt>
      <trkpt lat="47.25323" lon="-1.58623">
        <ele>14.937805</ele>
        <time>2025-09-02T18:49:02.196Z</time>
      </trkpt>
      <trkpt lat="47.25316" lon="-1.58669">
        <ele>15.262561</ele>
        <time>2025-09-02T18:49:09.449Z</time>
      </trkpt>
      <trkpt lat="47.25309" lon="-1.58706">
        <ele>15.527192</ele>
        <time>2025-09-02T18:49:15.525Z</time>
      </trkpt>
      <trkpt lat="47.25289" lon="-1.58771">
        <ele>16.018602</ele>
        <time>2025-09-02T18:49:29.171Z</time>
      </trkpt>
      <trkpt lat="47.2529" lon="-1.58803">
        <ele>16.239672</ele>
        <time>2025-09-02T18:49:37.754Z</time>
      </trkpt>
      <trkpt lat="47.25292" lon="-1.58817">
        <ele>16.337891</ele>
        <time>2025-09-02T18:49:41.817Z</time>
      </trkpt>
      <trkpt lat="47.2529" lon="-1.58829">
        <ele>16.420921</ele>
        <time>2025-09-02T18:49:45.133Z</time>
      </trkpt>
      <trkpt lat="47.25289" lon="-1.58839">
        <ele>16.489636</ele>
        <time>2025-09-02T18:49:47.856Z</time>
      </trkpt>
      <trkpt lat="47.25285" lon="-1.58838">
        <ele>16.525459</ele>
        <time>2025-09-02T18:49:49.117Z</time>
      </trkpt>
      <trkpt lat="47.25277" lon="-1.58835">
        <ele>16.617652</ele>
        <time>2025-09-02T18:49:52.544Z</time>
      </trkpt>
      <trkpt lat="47.25267" lon="-1.5883">
        <ele>16.722291</ele>
        <time>2025-09-02T18:49:56.199Z</time>
      </trkpt>
      <trkpt lat="47.2525" lon="-1.58823">
        <ele>16.926287</ele>
        <time>2025-09-02T18:50:02.439Z</time>
      </trkpt>
      <trkpt lat="47.25244" lon="-1.58832">
        <ele>17.023119</ele>
        <time>2025-09-02T18:50:05.218Z</time>
      </trkpt>
      <trkpt lat="47.25224" lon="-1.58875">
        <ele>17.450889</ele>
        <time>2025-09-02T18:50:17.270Z</time>
      </trkpt>
      <trkpt lat="47.25224" lon="-1.58883">
        <ele>17.516829</ele>
        <time>2025-09-02T18:50:19.255Z</time>
      </trkpt>
      <trkpt lat="47.25226" lon="-1.58889">
        <ele>17.570838</ele>
        <time>2025-09-02T18:50:20.755Z</time>
      </trkpt>
      <trkpt lat="47.25249" lon="-1.58912">
        <ele>17.898937</ele>
        <time>2025-09-02T18:50:30.300Z</time>
      </trkpt>
      <trkpt lat="47.25274" lon="-1.58945">
        <ele>18.301991</ele>
        <time>2025-09-02T18:50:41.122Z</time>
      </trkpt>
      <trkpt lat="47.2533" lon="-1.59005">
        <ele>18.549333</ele>
        <time>2025-09-02T18:50:57.128Z</time>
      </trkpt>
      <trkpt lat="47.25346" lon="-1.59027">
        <ele>18.13985</ele>
        <time>2025-09-02T18:51:01.637Z</time>
      </trkpt>
      <trkpt lat="47.25354" lon="-1.59048">
        <ele>17.82202</ele>
        <time>2025-09-02T18:51:05.047Z</time>
      </trkpt>
      <trkpt lat="47.2537" lon="-1.59063">
        <ele>17.467183</ele>
        <time>2025-09-02T18:51:08.791Z</time>
      </trkpt>
      <trkpt lat="47.25416" lon="-1.59077">
        <ele>16.569805</ele>
        <time>2025-09-02T18:51:18.333Z</time>
      </trkpt>
      <trkpt lat="47.25438" lon="-1.59069">
        <ele>16.14875</ele>
        <time>2025-09-02T18:51:22.819Z</time>
      </trkpt>
      <trkpt lat="47.25445" lon="-1.5906">
        <ele>15.96682</ele>
        <time>2025-09-02T18:51:24.760Z</time>
      </trkpt>
      <trkpt lat="47.25458" lon="-1.59023">
        <ele>15.433205</ele>
        <time>2025-09-02T18:51:30.565Z</time>
      </trkpt>
      <trkpt lat="47.25467" lon="-1.59024">
        <ele>15.262134</ele>
        <time>2025-09-02T18:51:32.574Z</time>
      </trkpt>
      <trkpt lat="47.2547" lon="-1.5903">
        <ele>15.183249</ele>
        <time>2025-09-02T18:51:33.510Z</time>
      </trkpt>
      <trkpt lat="47.25482" lon="-1.59015">
        <ele>14.897335</ele>
        <time>2025-09-02T18:51:36.864Z</time>
      </trkpt>
      <trkpt lat="47.25504" lon="-1.59007">
        <ele>14.508386</ele>
        <time>2025-09-02T18:51:41.358Z</time>
      </trkpt>
      <trkpt lat="47.25522" lon="-1.58993">
        <ele>14.14575</ele>
        <time>2025-09-02T18:51:45.545Z</time>
      </trkpt>
      <trkpt lat="47.25531" lon="-1.5893">
        <ele>13.38185</ele>
        <time>2025-09-02T18:51:54.495Z</time>
      </trkpt>
      <trkpt lat="47.25539" lon="-1.58878">
        <ele>12.74873</ele>
        <time>2025-09-02T18:52:02.278Z</time>
      </trkpt>
      <trkpt lat="47.25553" lon="-1.58836">
        <ele>12.391366</ele>
        <time>2025-09-02T18:52:09.505Z</time>
      </trkpt>
      <trkpt lat="47.2556" lon="-1.58827">
        <ele>12.457343</ele>
        <time>2025-09-02T18:52:11.666Z</time>
      </trkpt>
      <trkpt lat="47.25567" lon="-1.58828">
        <ele>12.502646</ele>
        <time>2025-09-02T18:52:13.151Z</time>
      </trkpt>
      <trkpt lat="47.25585" lon="-1.58824">
        <ele>12.632161</ele>
        <time>2025-09-02T18:52:17.465Z</time>
      </trkpt>
      <trkpt lat="47.25607" lon="-1.5883">
        <ele>12.794559</ele>
        <time>2025-09-02T18:52:23.051Z</time>
      </trkpt>
      <trkpt lat="47.25616" lon="-1.58827">
        <ele>12.857219</ele>
        <time>2025-09-02T18:52:25.322Z</time>
      </trkpt>
      <trkpt lat="47.25621" lon="-1.58822">
        <ele>12.899344</ele>
        <time>2025-09-02T18:52:27.635Z</time>
      </trkpt>
      <trkpt lat="47.25625" lon="-1.5882">
        <ele>12.932555</ele>
        <time>2025-09-02T18:52:28.932Z</time>
      </trkpt>
      <trkpt lat="47.25629" lon="-1.58822">
        <ele>12.962056</ele>
        <time>2025-09-02T18:52:30.060Z</time>
      </trkpt>
      <trkpt lat="47.25651" lon="-1.5886">
        <ele>13.202909</ele>
        <time>2025-09-02T18:52:40.394Z</time>
      </trkpt>
      <trkpt lat="47.25668" lon="-1.58879">
        <ele>13.350818</ele>
        <time>2025-09-02T18:52:47.758Z</time>
      </trkpt>
      <trkpt lat="47.25672" lon="-1.58889">
        <ele>13.406471</ele>
        <time>2025-09-02T18:52:50.647Z</time>
      </trkpt>
      <trkpt lat="47.25668" lon="-1.58899">
        <ele>13.46226</ele>
        <time>2025-09-02T18:52:53.716Z</time>
      </trkpt>
      <trkpt lat="47.2565" lon="-1.58907">
        <ele>13.596568</ele>
        <time>2025-09-02T18:53:00.942Z</time>
      </trkpt>
      <trkpt lat="47.25645" lon="-1.58922">
        <ele>13.743472</ele>
        <time>2025-09-02T18:53:04.989Z</time>
      </trkpt>
      <trkpt lat="47.25637" lon="-1.58929">
        <ele>13.869825</ele>
        <time>2025-09-02T18:53:08.023Z</time>
      </trkpt>
      <trkpt lat="47.25638" lon="-1.58935">
        <ele>13.929534</ele>
        <time>2025-09-02T18:53:09.494Z</time>
      </trkpt>
      <trkpt lat="47.25641" lon="-1.58947">
        <ele>14.052741</ele>
        <time>2025-09-02T18:53:12.368Z</time>
      </trkpt>
      <trkpt lat="47.25666" lon="-1.58993">
        <ele>14.601605</ele>
        <time>2025-09-02T18:53:25.233Z</time>
      </trkpt>
      <trkpt lat="47.25677" lon="-1.59028">
        <ele>14.964059</ele>
        <time>2025-09-02T18:53:36.725Z</time>
      </trkpt>
      <trkpt lat="47.25692" lon="-1.59052">
        <ele>15.271529</ele>
        <time>2025-09-02T18:53:46.486Z</time>
      </trkpt>
      <trkpt lat="47.25724" lon="-1.59072">
        <ele>15.750229</ele>
        <time>2025-09-02T18:54:01.908Z</time>
      </trkpt>
      <trkpt lat="47.25727" lon="-1.59079">
        <ele>15.831653</ele>
        <time>2025-09-02T18:54:04.377Z</time>
      </trkpt>
      <trkpt lat="47.25729" lon="-1.59097">
        <ele>15.999778</ele>
        <time>2025-09-02T18:54:09.459Z</time>
      </trkpt>
      <trkpt lat="47.25727" lon="-1.59114">
        <ele>16.073798</ele>
        <time>2025-09-02T18:54:14.153Z</time>
      </trkpt>
      <trkpt lat="47.25744" lon="-1.59136">
        <ele>16.034661</ele>
        <time>2025-09-02T18:54:22.740Z</time>
      </trkpt>
      <trkpt lat="47.25774" lon="-1.59171">
        <ele>15.966934</ele>
        <time>2025-09-02T18:54:32.615Z</time>
      </trkpt>
      <trkpt lat="47.25804" lon="-1.59213">
        <ele>15.895103</ele>
        <time>2025-09-02T18:54:42.598Z</time>
      </trkpt>
      <trkpt lat="47.25842" lon="-1.59259">
        <ele>15.809908</ele>
        <time>2025-09-02T18:54:54.162Z</time>
      </trkpt>
      <trkpt lat="47.25851" lon="-1.59265">
        <ele>15.793255</ele>
        <time>2025-09-02T18:54:56.278Z</time>
      </trkpt>
      <trkpt lat="47.2587" lon="-1.59271">
        <ele>15.724582</ele>
        <time>2025-09-02T18:55:00.502Z</time>
      </trkpt>
      <trkpt lat="47.25878" lon="-1.59267">
        <ele>15.660654</ele>
        <time>2025-09-02T18:55:02.364Z</time>
      </trkpt>
      <trkpt lat="47.2589" lon="-1.59257">
        <ele>15.560383</ele>
        <time>2025-09-02T18:55:05.311Z</time>
      </trkpt>
      <trkpt lat="47.25906" lon="-1.5923">
        <ele>15.381278</ele>
        <time>2025-09-02T18:55:10.611Z</time>
      </trkpt>
      <trkpt lat="47.25915" lon="-1.59211">
        <ele>15.268815</ele>
        <time>2025-09-02T18:55:13.970Z</time>
      </trkpt>
      <trkpt lat="47.25927" lon="-1.59198">
        <ele>15.15615</ele>
        <time>2025-09-02T18:55:17.393Z</time>
      </trkpt>
      <trkpt lat="47.25932" lon="-1.59197">
        <ele>15.11872</ele>
        <time>2025-09-02T18:55:18.519Z</time>
      </trkpt>
      <trkpt lat="47.25938" lon="-1.59197">
        <ele>15.07631</ele>
        <time>2025-09-02T18:55:19.819Z</time>
      </trkpt>
      <trkpt lat="47.25967" lon="-1.59203">
        <ele>14.86309</ele>
        <time>2025-09-02T18:55:26.580Z</time>
      </trkpt>
      <trkpt lat="47.26003" lon="-1.59217">
        <ele>14.59151</ele>
        <time>2025-09-02T18:55:35.591Z</time>
      </trkpt>
      <trkpt lat="47.26014" lon="-1.59224">
        <ele>14.506008</ele>
        <time>2025-09-02T18:55:38.474Z</time>
      </trkpt>
      <trkpt lat="47.26015" lon="-1.5923">
        <ele>14.474067</ele>
        <time>2025-09-02T18:55:39.586Z</time>
      </trkpt>
      <trkpt lat="47.26029" lon="-1.59307">
        <ele>14.519439</ele>
        <time>2025-09-02T18:55:52.905Z</time>
      </trkpt>
      <trkpt lat="47.26027" lon="-1.5932">
        <ele>14.530577</ele>
        <time>2025-09-02T18:55:55.233Z</time>
      </trkpt>
      <trkpt lat="47.26001" lon="-1.5938">
        <ele>14.589016</ele>
        <time>2025-09-02T18:56:07.473Z</time>
      </trkpt>
      <trkpt lat="47.25969" lon="-1.59445">
        <ele>14.656612</ele>
        <time>2025-09-02T18:56:22.239Z</time>
      </trkpt>
      <trkpt lat="47.25968" lon="-1.59462">
        <ele>14.67067</ele>
        <time>2025-09-02T18:56:25.228Z</time>
      </trkpt>
      <trkpt lat="47.2598" lon="-1.59511">
        <ele>14.412931</ele>
        <time>2025-09-02T18:56:34.110Z</time>
      </trkpt>
      <trkpt lat="47.25976" lon="-1.59538">
        <ele>14.252108</ele>
        <time>2025-09-02T18:56:38.578Z</time>
      </trkpt>
      <trkpt lat="47.25979" lon="-1.59585">
        <ele>13.9795</ele>
        <time>2025-09-02T18:56:45.767Z</time>
      </trkpt>
      <trkpt lat="47.25996" lon="-1.59625">
        <ele>13.70448</ele>
        <time>2025-09-02T18:56:52.705Z</time>
      </trkpt>
      <trkpt lat="47.26007" lon="-1.59641">
        <ele>13.568569</ele>
        <time>2025-09-02T18:56:56.107Z</time>
      </trkpt>
      <trkpt lat="47.26019" lon="-1.59653">
        <ele>13.445299</ele>
        <time>2025-09-02T18:56:59.198Z</time>
      </trkpt>
      <trkpt lat="47.26077" lon="-1.59698">
        <ele>13.01245</ele>
        <time>2025-09-02T18:57:13.075Z</time>
      </trkpt>
      <trkpt lat="47.26197" lon="-1.5973">
        <ele>12.543159</ele>
        <time>2025-09-02T18:57:41.584Z</time>
      </trkpt>
      <trkpt lat="47.26214" lon="-1.59745">
        <ele>12.466765</ele>
        <time>2025-09-02T18:57:47.505Z</time>
      </trkpt>
      <trkpt lat="47.26246" lon="-1.59789">
        <ele>12.963421</ele>
        <time>2025-09-02T18:58:00.727Z</time>
      </trkpt>
      <trkpt lat="47.26248" lon="-1.59793">
        <ele>13.013586</ele>
        <time>2025-09-02T18:58:01.606Z</time>
      </trkpt>
      <trkpt lat="47.26249" lon="-1.59795">
        <ele>13.042116</ele>
        <time>2025-09-02T18:58:02.143Z</time>
      </trkpt>
      <trkpt lat="47.26255" lon="-1.59806">
        <ele>13.187156</ele>
        <time>2025-09-02T18:58:04.878Z</time>
      </trkpt>
      <trkpt lat="47.26256" lon="-1.5983">
        <ele>13.445116</ele>
        <time>2025-09-02T18:58:10.253Z</time>
      </trkpt>
      <trkpt lat="47.26249" lon="-1.5993">
        <ele>14.490267</ele>
        <time>2025-09-02T18:58:34.593Z</time>
      </trkpt>
      <trkpt lat="47.26235" lon="-1.59965">
        <ele>14.915473</ele>
        <time>2025-09-02T18:58:45.123Z</time>
      </trkpt>
      <trkpt lat="47.26203" lon="-1.60032">
        <ele>15.475797</ele>
        <time>2025-09-02T18:59:01.420Z</time>
      </trkpt>
      <trkpt lat="47.26196" lon="-1.60052">
        <ele>15.58715</ele>
        <time>2025-09-02T18:59:05.227Z</time>
      </trkpt>
      <trkpt lat="47.26194" lon="-1.60075">
        <ele>15.704944</ele>
        <time>2025-09-02T18:59:09.406Z</time>
      </trkpt>
      <trkpt lat="47.26204" lon="-1.60091">
        <ele>15.809828</ele>
        <time>2025-09-02T18:59:15.002Z</time>
      </trkpt>
      <trkpt lat="47.26214" lon="-1.60099">
        <ele>15.895313</ele>
        <time>2025-09-02T18:59:19.580Z</time>
      </trkpt>
      <trkpt lat="47.26223" lon="-1.60101">
        <ele>15.966118</ele>
        <time>2025-09-02T18:59:23.426Z</time>
      </trkpt>
      <trkpt lat="47.2625" lon="-1.6009">
        <ele>16.169581</ele>
        <time>2025-09-02T18:59:34.351Z</time>
      </trkpt>
      <trkpt lat="47.26259" lon="-1.60091">
        <ele>16.24018</ele>
        <time>2025-09-02T18:59:38.163Z</time>
      </trkpt>
      <trkpt lat="47.26264" lon="-1.60095">
        <ele>16.283918</ele>
        <time>2025-09-02T18:59:40.438Z</time>
      </trkpt>
      <trkpt lat="47.26298" lon="-1.6016">
        <ele>16.874171</ele>
        <time>2025-09-02T19:00:02.063Z</time>
      </trkpt>
      <trkpt lat="47.26314" lon="-1.60186">
        <ele>17.235158</ele>
        <time>2025-09-02T19:00:11.627Z</time>
      </trkpt>
      <trkpt lat="47.2634" lon="-1.60219">
        <ele>17.765059</ele>
        <time>2025-09-02T19:00:28.721Z</time>
      </trkpt>
      <trkpt lat="47.26348" lon="-1.60241">
        <ele>18.018254</ele>
        <time>2025-09-02T19:00:37.514Z</time>
      </trkpt>
      <trkpt lat="47.26324" lon="-1.60332">
        <ele>19.031909</ele>
        <time>2025-09-02T19:01:10.383Z</time>
      </trkpt>
      <trkpt lat="47.26307" lon="-1.60379">
        <ele>19.055954</ele>
        <time>2025-09-02T19:01:25.189Z</time>
      </trkpt>
      <trkpt lat="47.26295" lon="-1.6047">
        <ele>18.302955</ele>
        <time>2025-09-02T19:01:46.655Z</time>
      </trkpt>
      <trkpt lat="47.26295" lon="-1.60496">
        <ele>18.094622</ele>
        <time>2025-09-02T19:01:52.176Z</time>
      </trkpt>
      <trkpt lat="47.26306" lon="-1.60533">
        <ele>17.772693</ele>
        <time>2025-09-02T19:02:00.724Z</time>
      </trkpt>
      <trkpt lat="47.26313" lon="-1.60589">
        <ele>17.314845</ele>
        <time>2025-09-02T19:02:12.984Z</time>
      </trkpt>
      <trkpt lat="47.26326" lon="-1.60646">
        <ele>17.114486</ele>
        <time>2025-09-02T19:02:26.655Z</time>
      </trkpt>
      <trkpt lat="47.26358" lon="-1.60679">
        <ele>17.06743</ele>
        <time>2025-09-02T19:02:35.061Z</time>
      </trkpt>
      <trkpt lat="47.26362" lon="-1.60683">
        <ele>17.061355</ele>
        <time>2025-09-02T19:02:37.057Z</time>
      </trkpt>
      <trkpt lat="47.26364" lon="-1.60692">
        <ele>17.053987</ele>
        <time>2025-09-02T19:02:39.592Z</time>
      </trkpt>
      <trkpt lat="47.26322" lon="-1.60861">
        <ele>16.698427</ele>
        <time>2025-09-02T19:03:29.615Z</time>
      </trkpt>
      <trkpt lat="47.26328" lon="-1.60861">
        <ele>16.624191</ele>
        <time>2025-09-02T19:03:31.065Z</time>
      </trkpt>
      <trkpt lat="47.26332" lon="-1.60857">
        <ele>16.568124</ele>
        <time>2025-09-02T19:03:32.165Z</time>
      </trkpt>
      <trkpt lat="47.2635" lon="-1.6083">
        <ele>16.261912</ele>
        <time>2025-09-02T19:03:37.994Z</time>
      </trkpt>
      <trkpt lat="47.26367" lon="-1.60814">
        <ele>16.026127</ele>
        <time>2025-09-02T19:03:42.296Z</time>
      </trkpt>
      <trkpt lat="47.26378" lon="-1.60805">
        <ele>15.88666</ele>
        <time>2025-09-02T19:03:46.185Z</time>
      </trkpt>
      <trkpt lat="47.26382" lon="-1.60802">
        <ele>15.825559</ele>
        <time>2025-09-02T19:03:47.887Z</time>
      </trkpt>
      <trkpt lat="47.26402" lon="-1.60858">
        <ele>15.318799</ele>
        <time>2025-09-02T19:04:01.461Z</time>
      </trkpt>
      <trkpt lat="47.26464" lon="-1.60974">
        <ele>14.63661</ele>
        <time>2025-09-02T19:04:35.381Z</time>
      </trkpt>
      <trkpt lat="47.2647" lon="-1.60993">
        <ele>14.593153</ele>
        <time>2025-09-02T19:04:40.587Z</time>
      </trkpt>
      <trkpt lat="47.26472" lon="-1.61019">
        <ele>14.539468</ele>
        <time>2025-09-02T19:04:47.039Z</time>
      </trkpt>
      <trkpt lat="47.26472" lon="-1.61112">
        <ele>14.346332</ele>
        <time>2025-09-02T19:05:11.082Z</time>
      </trkpt>
      <trkpt lat="47.26462" lon="-1.61144">
        <ele>14.272921</ele>
        <time>2025-09-02T19:05:20.687Z</time>
      </trkpt>
      <trkpt lat="47.26439" lon="-1.61202">
        <ele>14.894803</ele>
        <time>2025-09-02T19:05:39.291Z</time>
      </trkpt>
      <trkpt lat="47.26408" lon="-1.61237">
        <ele>15.497296</ele>
        <time>2025-09-02T19:05:56.177Z</time>
      </trkpt>
      <trkpt lat="47.26385" lon="-1.61269">
        <ele>15.973904</ele>
        <time>2025-09-02T19:06:09.807Z</time>
      </trkpt>
      <trkpt lat="47.2638" lon="-1.61285">
        <ele>16.155363</ele>
        <time>2025-09-02T19:06:15.374Z</time>
      </trkpt>
      <trkpt lat="47.26372" lon="-1.61327">
        <ele>16.594734</ele>
        <time>2025-09-02T19:06:29.269Z</time>
      </trkpt>
      <trkpt lat="47.26361" lon="-1.61416">
        <ele>18.011104</ele>
        <time>2025-09-02T19:07:00.636Z</time>
      </trkpt>
      <trkpt lat="47.2636" lon="-1.61425">
        <ele>18.190045</ele>
        <time>2025-09-02T19:07:03.878Z</time>
      </trkpt>
      <trkpt lat="47.26364" lon="-1.61443">
        <ele>18.57201</ele>
        <time>2025-09-02T19:07:08.944Z</time>
      </trkpt>
      <trkpt lat="47.26371" lon="-1.61465">
        <ele>19.043856</ele>
        <time>2025-09-02T19:07:17.248Z</time>
      </trkpt>
      <trkpt lat="47.26379" lon="-1.61484">
        <ele>19.481082</ele>
        <time>2025-09-02T19:07:25.101Z</time>
      </trkpt>
      <trkpt lat="47.26417" lon="-1.61518">
        <ele>20.749018</ele>
        <time>2025-09-02T19:07:48.347Z</time>
      </trkpt>
      <trkpt lat="47.26424" lon="-1.61529">
        <ele>21.042124</ele>
        <time>2025-09-02T19:07:53.801Z</time>
      </trkpt>
      <trkpt lat="47.26437" lon="-1.61555">
        <ele>21.685488</ele>
        <time>2025-09-02T19:08:05.821Z</time>
      </trkpt>
      <trkpt lat="47.26449" lon="-1.61568">
        <ele>22.10928</ele>
        <time>2025-09-02T19:08:13.412Z</time>
      </trkpt>
      <trkpt lat="47.26523" lon="-1.61602">
        <ele>23.558869</ele>
        <time>2025-09-02T19:08:52.590Z</time>
      </trkpt>
      <trkpt lat="47.26531" lon="-1.6161">
        <ele>23.747305</ele>
        <time>2025-09-02T19:08:57.653Z</time>
      </trkpt>
      <trkpt lat="47.26539" lon="-1.61623">
        <ele>23.963487</ele>
        <time>2025-09-02T19:09:03.433Z</time>
      </trkpt>
      <trkpt lat="47.26552" lon="-1.61656">
        <ele>24.440952</ele>
        <time>2025-09-02T19:09:15.763Z</time>
      </trkpt>
      <trkpt lat="47.26582" lon="-1.61721">
        <ele>25.417961</ele>
        <time>2025-09-02T19:09:37.663Z</time>
      </trkpt>
      <trkpt lat="47.26595" lon="-1.61742">
        <ele>25.374307</ele>
        <time>2025-09-02T19:09:44.826Z</time>
      </trkpt>
      <trkpt lat="47.26618" lon="-1.61758">
        <ele>25.212909</ele>
        <time>2025-09-02T19:09:53.805Z</time>
      </trkpt>
      <trkpt lat="47.26678" lon="-1.61792">
        <ele>24.808557</ele>
        <time>2025-09-02T19:10:15.534Z</time>
      </trkpt>
      <trkpt lat="47.26719" lon="-1.61809">
        <ele>24.538842</ele>
        <time>2025-09-02T19:10:30.130Z</time>
      </trkpt>
      <trkpt lat="47.2675" lon="-1.61843">
        <ele>24.330574</ele>
        <time>2025-09-02T19:10:43.729Z</time>
      </trkpt>
      <trkpt lat="47.26754" lon="-1.61853">
        <ele>24.316354</ele>
        <time>2025-09-02T19:10:46.544Z</time>
      </trkpt>
      <trkpt lat="47.26754" lon="-1.61871">
        <ele>24.292695</ele>
        <time>2025-09-02T19:10:51.396Z</time>
      </trkpt>
      <trkpt lat="47.26746" lon="-1.61893">
        <ele>24.262457</ele>
        <time>2025-09-02T19:10:57.746Z</time>
      </trkpt>
      <trkpt lat="47.26742" lon="-1.61959">
        <ele>24.1776</ele>
        <time>2025-09-02T19:11:15.061Z</time>
      </trkpt>
      <trkpt lat="47.2674" lon="-1.62034">
        <ele>24.081783</ele>
        <time>2025-09-02T19:11:34.708Z</time>
      </trkpt>
      <trkpt lat="47.26741" lon="-1.62054">
        <ele>24.057209</ele>
        <time>2025-09-02T19:11:39.584Z</time>
      </trkpt>
      <trkpt lat="47.26747" lon="-1.62069">
        <ele>24.034324</ele>
        <time>2025-09-02T19:11:44.029Z</time>
      </trkpt>
      <trkpt lat="47.26754" lon="-1.62161">
        <ele>23.756663</ele>
        <time>2025-09-02T19:12:05.229Z</time>
      </trkpt>
      <trkpt lat="47.26754" lon="-1.62242">
        <ele>23.471505</ele>
        <time>2025-09-02T19:12:23.436Z</time>
      </trkpt>
      <trkpt lat="47.2676" lon="-1.62259">
        <ele>23.405703</ele>
        <time>2025-09-02T19:12:27.666Z</time>
      </trkpt>
      <trkpt lat="47.26771" lon="-1.62264">
        <ele>23.347034</ele>
        <time>2025-09-02T19:12:31.558Z</time>
      </trkpt>
      <trkpt lat="47.2677" lon="-1.62281">
        <ele>23.290246</ele>
        <time>2025-09-02T19:12:35.537Z</time>
      </trkpt>
      <trkpt lat="47.26764" lon="-1.62293">
        <ele>23.235049</ele>
        <time>2025-09-02T19:12:39.513Z</time>
      </trkpt>
      <trkpt lat="47.26763" lon="-1.62316">
        <ele>23.153735</ele>
        <time>2025-09-02T19:12:45.718Z</time>
      </trkpt>
      <trkpt lat="47.26783" lon="-1.62363">
        <ele>23.342224</ele>
        <time>2025-09-02T19:13:02.733Z</time>
      </trkpt>
      <trkpt lat="47.26793" lon="-1.62372">
        <ele>23.479479</ele>
        <time>2025-09-02T19:13:08.486Z</time>
      </trkpt>
      <trkpt lat="47.26799" lon="-1.62369">
        <ele>23.554365</ele>
        <time>2025-09-02T19:13:10.623Z</time>
      </trkpt>
      <trkpt lat="47.26806" lon="-1.6237">
        <ele>23.635438</ele>
        <time>2025-09-02T19:13:13.288Z</time>
      </trkpt>
      <trkpt lat="47.26847" lon="-1.6241">
        <ele>24.224436</ele>
        <time>2025-09-02T19:13:31.630Z</time>
      </trkpt>
      <trkpt lat="47.26871" lon="-1.62428">
        <ele>24.558977</ele>
        <time>2025-09-02T19:13:39.967Z</time>
      </trkpt>
      <trkpt lat="47.26897" lon="-1.62435">
        <ele>24.872087</ele>
        <time>2025-09-02T19:13:46.652Z</time>
      </trkpt>
      <trkpt lat="47.269" lon="-1.62433">
        <ele>24.908713</ele>
        <time>2025-09-02T19:13:47.364Z</time>
      </trkpt>
      <trkpt lat="47.26876" lon="-1.62425">
        <ele>25.20563</ele>
        <time>2025-09-02T19:13:52.894Z</time>
      </trkpt>
      <trkpt lat="47.26858" lon="-1.62409">
        <ele>25.553331</ele>
        <time>2025-09-02T19:13:57.044Z</time>
      </trkpt>
      <trkpt lat="47.26844" lon="-1.62388">
        <ele>25.909657</ele>
        <time>2025-09-02T19:14:01.112Z</time>
      </trkpt>
      <trkpt lat="47.2682" lon="-1.62332">
        <ele>26.699788</ele>
        <time>2025-09-02T19:14:11.835Z</time>
      </trkpt>
      <trkpt lat="47.26811" lon="-1.62322">
        <ele>26.893339</ele>
        <time>2025-09-02T19:14:14.792Z</time>
      </trkpt>
      <trkpt lat="47.26792" lon="-1.62311">
        <ele>27.252043</ele>
        <time>2025-09-02T19:14:20.928Z</time>
      </trkpt>
      <trkpt lat="47.26771" lon="-1.6231">
        <ele>27.629191</ele>
        <time>2025-09-02T19:14:28.140Z</time>
      </trkpt>
      <trkpt lat="47.26749" lon="-1.62309">
        <ele>28.016649</ele>
        <time>2025-09-02T19:14:37.431Z</time>
      </trkpt>
      <trkpt lat="47.26733" lon="-1.62304">
        <ele>28.296047</ele>
        <time>2025-09-02T19:14:44.634Z</time>
      </trkpt>
      <trkpt lat="47.26733" lon="-1.62304">
        <ele>28.296047</ele>
        <time>2025-09-02T19:14:44.634Z</time>
      </trkpt>
      <trkpt lat="47.26718" lon="-1.62288">
        <ele>29.191403</ele>
        <time>2025-09-02T19:14:53.674Z</time>
      </trkpt>
      <trkpt lat="47.26709" lon="-1.62269">
        <ele>30.215661</ele>
        <time>2025-09-02T19:15:02.571Z</time>
      </trkpt>
      <trkpt lat="47.26701" lon="-1.6223">
        <ele>31.964018</ele>
        <time>2025-09-02T19:15:19.172Z</time>
      </trkpt>
      <trkpt lat="47.26698" lon="-1.62201">
        <ele>33.21583</ele>
        <time>2025-09-02T19:15:31.826Z</time>
      </trkpt>
      <trkpt lat="47.26693" lon="-1.62186">
        <ele>33.967386</ele>
        <time>2025-09-02T19:15:40.839Z</time>
      </trkpt>
      <trkpt lat="47.26667" lon="-1.62164">
        <ele>35.833129</ele>
        <time>2025-09-02T19:16:01.396Z</time>
      </trkpt>
      <trkpt lat="47.26655" lon="-1.62157">
        <ele>36.651919</ele>
        <time>2025-09-02T19:16:10.021Z</time>
      </trkpt>
      <trkpt lat="47.26613" lon="-1.62144">
        <ele>39.390712</ele>
        <time>2025-09-02T19:16:39.089Z</time>
      </trkpt>
      <trkpt lat="47.26557" lon="-1.62143">
        <ele>42.893117</ele>
        <time>2025-09-02T19:17:16.672Z</time>
      </trkpt>
      <trkpt lat="47.26531" lon="-1.62144">
        <ele>44.567802</ele>
        <time>2025-09-02T19:17:34.568Z</time>
      </trkpt>
      <trkpt lat="47.26438" lon="-1.62162">
        <ele>50.438002</ele>
        <time>2025-09-02T19:18:39.334Z</time>
      </trkpt>
      <trkpt lat="47.26424" lon="-1.62164">
        <ele>51.285138</ele>
        <time>2025-09-02T19:18:49.055Z</time>
      </trkpt>
      <trkpt lat="47.26415" lon="-1.62171">
        <ele>51.820373</ele>
        <time>2025-09-02T19:18:56.102Z</time>
      </trkpt>
      <trkpt lat="47.26412" lon="-1.62176">
        <ele>52.072539</ele>
        <time>2025-09-02T19:18:59.411Z</time>
      </trkpt>
      <trkpt lat="47.26359" lon="-1.62244">
        <ele>55.759783</ele>
        <time>2025-09-02T19:19:47.855Z</time>
      </trkpt>
      <trkpt lat="47.26306" lon="-1.623">
        <ele>59.221712</ele>
        <time>2025-09-02T19:20:30.114Z</time>
      </trkpt>
      <trkpt lat="47.2623" lon="-1.62429">
        <ele>61.590637</ele>
        <time>2025-09-02T19:21:26.089Z</time>
      </trkpt>
      <trkpt lat="47.26193" lon="-1.62468">
        <ele>62.078081</ele>
        <time>2025-09-02T19:21:42.899Z</time>
      </trkpt>
      <trkpt lat="47.26165" lon="-1.62482">
        <ele>62.387134</ele>
        <time>2025-09-02T19:21:53.043Z</time>
      </trkpt>
      <trkpt lat="47.2616" lon="-1.62484">
        <ele>62.448142</ele>
        <time>2025-09-02T19:21:55.053Z</time>
      </trkpt>
      <trkpt lat="47.26154" lon="-1.62472">
        <ele>62.552716</ele>
        <time>2025-09-02T19:21:57.093Z</time>
      </trkpt>
      <trkpt lat="47.26144" lon="-1.62478">
        <ele>62.487995</ele>
        <time>2025-09-02T19:22:04.471Z</time>
      </trkpt>
      <trkpt lat="47.26132" lon="-1.62461">
        <ele>62.385332</ele>
        <time>2025-09-02T19:22:16.188Z</time>
      </trkpt>
      <trkpt lat="47.26113" lon="-1.62447">
        <ele>62.259078</ele>
        <time>2025-09-02T19:22:30.561Z</time>
      </trkpt>
      <trkpt lat="47.26113" lon="-1.62402">
        <ele>62.071454</ele>
        <time>2025-09-02T19:22:36.908Z</time>
      </trkpt>
      <trkpt lat="47.26105" lon="-1.62414">
        <ele>61.998169</ele>
        <time>2025-09-02T19:22:39.418Z</time>
      </trkpt>
      <trkpt lat="47.26098" lon="-1.62423">
        <ele>61.942465</ele>
        <time>2025-09-02T19:22:41.405Z</time>
      </trkpt>
      <trkpt lat="47.26034" lon="-1.62487">
        <ele>61.472491</ele>
        <time>2025-09-02T19:22:58.287Z</time>
      </trkpt>
      <trkpt lat="47.25914" lon="-1.6259">
        <ele>60.632312</ele>
        <time>2025-09-02T19:23:28.047Z</time>
      </trkpt>
      <trkpt lat="47.25902" lon="-1.62592">
        <ele>60.55679</ele>
        <time>2025-09-02T19:23:30.679Z</time>
      </trkpt>
      <trkpt lat="47.25851" lon="-1.6257">
        <ele>60.364077</ele>
        <time>2025-09-02T19:23:42.081Z</time>
      </trkpt>
      <trkpt lat="47.25826" lon="-1.62493">
        <ele>60.359328</ele>
        <time>2025-09-02T19:23:54.955Z</time>
      </trkpt>
      <trkpt lat="47.25821" lon="-1.62462">
        <ele>60.357535</ele>
        <time>2025-09-02T19:24:00.123Z</time>
      </trkpt>
      <trkpt lat="47.25817" lon="-1.62456">
        <ele>60.357083</ele>
        <time>2025-09-02T19:24:01.435Z</time>
      </trkpt>
      <trkpt lat="47.258" lon="-1.62489">
        <ele>60.354773</ele>
        <time>2025-09-02T19:24:07.991Z</time>
      </trkpt>
      <trkpt lat="47.25784" lon="-1.62517">
        <ele>60.352747</ele>
        <time>2025-09-02T19:24:13.905Z</time>
      </trkpt>
      <trkpt lat="47.25721" lon="-1.62632">
        <ele>60.87229</ele>
        <time>2025-09-02T19:24:39.942Z</time>
      </trkpt>
      <trkpt lat="47.25698" lon="-1.62676">
        <ele>61.120667</ele>
        <time>2025-09-02T19:24:50.102Z</time>
      </trkpt>
      <trkpt lat="47.25658" lon="-1.62748">
        <ele>61.521802</ele>
        <time>2025-09-02T19:25:05.968Z</time>
      </trkpt>
      <trkpt lat="47.25623" lon="-1.62796">
        <ele>61.541555</ele>
        <time>2025-09-02T19:25:17.644Z</time>
      </trkpt>
      <trkpt lat="47.25614" lon="-1.62805">
        <ele>61.545876</ele>
        <time>2025-09-02T19:25:20.038Z</time>
      </trkpt>
      <trkpt lat="47.2558" lon="-1.62835">
        <ele>61.56218</ele>
        <time>2025-09-02T19:25:28.737Z</time>
      </trkpt>
      <trkpt lat="47.25578" lon="-1.62837">
        <ele>61.563349</ele>
        <time>2025-09-02T19:25:29.355Z</time>
      </trkpt>
      <trkpt lat="47.25571" lon="-1.62843">
        <ele>61.566623</ele>
        <time>2025-09-02T19:25:31.089Z</time>
      </trkpt>
      <trkpt lat="47.25558" lon="-1.62853">
        <ele>61.572653</ele>
        <time>2025-09-02T19:25:34.249Z</time>
      </trkpt>
      <trkpt lat="47.2553" lon="-1.62873">
        <ele>61.585257</ele>
        <time>2025-09-02T19:25:40.752Z</time>
      </trkpt>
      <trkpt lat="47.25483" lon="-1.62905">
        <ele>61.631871</ele>
        <time>2025-09-02T19:25:51.969Z</time>
      </trkpt>
      <trkpt lat="47.25473" lon="-1.62922">
        <ele>61.651974</ele>
        <time>2025-09-02T19:25:55.430Z</time>
      </trkpt>
      <trkpt lat="47.25472" lon="-1.62931">
        <ele>61.660037</ele>
        <time>2025-09-02T19:25:56.908Z</time>
      </trkpt>
      <trkpt lat="47.25465" lon="-1.62949">
        <ele>61.678869</ele>
        <time>2025-09-02T19:26:00.146Z</time>
      </trkpt>
      <trkpt lat="47.25453" lon="-1.62959">
        <ele>61.697644</ele>
        <time>2025-09-02T19:26:03.396Z</time>
      </trkpt>
      <trkpt lat="47.25445" lon="-1.62959">
        <ele>61.70699</ele>
        <time>2025-09-02T19:26:04.943Z</time>
      </trkpt>
      <trkpt lat="47.25448" lon="-1.62974">
        <ele>61.720609</ele>
        <time>2025-09-02T19:26:07.394Z</time>
      </trkpt>
      <trkpt lat="47.25447" lon="-1.62978">
        <ele>61.725196</ele>
        <time>2025-09-02T19:26:08.155Z</time>
      </trkpt>
      <trkpt lat="47.25441" lon="-1.62989">
        <ele>61.737562</ele>
        <time>2025-09-02T19:26:11.820Z</time>
      </trkpt>
      <trkpt lat="47.25439" lon="-1.62999">
        <ele>61.746679</ele>
        <time>2025-09-02T19:26:14.438Z</time>
      </trkpt>
      <trkpt lat="47.25444" lon="-1.63036">
        <ele>61.77996</ele>
        <time>2025-09-02T19:26:24.463Z</time>
      </trkpt>
      <trkpt lat="47.25443" lon="-1.63061">
        <ele>61.803157</ele>
        <time>2025-09-02T19:26:31.520Z</time>
      </trkpt>
      <trkpt lat="47.25428" lon="-1.63102">
        <ele>61.800093</ele>
        <time>2025-09-02T19:26:43.751Z</time>
      </trkpt>
      <trkpt lat="47.25456" lon="-1.63226">
        <ele>61.495903</ele>
        <time>2025-09-02T19:27:16.597Z</time>
      </trkpt>
      <trkpt lat="47.2548" lon="-1.63315">
        <ele>61.272933</ele>
        <time>2025-09-02T19:27:39.563Z</time>
      </trkpt>
      <trkpt lat="47.25504" lon="-1.63356">
        <ele>60.964951</ele>
        <time>2025-09-02T19:27:52.266Z</time>
      </trkpt>
      <trkpt lat="47.25515" lon="-1.63374">
        <ele>60.768094</ele>
        <time>2025-09-02T19:27:57.749Z</time>
      </trkpt>
      <trkpt lat="47.25525" lon="-1.63398">
        <ele>60.530895</ele>
        <time>2025-09-02T19:28:04.324Z</time>
      </trkpt>
      <trkpt lat="47.25529" lon="-1.63433">
        <ele>60.244078</ele>
        <time>2025-09-02T19:28:12.310Z</time>
      </trkpt>
      <trkpt lat="47.25526" lon="-1.63449">
        <ele>60.10373</ele>
        <time>2025-09-02T19:28:16.195Z</time>
      </trkpt>
      <trkpt lat="47.2553" lon="-1.63485">
        <ele>59.806451</ele>
        <time>2025-09-02T19:28:24.445Z</time>
      </trkpt>
      <trkpt lat="47.25543" lon="-1.63566">
        <ele>59.115582</ele>
        <time>2025-09-02T19:28:43.591Z</time>
      </trkpt>
      <trkpt lat="47.25546" lon="-1.63603">
        <ele>58.862353</ele>
        <time>2025-09-02T19:28:52.263Z</time>
      </trkpt>
      <trkpt lat="47.2553" lon="-1.63622">
        <ele>58.677988</ele>
        <time>2025-09-02T19:28:59.269Z</time>
      </trkpt>
      <trkpt lat="47.25483" lon="-1.63651">
        <ele>58.223378</ele>
        <time>2025-09-02T19:29:16.789Z</time>
      </trkpt>
      <trkpt lat="47.25461" lon="-1.63665">
        <ele>58.007077</ele>
        <time>2025-09-02T19:29:25.270Z</time>
      </trkpt>
      <trkpt lat="47.25409" lon="-1.6369">
        <ele>57.51418</ele>
        <time>2025-09-02T19:29:44.877Z</time>
      </trkpt>
      <trkpt lat="47.25396" lon="-1.63689">
        <ele>57.382533</ele>
        <time>2025-09-02T19:29:49.587Z</time>
      </trkpt>
      <trkpt lat="47.25357" lon="-1.63664">
        <ele>56.702303</ele>
        <time>2025-09-02T19:30:04.168Z</time>
      </trkpt>
      <trkpt lat="47.25317" lon="-1.63634">
        <ele>55.979982</ele>
        <time>2025-09-02T19:30:19.264Z</time>
      </trkpt>
      <trkpt lat="47.25314" lon="-1.63632">
        <ele>55.924652</ele>
        <time>2025-09-02T19:30:20.410Z</time>
      </trkpt>
      <trkpt lat="47.25309" lon="-1.63629">
        <ele>55.83559</ele>
        <time>2025-09-02T19:30:22.206Z</time>
      </trkpt>
      <trkpt lat="47.253" lon="-1.63725">
        <ele>54.778676</ele>
        <time>2025-09-02T19:30:35.511Z</time>
      </trkpt>
      <trkpt lat="47.25296" lon="-1.6378">
        <ele>54.189164</ele>
        <time>2025-09-02T19:30:43.015Z</time>
      </trkpt>
      <trkpt lat="47.25292" lon="-1.63789">
        <ele>54.069493</ele>
        <time>2025-09-02T19:30:44.581Z</time>
      </trkpt>
      <trkpt lat="47.25277" lon="-1.63802">
        <ele>53.802708</ele>
        <time>2025-09-02T19:30:48.081Z</time>
      </trkpt>
      <trkpt lat="47.25258" lon="-1.63817">
        <ele>53.472789</ele>
        <time>2025-09-02T19:30:52.525Z</time>
      </trkpt>
      <trkpt lat="47.2523" lon="-1.63825">
        <ele>53.034285</ele>
        <time>2025-09-02T19:30:58.539Z</time>
      </trkpt>
      <trkpt lat="47.25188" lon="-1.63797">
        <ele>52.321429</ele>
        <time>2025-09-02T19:31:08.619Z</time>
      </trkpt>
      <trkpt lat="47.25175" lon="-1.63794">
        <ele>52.117517</ele>
        <time>2025-09-02T19:31:11.610Z</time>
      </trkpt>
      <trkpt lat="47.25135" lon="-1.63815">
        <ele>51.641063</ele>
        <time>2025-09-02T19:31:21.382Z</time>
      </trkpt>
      <trkpt lat="47.25121" lon="-1.63828">
        <ele>51.554328</ele>
        <time>2025-09-02T19:31:25.360Z</time>
      </trkpt>
      <trkpt lat="47.25102" lon="-1.63869">
        <ele>51.38204</ele>
        <time>2025-09-02T19:31:33.140Z</time>
      </trkpt>
      <trkpt lat="47.25084" lon="-1.63893">
        <ele>51.258936</ele>
        <time>2025-09-02T19:31:38.584Z</time>
      </trkpt>
      <trkpt lat="47.25021" lon="-1.63946">
        <ele>50.888492</ele>
        <time>2025-09-02T19:31:55.471Z</time>
      </trkpt>
      <trkpt lat="47.24996" lon="-1.63961">
        <ele>50.929083</ele>
        <time>2025-09-02T19:32:01.881Z</time>
      </trkpt>
      <trkpt lat="47.24988" lon="-1.63923">
        <ele>51.216424</ele>
        <time>2025-09-02T19:32:08.954Z</time>
      </trkpt>
      <trkpt lat="47.24944" lon="-1.63804">
        <ele>52.196417</ele>
        <time>2025-09-02T19:32:37.147Z</time>
      </trkpt>
      <trkpt lat="47.24908" lon="-1.63707">
        <ele>52.90295</ele>
        <time>2025-09-02T19:33:02.579Z</time>
      </trkpt>
      <trkpt lat="47.24871" lon="-1.6361">
        <ele>53.432134</ele>
        <time>2025-09-02T19:33:27.381Z</time>
      </trkpt>
      <trkpt lat="47.24851" lon="-1.63559">
        <ele>53.711112</ele>
        <time>2025-09-02T19:33:38.436Z</time>
      </trkpt>
      <trkpt lat="47.24845" lon="-1.63538">
        <ele>53.821119</ele>
        <time>2025-09-02T19:33:42.310Z</time>
      </trkpt>
      <trkpt lat="47.24829" lon="-1.63539">
        <ele>53.927824</ele>
        <time>2025-09-02T19:33:45.878Z</time>
      </trkpt>
      <trkpt lat="47.2481" lon="-1.63528">
        <ele>53.458893</ele>
        <time>2025-09-02T19:33:50.502Z</time>
      </trkpt>
      <trkpt lat="47.24788" lon="-1.6351">
        <ele>52.433816</ele>
        <time>2025-09-02T19:33:58.571Z</time>
      </trkpt>
      <trkpt lat="47.24739" lon="-1.6353">
        <ele>50.315216</ele>
        <time>2025-09-02T19:34:14.055Z</time>
      </trkpt>
      <trkpt lat="47.24593" lon="-1.63551">
        <ele>42.737261</ele>
        <time>2025-09-02T19:34:55.058Z</time>
      </trkpt>
      <trkpt lat="47.24593" lon="-1.63551">
        <ele>42.737261</ele>
        <time>2025-09-02T19:34:55.071Z</time>
      </trkpt>
      <trkpt lat="47.24511" lon="-1.63569">
        <ele>37.024564</ele>
        <time>2025-09-02T19:35:17.667Z</time>
      </trkpt>
      <trkpt lat="47.245" lon="-1.63583">
        <ele>36.049317</ele>
        <time>2025-09-02T19:35:21.544Z</time>
      </trkpt>
      <trkpt lat="47.24499" lon="-1.63601">
        <ele>35.247673</ele>
        <time>2025-09-02T19:35:24.709Z</time>
      </trkpt>
      <trkpt lat="47.24478" lon="-1.63628">
        <ele>33.666206</ele>
        <time>2025-09-02T19:35:32.168Z</time>
      </trkpt>
      <trkpt lat="47.2444" lon="-1.63657">
        <ele>31.787095</ele>
        <time>2025-09-02T19:35:43.901Z</time>
      </trkpt>
      <trkpt lat="47.2443" lon="-1.63694">
        <ele>30.588215</ele>
        <time>2025-09-02T19:35:51.628Z</time>
      </trkpt>
      <trkpt lat="47.24431" lon="-1.63723">
        <ele>29.734048</ele>
        <time>2025-09-02T19:35:57.292Z</time>
      </trkpt>
      <trkpt lat="47.24414" lon="-1.63738">
        <ele>28.890666</ele>
        <time>2025-09-02T19:36:03.039Z</time>
      </trkpt>
      <trkpt lat="47.24405" lon="-1.63733">
        <ele>28.457159</ele>
        <time>2025-09-02T19:36:09.926Z</time>
      </trkpt>
      <trkpt lat="47.24402" lon="-1.63756">
        <ele>27.74805</ele>
        <time>2025-09-02T19:36:12.752Z</time>
      </trkpt>
      <trkpt lat="47.24403" lon="-1.63788">
        <ele>26.806035</ele>
        <time>2025-09-02T19:36:19.719Z</time>
      </trkpt>
      <trkpt lat="47.2442" lon="-1.63862">
        <ele>26.363866</ele>
        <time>2025-09-02T19:36:38.166Z</time>
      </trkpt>
      <trkpt lat="47.24497" lon="-1.64076">
        <ele>26.862999</ele>
        <time>2025-09-02T19:37:45.611Z</time>
      </trkpt>
      <trkpt lat="47.24546" lon="-1.6417">
        <ele>27.628851</ele>
        <time>2025-09-02T19:38:19.573Z</time>
      </trkpt>
      <trkpt lat="47.24589" lon="-1.64262">
        <ele>28.341624</ele>
        <time>2025-09-02T19:38:51.637Z</time>
      </trkpt>
      <trkpt lat="47.24606" lon="-1.64325">
        <ele>28.613026</ele>
        <time>2025-09-02T19:39:10.663Z</time>
      </trkpt>
      <trkpt lat="47.2463" lon="-1.6438">
        <ele>28.875694</ele>
        <time>2025-09-02T19:39:28.476Z</time>
      </trkpt>
      <trkpt lat="47.24644" lon="-1.64401">
        <ele>28.996354</ele>
        <time>2025-09-02T19:39:36.504Z</time>
      </trkpt>
      <trkpt lat="47.24648" lon="-1.64446">
        <ele>29.177713</ele>
        <time>2025-09-02T19:39:48.463Z</time>
      </trkpt>
      <trkpt lat="47.24691" lon="-1.64519">
        <ele>29.442466</ele>
        <time>2025-09-02T19:40:14.122Z</time>
      </trkpt>
      <trkpt lat="47.24708" lon="-1.64529">
        <ele>29.472186</ele>
        <time>2025-09-02T19:40:20.896Z</time>
      </trkpt>
      <trkpt lat="47.24724" lon="-1.64547">
        <ele>29.505053</ele>
        <time>2025-09-02T19:40:27.977Z</time>
      </trkpt>
      <trkpt lat="47.2473" lon="-1.64557">
        <ele>29.520725</ele>
        <time>2025-09-02T19:40:31.234Z</time>
      </trkpt>
      <trkpt lat="47.24733" lon="-1.6457">
        <ele>29.536012</ele>
        <time>2025-09-02T19:40:34.415Z</time>
      </trkpt>
      <trkpt lat="47.24737" lon="-1.64574">
        <ele>29.544458</ele>
        <time>2025-09-02T19:40:36.103Z</time>
      </trkpt>
      <trkpt lat="47.24756" lon="-1.6457">
        <ele>29.575964</ele>
        <time>2025-09-02T19:40:42.702Z</time>
      </trkpt>
      <trkpt lat="47.24766" lon="-1.64574">
        <ele>29.592439</ele>
        <time>2025-09-02T19:40:46.273Z</time>
      </trkpt>
      <trkpt lat="47.24778" lon="-1.64587">
        <ele>29.617408</ele>
        <time>2025-09-02T19:40:51.749Z</time>
      </trkpt>
      <trkpt lat="47.248" lon="-1.64592">
        <ele>29.653689</ele>
        <time>2025-09-02T19:41:00.157Z</time>
      </trkpt>
      <trkpt lat="47.24804" lon="-1.64597">
        <ele>29.662623</ele>
        <time>2025-09-02T19:41:02.311Z</time>
      </trkpt>
      <trkpt lat="47.24804" lon="-1.64604">
        <ele>29.670296</ele>
        <time>2025-09-02T19:41:04.099Z</time>
      </trkpt>
      <trkpt lat="47.24814" lon="-1.64618">
        <ele>29.75299</ele>
        <time>2025-09-02T19:41:10.081Z</time>
      </trkpt>
      <trkpt lat="47.24816" lon="-1.64646">
        <ele>30.427385</ele>
        <time>2025-09-02T19:41:18.333Z</time>
      </trkpt>
      <trkpt lat="47.24953" lon="-1.64628">
        <ele>35.226313</ele>
        <time>2025-09-02T19:42:13.324Z</time>
      </trkpt>
      <trkpt lat="47.24985" lon="-1.64618">
        <ele>36.40406</ele>
        <time>2025-09-02T19:42:31.493Z</time>
      </trkpt>
      <trkpt lat="47.25011" lon="-1.64602">
        <ele>37.390701</ele>
        <time>2025-09-02T19:42:46.728Z</time>
      </trkpt>
      <trkpt lat="47.25022" lon="-1.64592">
        <ele>37.870472</ele>
        <time>2025-09-02T19:42:53.663Z</time>
      </trkpt>
      <trkpt lat="47.25091" lon="-1.64522">
        <ele>40.874261</ele>
        <time>2025-09-02T19:43:29.156Z</time>
      </trkpt>
      <trkpt lat="47.25095" lon="-1.64535">
        <ele>41.217409</ele>
        <time>2025-09-02T19:43:32.307Z</time>
      </trkpt>
      <trkpt lat="47.25102" lon="-1.64611">
        <ele>42.432113</ele>
        <time>2025-09-02T19:43:46.882Z</time>
      </trkpt>
      <trkpt lat="47.25101" lon="-1.64635">
        <ele>42.464202</ele>
        <time>2025-09-02T19:43:50.435Z</time>
      </trkpt>
      <trkpt lat="47.25093" lon="-1.64703">
        <ele>42.55418</ele>
        <time>2025-09-02T19:43:59.649Z</time>
      </trkpt>
      <trkpt lat="47.25078" lon="-1.64813">
        <ele>42.700595</ele>
        <time>2025-09-02T19:44:16.837Z</time>
      </trkpt>
      <trkpt lat="47.25144" lon="-1.64863">
        <ele>43.369792</ele>
        <time>2025-09-02T19:44:51.382Z</time>
      </trkpt>
      <trkpt lat="47.25153" lon="-1.64871">
        <ele>43.488787</ele>
        <time>2025-09-02T19:44:56.393Z</time>
      </trkpt>
      <trkpt lat="47.25159" lon="-1.64881">
        <ele>43.597718</ele>
        <time>2025-09-02T19:45:00.961Z</time>
      </trkpt>
      <trkpt lat="47.25175" lon="-1.64965">
        <ele>44.288269</ele>
        <time>2025-09-02T19:45:28.888Z</time>
      </trkpt>
      <trkpt lat="47.25174" lon="-1.64974">
        <ele>44.364802</ele>
        <time>2025-09-02T19:45:31.707Z</time>
      </trkpt>
      <trkpt lat="47.2517" lon="-1.65034">
        <ele>44.845581</ele>
        <time>2025-09-02T19:45:47.738Z</time>
      </trkpt>
      <trkpt lat="47.25172" lon="-1.65115">
        <ele>43.59896</ele>
        <time>2025-09-02T19:46:06.425Z</time>
      </trkpt>
      <trkpt lat="47.25156" lon="-1.65181">
        <ele>42.516033</ele>
        <time>2025-09-02T19:46:21.511Z</time>
      </trkpt>
      <trkpt lat="47.25148" lon="-1.65203">
        <ele>42.126839</ele>
        <time>2025-09-02T19:46:26.802Z</time>
      </trkpt>
      <trkpt lat="47.25149" lon="-1.65216">
        <ele>41.929829</ele>
        <time>2025-09-02T19:46:29.469Z</time>
      </trkpt>
      <trkpt lat="47.25156" lon="-1.65234">
        <ele>41.601623</ele>
        <time>2025-09-02T19:46:33.875Z</time>
      </trkpt>
      <trkpt lat="47.25158" lon="-1.65246">
        <ele>41.422731</ele>
        <time>2025-09-02T19:46:36.258Z</time>
      </trkpt>
      <trkpt lat="47.25158" lon="-1.65264">
        <ele>41.13583</ele>
        <time>2025-09-02T19:46:40.056Z</time>
      </trkpt>
      <trkpt lat="47.25155" lon="-1.65298">
        <ele>40.508485</ele>
        <time>2025-09-02T19:46:47.078Z</time>
      </trkpt>
      <trkpt lat="47.25126" lon="-1.654">
        <ele>37.654018</ele>
        <time>2025-09-02T19:47:09.011Z</time>
      </trkpt>
      <trkpt lat="47.25107" lon="-1.65435">
        <ele>36.509234</ele>
        <time>2025-09-02T19:47:17.743Z</time>
      </trkpt>
      <trkpt lat="47.25095" lon="-1.65527">
        <ele>34.077331</ele>
        <time>2025-09-02T19:47:36.810Z</time>
      </trkpt>
      <trkpt lat="47.25084" lon="-1.65563">
        <ele>34.070949</ele>
        <time>2025-09-02T19:47:45.363Z</time>
      </trkpt>
      <trkpt lat="47.25076" lon="-1.65588">
        <ele>34.243042</ele>
        <time>2025-09-02T19:47:49.094Z</time>
      </trkpt>
      <trkpt lat="47.25064" lon="-1.6566">
        <ele>34.701582</ele>
        <time>2025-09-02T19:48:01.136Z</time>
      </trkpt>
      <trkpt lat="47.25109" lon="-1.65683">
        <ele>35.139023</ele>
        <time>2025-09-02T19:48:17.764Z</time>
      </trkpt>
      <trkpt lat="47.25145" lon="-1.65694">
        <ele>35.467357</ele>
        <time>2025-09-02T19:48:32.672Z</time>
      </trkpt>
      <trkpt lat="47.25178" lon="-1.657">
        <ele>36.525935</ele>
        <time>2025-09-02T19:48:47.703Z</time>
      </trkpt>
      <trkpt lat="47.25181" lon="-1.65728">
        <ele>37.20236</ele>
        <time>2025-09-02T19:48:56.423Z</time>
      </trkpt>
      <trkpt lat="47.25215" lon="-1.65842">
        <ele>40.184351</ele>
        <time>2025-09-02T19:49:32.351Z</time>
      </trkpt>
      <trkpt lat="47.25224" lon="-1.6587">
        <ele>40.912085</ele>
        <time>2025-09-02T19:49:40.049Z</time>
      </trkpt>
      <trkpt lat="47.2525" lon="-1.65955">
        <ele>41.942516</ele>
        <time>2025-09-02T19:50:11.064Z</time>
      </trkpt>
      <trkpt lat="47.25312" lon="-1.66078">
        <ele>42.2443</ele>
        <time>2025-09-02T19:50:50.681Z</time>
      </trkpt>
      <trkpt lat="47.25322" lon="-1.66099">
        <ele>42.2948</ele>
        <time>2025-09-02T19:50:54.471Z</time>
      </trkpt>
      <trkpt lat="47.25323" lon="-1.66112">
        <ele>42.320866</ele>
        <time>2025-09-02T19:50:56.378Z</time>
      </trkpt>
      <trkpt lat="47.2532" lon="-1.66195">
        <ele>41.658986</ele>
        <time>2025-09-02T19:51:07.914Z</time>
      </trkpt>
      <trkpt lat="47.25321" lon="-1.66291">
        <ele>40.617476</ele>
        <time>2025-09-02T19:51:21.062Z</time>
      </trkpt>
      <trkpt lat="47.25324" lon="-1.66322">
        <ele>40.283364</ele>
        <time>2025-09-02T19:51:25.320Z</time>
      </trkpt>
      <trkpt lat="47.25325" lon="-1.66483">
        <ele>40.046539</ele>
        <time>2025-09-02T19:51:50.886Z</time>
      </trkpt>
      <trkpt lat="47.25326" lon="-1.66514">
        <ele>40.238898</ele>
        <time>2025-09-02T19:51:57.299Z</time>
      </trkpt>
      <trkpt lat="47.25334" lon="-1.66593">
        <ele>40.738005</ele>
        <time>2025-09-02T19:52:15.381Z</time>
      </trkpt>
      <trkpt lat="47.25335" lon="-1.66856">
        <ele>43.278205</ele>
        <time>2025-09-02T19:53:17.790Z</time>
      </trkpt>
      <trkpt lat="47.2534" lon="-1.66976">
        <ele>43.768426</ele>
        <time>2025-09-02T19:53:39.195Z</time>
      </trkpt>
      <trkpt lat="47.25345" lon="-1.67078">
        <ele>43.304615</ele>
        <time>2025-09-02T19:54:03.959Z</time>
      </trkpt>
      <trkpt lat="47.25345" lon="-1.67078">
        <ele>43.304615</ele>
        <time>2025-09-02T19:54:03.963Z</time>
      </trkpt>
      <trkpt lat="47.25368" lon="-1.67317">
        <ele>42.31112</ele>
        <time>2025-09-02T19:54:58.577Z</time>
      </trkpt>
      <trkpt lat="47.25379" lon="-1.67367">
        <ele>42.111635</ele>
        <time>2025-09-02T19:55:11.363Z</time>
      </trkpt>
      <trkpt lat="47.25383" lon="-1.67391">
        <ele>42.016744</ele>
        <time>2025-09-02T19:55:17.811Z</time>
      </trkpt>
      <trkpt lat="47.25379" lon="-1.67407">
        <ele>41.954667</ele>
        <time>2025-09-02T19:55:22.171Z</time>
      </trkpt>
      <trkpt lat="47.25363" lon="-1.67429">
        <ele>41.831035</ele>
        <time>2025-09-02T19:55:31.165Z</time>
      </trkpt>
      <trkpt lat="47.2536" lon="-1.67445">
        <ele>41.911773</ele>
        <time>2025-09-02T19:55:36.134Z</time>
      </trkpt>
      <trkpt lat="47.25347" lon="-1.67462">
        <ele>42.170243</ele>
        <time>2025-09-02T19:55:43.333Z</time>
      </trkpt>
      <trkpt lat="47.25341" lon="-1.67486">
        <ele>42.447573</ele>
        <time>2025-09-02T19:55:51.226Z</time>
      </trkpt>
      <trkpt lat="47.25339" lon="-1.67529">
        <ele>42.903057</ele>
        <time>2025-09-02T19:56:04.508Z</time>
      </trkpt>
      <trkpt lat="47.25331" lon="-1.67543">
        <ele>43.091744</ele>
        <time>2025-09-02T19:56:10.105Z</time>
      </trkpt>
      <trkpt lat="47.25285" lon="-1.67589">
        <ele>43.971703</ele>
        <time>2025-09-02T19:56:36.222Z</time>
      </trkpt>
      <trkpt lat="47.25322" lon="-1.67715">
        <ele>46.036337</ele>
        <time>2025-09-02T19:57:06.068Z</time>
      </trkpt>
      <trkpt lat="47.25319" lon="-1.67738">
        <ele>46.458333</ele>
        <time>2025-09-02T19:57:11.155Z</time>
      </trkpt>
      <trkpt lat="47.2528" lon="-1.67781">
        <ele>47.767149</ele>
        <time>2025-09-02T19:57:28.817Z</time>
      </trkpt>
      <trkpt lat="47.25233" lon="-1.67823">
        <ele>49.273274</ele>
        <time>2025-09-02T19:57:51.520Z</time>
      </trkpt>
      <trkpt lat="47.2522" lon="-1.67838">
        <ele>49.819393</ele>
        <time>2025-09-02T19:57:58.464Z</time>
      </trkpt>
      <trkpt lat="47.25214" lon="-1.67852">
        <ele>50.258314</ele>
        <time>2025-09-02T19:58:03.307Z</time>
      </trkpt>
      <trkpt lat="47.2521" lon="-1.67867">
        <ele>50.700124</ele>
        <time>2025-09-02T19:58:08.113Z</time>
      </trkpt>
      <trkpt lat="47.25201" lon="-1.67947">
        <ele>52.861075</ele>
        <time>2025-09-02T19:58:31.958Z</time>
      </trkpt>
      <trkpt lat="47.25174" lon="-1.67938">
        <ele>53.934062</ele>
        <time>2025-09-02T19:58:47.883Z</time>
      </trkpt>
      <trkpt lat="47.25061" lon="-1.67837">
        <ele>58.800287</ele>
        <time>2025-09-02T20:00:02.575Z</time>
      </trkpt>
      <trkpt lat="47.25045" lon="-1.67829">
        <ele>59.370145</ele>
        <time>2025-09-02T20:00:11.887Z</time>
      </trkpt>
      <trkpt lat="47.25025" lon="-1.6784">
        <ele>60.086173</ele>
        <time>2025-09-02T20:00:23.431Z</time>
      </trkpt>
      <trkpt lat="47.24956" lon="-1.67856">
        <ele>62.478333</ele>
        <time>2025-09-02T20:01:00.498Z</time>
      </trkpt>
      <trkpt lat="47.24904" lon="-1.67872">
        <ele>63.53707</ele>
        <time>2025-09-02T20:01:26.720Z</time>
      </trkpt>
      <trkpt lat="47.24901" lon="-1.67895">
        <ele>63.821087</ele>
        <time>2025-09-02T20:01:34.191Z</time>
      </trkpt>
      <trkpt lat="47.24907" lon="-1.67964">
        <ele>64.684679</ele>
        <time>2025-09-02T20:01:56.183Z</time>
      </trkpt>
      <trkpt lat="47.24897" lon="-1.68045">
        <ele>65.707354</ele>
        <time>2025-09-02T20:02:20.962Z</time>
      </trkpt>
      <trkpt lat="47.24901" lon="-1.68095">
        <ele>65.967383</ele>
        <time>2025-09-02T20:02:35.090Z</time>
      </trkpt>
      <trkpt lat="47.24903" lon="-1.68164">
        <ele>65.986638</ele>
        <time>2025-09-02T20:02:53.638Z</time>
      </trkpt>
      <trkpt lat="47.24896" lon="-1.6825">
        <ele>66.010541</ele>
        <time>2025-09-02T20:03:15.041Z</time>
      </trkpt>
      <trkpt lat="47.24899" lon="-1.68256">
        <ele>66.012636</ele>
        <time>2025-09-02T20:03:16.883Z</time>
      </trkpt>
      <trkpt lat="47.24916" lon="-1.68263">
        <ele>66.019805</ele>
        <time>2025-09-02T20:03:23.139Z</time>
      </trkpt>
      <trkpt lat="47.24918" lon="-1.68277">
        <ele>66.023707</ele>
        <time>2025-09-02T20:03:26.529Z</time>
      </trkpt>
      <trkpt lat="47.24917" lon="-1.68347">
        <ele>65.819461</ele>
        <time>2025-09-02T20:03:43.334Z</time>
      </trkpt>
      <trkpt lat="47.24913" lon="-1.68402">
        <ele>65.514451</ele>
        <time>2025-09-02T20:03:56.415Z</time>
      </trkpt>
      <trkpt lat="47.24914" lon="-1.6846">
        <ele>65.188684</ele>
        <time>2025-09-02T20:04:10.377Z</time>
      </trkpt>
      <trkpt lat="47.24917" lon="-1.68499">
        <ele>64.975113</ele>
        <time>2025-09-02T20:04:19.538Z</time>
      </trkpt>
      <trkpt lat="47.24915" lon="-1.68591">
        <ele>64.394108</ele>
        <time>2025-09-02T20:04:41.174Z</time>
      </trkpt>
      <trkpt lat="47.24904" lon="-1.68662">
        <ele>63.686723</ele>
        <time>2025-09-02T20:04:57.954Z</time>
      </trkpt>
      <trkpt lat="47.24904" lon="-1.68678">
        <ele>63.539718</ele>
        <time>2025-09-02T20:05:01.396Z</time>
      </trkpt>
      <trkpt lat="47.24907" lon="-1.68705">
        <ele>63.277246</ele>
        <time>2025-09-02T20:05:05.047Z</time>
      </trkpt>
      <trkpt lat="47.24914" lon="-1.68764">
        <ele>62.696272</ele>
        <time>2025-09-02T20:05:13.131Z</time>
      </trkpt>
      <trkpt lat="47.24908" lon="-1.68816">
        <ele>62.195267</ele>
        <time>2025-09-02T20:05:20.195Z</time>
      </trkpt>
      <trkpt lat="47.24906" lon="-1.68858">
        <ele>61.852182</ele>
        <time>2025-09-02T20:05:25.995Z</time>
      </trkpt>
      <trkpt lat="47.2484" lon="-1.68876">
        <ele>61.167859</ele>
        <time>2025-09-02T20:05:39.923Z</time>
      </trkpt>
      <trkpt lat="47.24787" lon="-1.6891">
        <ele>60.579859</ele>
        <time>2025-09-02T20:05:52.184Z</time>
      </trkpt>
      <trkpt lat="47.24671" lon="-1.68991">
        <ele>58.913207</ele>
        <time>2025-09-02T20:06:18.822Z</time>
      </trkpt>
      <trkpt lat="47.2464" lon="-1.69019">
        <ele>58.397166</ele>
        <time>2025-09-02T20:06:26.084Z</time>
      </trkpt>
      <trkpt lat="47.24634" lon="-1.69026">
        <ele>58.283778</ele>
        <time>2025-09-02T20:06:27.660Z</time>
      </trkpt>
      <trkpt lat="47.24632" lon="-1.69032">
        <ele>58.230058</ele>
        <time>2025-09-02T20:06:28.397Z</time>
      </trkpt>
      <trkpt lat="47.2462" lon="-1.69035">
        <ele>58.05058</ele>
        <time>2025-09-02T20:06:30.768Z</time>
      </trkpt>
      <trkpt lat="47.24601" lon="-1.69042">
        <ele>57.780851</ele>
        <time>2025-09-02T20:06:34.287Z</time>
      </trkpt>
      <trkpt lat="47.24544" lon="-1.69074">
        <ele>56.468398</ele>
        <time>2025-09-02T20:06:45.446Z</time>
      </trkpt>
      <trkpt lat="47.24517" lon="-1.69104">
        <ele>55.694946</ele>
        <time>2025-09-02T20:06:51.577Z</time>
      </trkpt>
      <trkpt lat="47.24506" lon="-1.69114">
        <ele>55.393853</ele>
        <time>2025-09-02T20:06:53.926Z</time>
      </trkpt>
      <trkpt lat="47.24482" lon="-1.69121">
        <ele>54.84114</ele>
        <time>2025-09-02T20:06:58.234Z</time>
      </trkpt>
      <trkpt lat="47.24479" lon="-1.69133">
        <ele>54.645093</ele>
        <time>2025-09-02T20:06:59.755Z</time>
      </trkpt>
      <trkpt lat="47.24471" lon="-1.69137">
        <ele>54.44966</ele>
        <time>2025-09-02T20:07:01.271Z</time>
      </trkpt>
      <trkpt lat="47.24466" lon="-1.69133">
        <ele>54.314945</ele>
        <time>2025-09-02T20:07:02.306Z</time>
      </trkpt>
      <trkpt lat="47.24463" lon="-1.69125">
        <ele>54.182598</ele>
        <time>2025-09-02T20:07:03.337Z</time>
      </trkpt>
      <trkpt lat="47.24455" lon="-1.69128">
        <ele>53.986548</ele>
        <time>2025-09-02T20:07:04.857Z</time>
      </trkpt>
      <trkpt lat="47.24443" lon="-1.69138">
        <ele>53.675152</ele>
        <time>2025-09-02T20:07:07.266Z</time>
      </trkpt>
      <trkpt lat="47.24407" lon="-1.69173">
        <ele>52.588811</ele>
        <time>2025-09-02T20:07:14.996Z</time>
      </trkpt>
      <trkpt lat="47.24372" lon="-1.69208">
        <ele>51.518008</ele>
        <time>2025-09-02T20:07:22.567Z</time>
      </trkpt>
      <trkpt lat="47.24379" lon="-1.69278">
        <ele>50.314109</ele>
        <time>2025-09-02T20:07:37.641Z</time>
      </trkpt>
      <trkpt lat="47.24389" lon="-1.69454">
        <ele>47.417778</ele>
        <time>2025-09-02T20:08:15.812Z</time>
      </trkpt>
      <trkpt lat="47.24384" lon="-1.69475">
        <ele>47.06946</ele>
        <time>2025-09-02T20:08:20.584Z</time>
      </trkpt>
      <trkpt lat="47.24377" lon="-1.6954">
        <ele>46.032165</ele>
        <time>2025-09-02T20:08:34.839Z</time>
      </trkpt>
      <trkpt lat="47.2437" lon="-1.69574">
        <ele>45.471486</ele>
        <time>2025-09-02T20:08:42.540Z</time>
      </trkpt>
      <trkpt lat="47.24321" lon="-1.69736">
        <ele>44.014263</ele>
        <time>2025-09-02T20:09:22.460Z</time>
      </trkpt>
      <trkpt lat="47.24319" lon="-1.69745">
        <ele>43.960923</ele>
        <time>2025-09-02T20:09:24.582Z</time>
      </trkpt>
      <trkpt lat="47.24224" lon="-1.70035">
        <ele>43.273123</ele>
        <time>2025-09-02T20:10:47.358Z</time>
      </trkpt>
      <trkpt lat="47.24275" lon="-1.70194">
        <ele>42.139247</ele>
        <time>2025-09-02T20:11:30.020Z</time>
      </trkpt>
      <trkpt lat="47.24255" lon="-1.70206">
        <ele>41.824815</ele>
        <time>2025-09-02T20:11:37.118Z</time>
      </trkpt>
      <trkpt lat="47.24136" lon="-1.70312">
        <ele>38.810323</ele>
        <time>2025-09-02T20:12:21.111Z</time>
      </trkpt>
      <trkpt lat="47.2413" lon="-1.70311">
        <ele>38.598229</ele>
        <time>2025-09-02T20:12:23.170Z</time>
      </trkpt>
      <trkpt lat="47.24115" lon="-1.70512">
        <ele>34.26593</ele>
        <time>2025-09-02T20:12:49.245Z</time>
      </trkpt>
      <trkpt lat="47.24112" lon="-1.70595">
        <ele>32.446487</ele>
        <time>2025-09-02T20:13:00.113Z</time>
      </trkpt>
      <trkpt lat="47.24102" lon="-1.7069">
        <ele>30.370502</ele>
        <time>2025-09-02T20:13:12.698Z</time>
      </trkpt>
      <trkpt lat="47.24093" lon="-1.70723">
        <ele>29.597959</ele>
        <time>2025-09-02T20:13:17.434Z</time>
      </trkpt>
      <trkpt lat="47.24079" lon="-1.70754">
        <ele>28.952509</ele>
        <time>2025-09-02T20:13:22.404Z</time>
      </trkpt>
      <trkpt lat="47.24065" lon="-1.7081">
        <ele>28.199177</ele>
        <time>2025-09-02T20:13:30.444Z</time>
      </trkpt>
      <trkpt lat="47.24069" lon="-1.70895">
        <ele>27.13369</ele>
        <time>2025-09-02T20:13:42.183Z</time>
      </trkpt>
      <trkpt lat="47.24067" lon="-1.70946">
        <ele>26.485926</ele>
        <time>2025-09-02T20:13:49.654Z</time>
      </trkpt>
      <trkpt lat="47.24036" lon="-1.70979">
        <ele>25.847176</ele>
        <time>2025-09-02T20:13:57.602Z</time>
      </trkpt>
      <trkpt lat="47.23988" lon="-1.71054">
        <ele>26.244968</ele>
        <time>2025-09-02T20:14:14.306Z</time>
      </trkpt>
      <trkpt lat="47.23966" lon="-1.71074">
        <ele>26.388354</ele>
        <time>2025-09-02T20:14:21.627Z</time>
      </trkpt>
      <trkpt lat="47.23958" lon="-1.71079">
        <ele>26.439383</ele>
        <time>2025-09-02T20:14:24.340Z</time>
      </trkpt>
      <trkpt lat="47.23945" lon="-1.71108">
        <ele>26.573186</ele>
        <time>2025-09-02T20:14:32.028Z</time>
      </trkpt>
      <trkpt lat="47.23931" lon="-1.71152">
        <ele>26.75912</ele>
        <time>2025-09-02T20:14:42.627Z</time>
      </trkpt>
      <trkpt lat="47.23911" lon="-1.71238">
        <ele>26.394313</ele>
        <time>2025-09-02T20:15:00.399Z</time>
      </trkpt>
      <trkpt lat="47.23887" lon="-1.71294">
        <ele>25.949365</ele>
        <time>2025-09-02T20:15:10.850Z</time>
      </trkpt>
      <trkpt lat="47.23872" lon="-1.71302">
        <ele>25.793753</ele>
        <time>2025-09-02T20:15:14.228Z</time>
      </trkpt>
      <trkpt lat="47.23863" lon="-1.71318">
        <ele>25.654055</ele>
        <time>2025-09-02T20:15:17.179Z</time>
      </trkpt>
      <trkpt lat="47.23851" lon="-1.71412">
        <ele>24.94898</ele>
        <time>2025-09-02T20:15:30.151Z</time>
      </trkpt>
      <trkpt lat="47.23849" lon="-1.71438">
        <ele>24.606369</ele>
        <time>2025-09-02T20:15:33.497Z</time>
      </trkpt>
      <trkpt lat="47.23822" lon="-1.71585">
        <ele>22.559036</ele>
        <time>2025-09-02T20:15:54.172Z</time>
      </trkpt>
      <trkpt lat="47.23811" lon="-1.71653">
        <ele>21.622905</ele>
        <time>2025-09-02T20:16:04.786Z</time>
      </trkpt>
      <trkpt lat="47.23795" lon="-1.71691">
        <ele>21.399893</ele>
        <time>2025-09-02T20:16:12.136Z</time>
      </trkpt>
      <trkpt lat="47.23778" lon="-1.7175">
        <ele>21.202252</ele>
        <time>2025-09-02T20:16:23.263Z</time>
      </trkpt>
      <trkpt lat="47.23758" lon="-1.71805">
        <ele>21.011573</ele>
        <time>2025-09-02T20:16:33.999Z</time>
      </trkpt>
      <trkpt lat="47.23722" lon="-1.71842">
        <ele>20.813019</ele>
        <time>2025-09-02T20:16:44.637Z</time>
      </trkpt>
      <trkpt lat="47.23684" lon="-1.71936">
        <ele>19.625294</ele>
        <time>2025-09-02T20:17:00.588Z</time>
      </trkpt>
      <trkpt lat="47.2365" lon="-1.72014">
        <ele>18.260014</ele>
        <time>2025-09-02T20:17:13.080Z</time>
      </trkpt>
      <trkpt lat="47.23607" lon="-1.72059">
        <ele>17.106112</ele>
        <time>2025-09-02T20:17:23.504Z</time>
      </trkpt>
      <trkpt lat="47.23584" lon="-1.72078">
        <ele>16.671967</ele>
        <time>2025-09-02T20:17:28.701Z</time>
      </trkpt>
      <trkpt lat="47.23512" lon="-1.72094">
        <ele>15.9662</ele>
        <time>2025-09-02T20:17:43.687Z</time>
      </trkpt>
      <trkpt lat="47.23444" lon="-1.72124">
        <ele>15.277161</ele>
        <time>2025-09-02T20:18:00.375Z</time>
      </trkpt>
      <trkpt lat="47.23414" lon="-1.72108">
        <ele>15.157435</ele>
        <time>2025-09-02T20:18:09.495Z</time>
      </trkpt>
      <trkpt lat="47.2341" lon="-1.72105">
        <ele>15.234722</ele>
        <time>2025-09-02T20:18:10.911Z</time>
      </trkpt>
      <trkpt lat="47.23406" lon="-1.72065">
        <ele>15.705824</ele>
        <time>2025-09-02T20:18:19.588Z</time>
      </trkpt>
      <trkpt lat="47.23405" lon="-1.72045">
        <ele>15.931425</ele>
        <time>2025-09-02T20:18:23.996Z</time>
      </trkpt>
      <trkpt lat="47.23402" lon="-1.71958">
        <ele>16.938896</ele>
        <time>2025-09-02T20:18:44.902Z</time>
      </trkpt>
      <trkpt lat="47.23394" lon="-1.71943">
        <ele>17.142293</ele>
        <time>2025-09-02T20:18:49.117Z</time>
      </trkpt>
      <trkpt lat="47.23394" lon="-1.71901">
        <ele>17.624156</ele>
        <time>2025-09-02T20:18:58.873Z</time>
      </trkpt>
      <trkpt lat="47.23395" lon="-1.71883">
        <ele>17.837171</ele>
        <time>2025-09-02T20:19:02.955Z</time>
      </trkpt>
      <trkpt lat="47.23404" lon="-1.71858">
        <ele>18.076858</ele>
        <time>2025-09-02T20:19:08.940Z</time>
      </trkpt>
      <trkpt lat="47.23495" lon="-1.71858">
        <ele>18.076858</ele>
        <time>2025-09-02T20:19:33.274Z</time>
      </trkpt>
      <trkpt lat="47.23497" lon="-1.71859">
        <ele>18.076858</ele>
        <time>2025-09-02T20:19:33.913Z</time>
      </trkpt>
    </trkseg>
  </trk>
</gpx>